GFSFLT1_sfc_wetblb_000.txt.gz
Wetbulb
68.54 69.51 69.37 69.84 70.99 72.01 73.03 73.80 74.72 75.66 76.66 77.88 78.41 78.43 79.27 79.89 79.61 77.80 77.39 77.54 75.42 73.88 72.83 72.06 74.24 75.66 73.88 72.94 72.46 71.87 70.88 69.46 69.11
66.62 68.99 69.42 69.37 70.85 72.08 72.82 73.71 74.96 76.57 77.92 77.55 77.91 77.92 78.58 79.05 79.27 78.54 77.61 78.17 77.70 75.25 75.58 72.53 74.26 74.29 73.16 72.07 72.33 71.13 70.67 68.70 69.04
66.71 68.94 69.59 69.55 70.40 71.55 72.99 73.95 74.95 75.83 76.89 77.73 77.61 77.68 77.87 77.85 78.22 78.63 78.43 78.38 77.72 76.41 75.96 74.96 73.63 72.98 71.70 71.40 71.29 70.59 70.91 69.50 69.94
66.30 68.27 69.69 70.22 70.29 71.30 72.88 73.71 74.32 75.36 76.12 76.76 77.16 77.41 78.34 78.10 77.45 77.95 78.35 77.92 77.76 77.34 75.95 74.33 73.21 72.77 70.74 70.89 70.27 70.49 70.34 70.09 69.09
63.78 68.27 70.11 71.05 71.27 71.74 72.15 73.21 73.68 74.42 75.39 76.13 76.92 78.21 78.94 77.54 77.55 77.61 77.43 77.48 76.84 75.83 74.05 73.04 72.48 71.48 70.60 70.51 70.34 70.16 70.00 68.93 68.36
66.37 68.57 70.17 71.30 71.66 72.03 72.34 72.80 74.60 74.35 75.42 75.88 76.61 77.39 77.30 76.97 76.79 76.88 76.90 75.44 73.04 73.84 72.36 70.73 69.45 69.38 70.24 70.39 70.58 70.14 70.34 70.19 69.45
66.64 68.87 69.90 71.19 71.54 72.67 73.18 74.45 76.09 76.48 75.24 76.17 76.49 76.66 76.99 76.97 76.46 76.52 75.92 74.66 69.66 68.94 69.86 69.87 68.34 69.36 68.90 69.54 70.53 70.50 70.22 69.95 69.53
66.16 68.61 69.14 70.64 71.48 74.15 75.49 75.57 76.24 75.95 75.83 76.47 76.77 76.79 76.54 76.84 77.26 76.16 74.41 72.61 69.48 68.77 69.07 69.60 66.42 67.19 66.67 68.23 70.17 68.62 70.18 69.39 68.56
65.93 68.53 69.18 70.57 72.02 73.14 73.94 74.56 74.91 75.67 75.73 76.09 76.84 76.77 76.58 77.35 76.96 74.92 71.79 71.59 70.80 71.60 70.65 69.44 67.67 67.07 67.38 67.58 68.01 64.19 63.71 67.13 68.59
65.97 68.47 69.32 70.16 71.43 72.88 74.21 74.71 75.72 75.17 75.61 76.40 76.33 76.20 76.62 76.91 75.73 73.15 71.42 71.12 71.06 70.51 69.77 69.69 69.30 68.49 68.57 67.50 69.09 62.31 62.32 63.97 67.97
66.51 68.90 69.74 70.54 71.31 72.82 73.85 74.34 74.61 74.90 75.33 75.52 75.72 75.78 75.95 75.88 74.37 72.26 72.00 71.00 71.07 70.48 69.24 68.32 69.00 68.98 68.58 68.24 68.68 62.25 61.10 63.34 68.71
67.92 69.89 71.35 71.35 71.86 72.74 73.52 73.33 73.93 73.87 73.90 74.38 74.62 74.74 74.97 73.90 73.28 71.25 70.48 70.55 70.26 70.88 69.99 69.30 69.70 69.88 69.45 69.03 69.49 58.54 58.60 62.89 68.50
66.71 69.25 70.43 70.71 71.12 72.16 72.06 72.47 72.98 73.01 73.24 73.77 73.86 74.36 74.50 73.15 72.53 72.04 70.68 71.08 70.81 70.51 70.66 69.28 68.39 68.63 69.48 66.06 69.81 57.97 56.76 61.11 67.57
69.00 70.06 70.45 71.20 71.21 70.60 71.68 72.46 72.94 72.69 73.13 73.29 74.64 75.21 74.33 72.66 72.83 73.02 72.53 72.08 70.85 70.33 69.94 68.96 69.76 68.75 69.82 68.52 66.16 67.93 55.99 55.93 66.69
69.21 69.09 69.46 69.86 70.62 71.68 72.91 73.49 73.73 73.47 73.61 75.19 75.68 75.08 72.35 71.97 72.43 71.91 72.29 71.05 69.67 68.98 69.15 69.05 68.48 69.72 69.46 69.05 69.92 59.72 56.27 54.39 56.27
68.05 68.30 68.73 69.91 70.99 72.09 73.32 74.39 74.50 73.86 75.60 75.60 74.92 72.47 71.32 71.52 71.54 71.05 71.39 70.20 68.14 67.53 68.48 67.76 67.70 67.98 67.32 67.16 68.88 65.65 54.10 53.13 53.07
68.37 69.68 69.69 70.22 70.48 71.41 72.34 73.51 74.19 74.91 74.05 74.56 74.29 71.88 71.52 70.37 71.02 70.17 70.00 69.48 69.02 69.02 68.53 67.20 68.71 67.77 66.54 65.00 65.80 66.32 63.72 60.49 59.03
68.72 69.56 70.07 70.32 70.60 71.54 71.84 73.00 73.19 73.34 73.29 73.15 71.74 70.67 70.07 70.01 69.46 68.88 70.04 66.62 61.75 68.94 64.25 61.60 66.57 66.42 64.73 64.75 65.92 65.68 59.55 58.95 63.91
68.22 69.73 70.47 70.57 71.17 71.56 71.95 72.33 72.52 73.17 72.60 72.33 71.08 68.75 69.12 68.82 68.90 69.81 68.92 66.88 64.03 45.56 46.29 45.64 45.35 44.63 55.79 62.96 50.56 45.95 43.83 43.00 43.09
61.62 66.49 67.31 69.90 70.13 71.15 71.64 71.95 72.14 72.94 73.35 72.43 70.99 70.47 70.25 69.48 66.97 68.30 67.98 67.52 65.93 63.31 52.36 43.10 41.54 41.76 42.87 45.80 45.46 42.15 41.14 40.65 40.92

GFSFLT1_sfc_wetblb_003.txt.gz
Wetbulb
66.61 69.49 70.35 69.67 71.33 73.06 74.56 75.11 76.96 77.66 78.90 80.45 81.38 80.72 81.19 81.45 81.15 77.47 76.95 77.99 76.30 74.23 73.62 73.48 76.26 75.76 75.80 74.72 72.68 72.55 72.51 70.23 69.48
63.57 67.93 70.00 70.12 70.59 72.18 73.95 74.55 76.44 77.55 78.83 80.03 80.77 78.85 81.42 81.26 81.00 80.45 77.40 79.73 79.39 76.34 77.95 73.98 73.81 74.91 75.26 74.53 72.83 72.86 72.85 69.43 71.58
63.81 66.39 69.96 70.31 70.35 71.41 73.62 73.97 75.68 77.69 79.01 79.77 79.55 80.00 80.54 79.98 80.09 80.71 80.33 80.68 79.85 78.90 77.92 76.14 75.90 74.46 74.26 73.76 73.71 73.63 73.31 71.55 72.02
63.77 66.19 69.25 70.54 70.51 71.16 72.68 73.26 74.68 75.89 77.26 78.96 79.35 79.95 79.84 80.00 79.20 79.70 79.99 79.48 79.25 79.02 77.97 77.31 75.96 75.52 74.45 73.08 72.55 71.96 71.94 71.60 70.77
64.26 66.63 68.95 70.50 70.91 70.99 71.51 73.35 73.29 74.01 75.28 75.78 77.95 79.66 80.55 80.23 80.12 79.60 79.11 79.27 79.48 79.26 78.03 77.30 75.71 75.10 73.47 72.10 71.70 70.95 71.47 69.88 69.48
64.19 66.23 67.97 70.16 70.59 71.65 71.79 72.55 73.60 73.25 74.92 74.63 76.17 78.71 78.55 79.30 78.88 79.44 78.88 78.95 79.25 78.65 78.33 76.55 74.38 74.14 73.11 71.66 71.49 71.81 71.73 71.40 70.14
64.62 65.57 69.48 69.79 70.87 72.28 72.98 73.77 74.35 74.65 74.54 74.40 75.28 76.65 77.09 78.67 79.16 78.97 78.78 79.07 78.58 77.31 77.13 75.38 73.44 73.17 72.10 71.64 71.29 70.81 70.65 70.33 69.84
62.99 64.09 68.32 70.64 71.33 74.52 75.35 74.84 75.64 76.02 75.53 76.61 76.40 77.93 77.26 78.83 79.85 79.45 78.96 78.67 78.25 76.81 75.70 74.17 72.65 71.88 71.31 71.13 70.01 70.34 71.13 70.26 69.97
62.31 63.16 64.64 70.34 72.19 73.38 76.07 76.03 76.91 77.01 76.96 77.51 78.02 78.85 78.41 79.71 80.09 79.25 78.45 77.90 76.77 74.72 75.09 73.49 72.43 69.94 69.73 69.41 68.29 64.48 65.13 68.89 68.66
62.91 65.15 65.92 68.82 71.78 73.31 75.10 75.37 77.72 77.35 78.05 78.39 78.75 79.48 79.60 80.71 80.15 78.34 76.36 76.21 75.23 74.01 73.30 73.27 72.18 69.45 69.74 69.19 69.97 62.52 62.76 64.51 68.58
64.19 65.88 66.33 67.97 71.13 73.46 76.02 75.61 75.54 77.08 77.27 78.88 79.27 79.32 79.55 80.18 79.27 76.59 74.52 73.61 73.19 73.31 73.66 73.11 71.98 70.22 71.25 70.19 70.08 61.43 61.25 64.04 67.72
64.73 65.32 67.12 69.20 72.53 74.01 77.75 76.76 78.29 78.21 77.09 77.92 78.27 77.48 78.97 79.52 77.84 75.55 73.81 72.12 72.52 73.60 73.09 73.76 70.90 69.82 69.91 70.29 69.90 59.55 59.14 63.47 67.86
67.48 68.24 67.75 71.08 73.10 74.64 75.63 77.24 76.47 76.90 75.31 76.21 76.96 77.54 78.15 79.16 77.14 75.05 73.16 72.52 72.60 73.43 74.00 72.63 70.32 69.49 69.76 67.74 70.91 57.91 57.19 61.96 66.45
68.82 68.56 72.05 73.99 74.03 75.18 76.38 77.29 75.49 75.82 75.53 74.81 75.91 76.71 76.85 76.96 75.51 73.88 72.92 73.36 73.76 72.69 72.47 70.96 68.63 68.10 70.79 71.71 69.95 68.30 55.84 55.94 67.13
69.32 69.99 71.74 72.35 73.24 74.18 74.97 76.29 75.97 75.76 76.05 77.57 78.10 77.56 76.44 74.97 73.85 73.03 72.87 73.44 72.20 71.33 70.87 70.40 70.13 70.39 70.38 70.60 70.79 61.30 56.00 55.00 55.90
70.44 70.76 71.36 71.76 71.39 73.69 74.45 76.45 76.72 76.41 78.56 78.60 77.75 76.96 74.56 73.49 73.44 73.11 73.79 73.12 72.32 70.58 71.01 69.50 69.19 68.88 67.79 68.33 69.76 71.62 55.74 54.73 54.14
68.01 69.03 70.38 71.00 71.64 72.49 73.72 76.09 75.60 76.93 76.83 77.21 76.52 73.45 72.39 72.38 71.97 71.93 72.12 72.37 70.33 68.69 68.00 68.14 68.72 68.40 68.57 68.69 70.38 66.95 66.95 64.49 62.30
68.91 69.35 70.03 70.91 71.27 71.86 72.77 74.51 75.23 75.23 75.81 76.16 73.21 71.67 71.39 72.55 71.90 71.46 71.21 69.02 66.29 70.08 70.69 65.07 68.63 68.55 68.29 67.57 65.90 66.65 61.42 59.49 63.87
69.08 69.45 70.16 70.75 71.05 72.09 73.07 73.71 74.16 74.41 74.82 74.71 73.40 71.63 71.75 71.23 71.05 71.32 69.52 65.96 62.95 46.96 48.63 46.79 46.68 45.30 56.67 61.93 50.13 45.82 44.90 44.42 46.00
62.58 68.53 69.47 69.91 70.42 71.42 72.64 73.27 73.61 73.37 74.35 74.40 72.80 71.76 71.70 71.09 69.43 70.35 69.67 68.99 68.48 65.70 53.67 44.37 42.92 42.92 44.76 47.57 47.18 42.72 41.95 41.83 42.30

GFSFLT1_sfc_wetblb_006.txt.gz
Wetbulb
68.10 69.09 69.58 69.87 71.01 71.92 73.08 73.70 74.97 75.87 77.07 77.62 78.84 78.55 78.43 78.33 77.93 76.98 76.98 77.95 76.42 76.05 74.45 75.18 74.96 75.68 76.24 75.96 73.19 73.26 73.03 71.93 70.95
65.24 68.33 69.75 70.06 71.54 72.36 73.35 73.62 74.62 75.63 77.17 77.91 78.83 79.05 78.87 79.09 78.30 77.57 76.92 77.58 77.83 76.97 76.50 76.32 75.84 75.21 75.70 74.80 73.70 73.11 73.33 70.19 70.57
64.27 65.83 69.81 70.57 70.86 72.83 73.62 74.40 74.87 76.46 77.07 78.06 79.24 79.08 79.10 79.07 78.99 78.45 78.01 77.45 77.66 75.89 76.39 76.61 74.45 75.24 74.32 74.48 72.71 73.40 72.71 70.88 71.76
64.01 65.22 68.85 69.73 71.23 72.13 73.92 74.80 74.88 75.56 76.18 77.68 78.56 79.04 78.88 78.91 78.85 78.82 78.28 78.82 78.48 76.71 77.53 75.48 75.18 74.18 74.21 73.80 72.83 72.90 71.67 70.98 70.38
64.91 65.44 67.52 69.60 71.55 71.48 72.70 73.52 74.15 75.05 76.11 77.29 78.12 78.63 78.82 78.66 78.85 78.90 78.54 77.55 78.51 77.52 77.76 76.13 74.66 74.82 74.11 73.56 71.59 72.25 70.98 69.66 68.73
66.32 69.07 69.51 69.80 70.83 71.23 71.66 72.40 73.27 74.43 75.59 76.57 78.26 78.27 78.26 78.04 78.23 78.12 78.08 77.92 77.33 77.85 77.38 76.23 75.73 74.46 73.81 72.22 70.97 71.10 70.53 70.05 69.68
65.91 69.82 71.15 70.25 70.37 71.78 71.55 72.33 72.94 73.76 74.85 75.98 77.13 77.57 77.61 77.34 77.43 77.64 77.53 78.06 77.66 77.50 77.42 76.22 75.99 74.53 73.60 72.04 70.79 70.50 70.35 70.22 69.87
66.38 68.34 69.79 71.63 72.52 72.87 72.24 72.67 72.85 73.28 74.03 74.53 75.37 76.32 77.07 77.24 78.12 77.97 77.93 77.78 77.78 77.59 77.75 77.36 76.66 74.46 73.31 71.97 70.37 70.19 70.17 70.14 69.57
64.79 65.94 66.75 71.01 72.05 74.76 75.32 73.43 72.93 72.94 73.22 73.59 74.95 75.07 75.74 77.00 77.80 77.98 77.58 77.39 77.60 77.49 77.84 76.92 75.87 72.87 71.72 69.83 69.46 66.22 66.52 69.65 69.45
64.84 65.70 66.61 69.89 72.75 73.29 74.53 75.02 74.00 72.94 73.29 74.38 74.29 75.20 75.99 76.39 77.67 77.94 77.52 77.56 77.56 77.43 76.85 75.90 74.15 71.87 70.17 68.20 69.63 62.48 63.90 66.47 69.12
63.74 66.18 66.05 67.26 65.77 73.59 75.41 76.09 74.98 74.96 74.72 74.87 74.50 77.15 76.30 76.94 78.06 77.85 77.68 77.42 77.06 77.28 75.58 74.12 73.50 71.72 69.09 68.53 69.28 61.94 61.82 64.54 66.74
63.81 64.14 68.93 68.01 66.55 70.07 75.33 75.76 75.92 76.41 75.22 74.82 77.13 76.31 77.53 78.00 79.30 78.06 77.68 76.76 76.20 75.50 73.76 73.14 72.48 71.12 69.24 69.04 69.49 59.67 59.74 62.14 65.62
63.35 63.48 65.33 70.86 71.42 72.03 76.14 76.38 76.47 75.93 76.13 75.58 74.96 77.12 78.03 79.55 79.24 77.89 76.05 75.27 74.05 73.06 73.80 73.25 73.29 70.75 70.29 66.80 70.71 58.88 57.54 61.55 66.41
70.67 66.38 68.78 73.28 76.15 75.11 76.44 77.20 77.04 75.74 76.15 76.02 76.83 78.98 78.95 79.58 78.83 77.01 75.04 73.17 72.89 73.00 73.32 74.12 71.75 68.68 68.65 69.45 69.51 67.43 56.12 56.75 66.88
70.52 70.54 70.26 73.95 77.54 77.47 77.86 78.07 77.35 76.93 76.97 78.70 79.34 78.65 78.74 78.51 76.55 73.86 72.93 72.64 72.92 72.77 72.12 70.40 69.82 69.49 68.91 71.85 71.63 63.27 55.65 55.27 57.54
70.51 70.60 73.65 73.84 75.30 76.91 78.06 78.44 77.12 76.25 77.46 77.78 77.52 77.18 77.19 76.20 74.32 72.98 72.77 73.30 71.10 70.03 71.58 70.15 69.19 68.82 69.82 69.78 69.92 67.19 57.29 54.30 54.49
71.27 72.67 73.20 73.70 73.80 74.04 75.06 76.19 76.94 77.34 77.55 77.56 76.86 76.10 74.52 73.59 72.62 73.28 73.96 72.84 71.94 70.80 70.27 69.73 68.80 70.08 69.16 70.07 69.39 68.23 64.92 62.06 59.81
70.97 71.53 72.09 73.80 74.12 74.62 75.39 77.06 76.32 77.22 77.75 77.37 74.73 73.30 72.45 71.56 71.39 71.45 71.30 64.40 63.73 69.53 60.28 61.01 70.85 71.55 69.86 68.37 67.95 67.41 63.89 63.58 65.53
67.11 68.19 69.57 70.42 73.20 73.64 73.69 75.03 75.54 76.37 76.65 75.17 73.35 71.54 71.26 71.41 70.46 70.15 67.30 63.50 59.99 46.06 47.03 45.40 45.94 47.55 59.17 58.49 50.80 48.93 47.27 45.86 46.15
62.72 67.09 70.46 72.02 72.71 73.56 73.92 73.77 73.73 75.12 75.59 74.17 73.32 71.53 71.68 69.74 69.06 69.74 68.19 67.25 65.32 60.17 51.49 44.83 43.39 43.60 44.80 50.32 46.73 43.98 43.18 42.73 43.43

GFSFLT1_sfc_wetblb_009.txt.gz
Wetbulb
65.38 65.08 65.26 65.71 67.98 69.04 69.78 70.42 71.98 73.16 73.84 73.87 75.42 75.37 75.32 74.14 74.43 73.03 72.36 72.86 72.74 72.99 72.66 72.87 72.45 72.81 71.98 70.17 68.93 69.07 68.85 66.89 66.62
63.91 65.01 65.06 66.17 67.52 69.00 69.81 70.45 72.10 72.49 74.34 74.77 75.39 75.85 75.79 74.82 74.64 74.40 73.49 72.77 74.08 72.49 71.95 72.48 72.40 73.03 72.19 71.01 68.82 68.75 67.77 66.72 65.20
62.53 63.85 64.78 66.64 67.26 68.75 70.11 71.02 72.23 73.25 74.41 75.07 75.75 75.60 76.28 75.78 75.35 74.30 73.96 73.06 73.44 73.16 71.62 72.52 71.54 72.78 73.01 71.52 69.07 68.50 67.58 65.73 66.87
62.05 63.80 65.38 66.62 67.75 69.04 70.51 71.46 72.02 72.80 74.07 75.11 75.71 76.36 76.29 76.02 75.67 75.17 74.53 74.25 73.97 73.20 72.75 72.05 72.29 72.02 72.53 71.22 69.43 69.30 67.93 65.72 65.46
61.07 61.53 65.02 67.28 67.96 69.00 70.33 70.97 71.39 72.43 74.85 75.20 76.00 76.55 76.49 76.21 76.33 75.99 75.09 74.16 74.44 74.21 72.96 72.33 72.45 72.39 71.06 71.35 69.98 69.16 68.60 66.30 66.65
61.35 61.20 66.10 67.29 67.57 69.14 70.17 70.73 71.08 72.37 73.76 75.68 76.46 76.73 76.37 76.25 75.90 76.10 75.90 74.75 75.59 75.36 73.41 73.09 71.65 71.13 70.96 70.64 70.04 69.05 68.78 66.90 65.45
61.09 61.09 64.20 66.01 67.35 68.94 70.02 70.95 71.15 71.57 73.14 75.37 76.14 76.76 76.24 75.63 75.80 76.01 76.08 76.00 74.79 75.31 74.92 73.21 71.57 71.30 71.11 71.01 69.83 68.96 68.36 67.27 65.67
61.21 62.34 64.33 64.49 67.03 67.67 69.29 70.15 70.85 71.67 72.52 73.58 75.57 75.65 75.67 75.37 75.89 76.17 76.16 75.99 75.85 74.61 74.40 73.77 73.36 71.42 71.45 70.45 69.27 68.92 67.25 67.33 66.25
58.37 62.46 65.91 65.49 66.42 67.44 67.70 68.98 69.86 71.18 72.05 73.34 74.45 74.82 75.02 75.32 75.40 75.34 75.58 75.61 75.37 75.18 74.29 74.07 73.69 72.18 71.13 69.69 69.47 66.01 66.23 67.54 66.79
57.46 59.55 64.15 65.48 65.79 68.41 68.42 69.21 70.14 70.42 71.73 73.08 73.30 73.88 74.78 74.79 74.69 74.69 74.73 75.12 74.68 74.78 74.56 74.83 73.89 72.11 70.77 69.07 67.82 63.66 64.30 66.57 66.66
57.18 60.03 61.43 64.14 67.55 67.29 70.26 70.32 70.44 71.23 71.56 72.03 72.33 72.31 73.65 74.28 74.57 74.44 75.05 74.95 74.61 74.97 74.95 74.27 72.86 71.15 69.75 68.08 67.36 61.56 61.87 64.42 66.33
57.00 60.15 59.61 60.61 63.49 67.96 70.23 71.35 70.96 70.51 70.34 70.86 71.08 70.95 71.82 73.48 73.97 74.42 75.05 74.59 74.41 75.00 74.48 72.91 72.02 70.56 68.02 66.84 66.79 60.40 59.13 61.69 64.04
59.97 60.08 59.10 59.08 64.25 63.19 69.58 70.29 71.67 70.33 69.81 70.31 69.85 70.77 71.91 73.39 73.97 74.61 75.00 74.71 74.41 73.37 72.46 71.42 71.55 69.82 67.66 65.21 66.83 59.55 58.65 60.18 63.84
64.36 64.06 62.99 60.18 63.89 66.20 69.70 70.57 71.85 70.37 70.25 69.80 71.65 71.45 74.19 75.08 76.00 75.68 74.60 73.14 71.59 71.04 70.72 71.21 70.88 69.45 67.41 66.82 66.82 63.10 56.54 56.60 63.74
63.56 66.16 63.76 71.71 68.15 69.70 71.66 71.28 72.57 71.50 70.48 71.65 74.74 75.92 76.66 76.04 74.43 73.56 72.25 70.68 70.66 70.32 70.38 69.12 67.46 66.79 66.32 66.97 67.35 60.23 55.32 55.62 57.81
65.49 67.38 69.83 71.66 72.44 72.85 73.61 73.09 73.56 73.54 74.55 75.46 75.74 76.19 74.93 72.83 72.16 71.36 70.52 69.89 69.63 69.67 67.64 67.21 66.66 66.10 65.19 65.63 66.63 64.10 56.66 54.17 54.57
67.72 68.24 68.98 71.00 71.92 71.52 72.18 73.77 74.36 74.58 74.83 75.35 75.53 73.88 72.29 71.03 70.14 70.08 70.38 69.53 68.85 68.41 67.80 67.26 65.86 65.43 65.54 65.33 65.09 62.26 59.07 56.17 56.22
63.67 67.67 70.12 71.43 71.43 72.78 72.61 73.53 73.95 74.18 74.61 74.65 72.20 71.09 70.50 70.20 70.17 69.95 61.54 54.84 56.68 62.40 53.38 60.57 65.86 66.51 65.50 63.63 64.13 64.23 60.03 58.55 59.86
60.61 61.01 64.78 70.26 71.26 71.85 72.30 73.17 73.15 72.90 72.48 71.69 70.38 69.33 69.31 69.49 69.06 62.93 59.78 57.98 53.71 45.95 46.25 45.02 45.76 50.89 59.22 54.50 50.76 52.95 51.32 49.49 50.78
58.65 59.79 59.46 67.25 69.60 70.68 70.84 71.91 71.76 72.00 71.71 70.91 69.62 68.93 69.20 68.91 66.10 64.63 62.46 60.43 58.53 53.49 48.88 44.96 43.64 43.96 50.05 50.72 47.57 46.75 44.41 43.32 44.63

GFSFLT1_sfc_wetblb_012.txt.gz
Wetbulb
62.91 63.00 64.73 65.66 66.28 67.38 67.91 68.77 70.11 71.12 71.34 71.09 72.35 72.65 72.87 73.19 72.71 72.54 71.96 69.83 71.49 72.03 72.52 72.78 72.45 72.79 71.19 68.29 67.49 66.68 65.65 64.65 64.78
62.51 63.07 63.54 65.15 66.82 67.64 68.09 68.57 69.69 70.82 71.86 71.97 72.59 73.10 72.56 73.16 73.42 72.87 72.12 71.18 72.09 72.36 72.29 72.71 72.21 72.70 70.49 68.84 68.07 67.34 66.52 64.76 64.36
62.83 63.55 63.67 65.03 65.86 67.63 68.82 69.21 70.31 71.67 72.43 72.20 73.24 73.91 73.53 73.13 73.06 73.95 72.76 71.76 72.20 71.92 71.81 72.16 71.91 71.73 70.87 69.26 67.48 68.13 66.65 64.91 64.14
63.22 63.95 64.29 64.57 65.45 67.81 68.95 69.62 70.61 71.60 72.25 72.19 72.98 73.93 73.90 73.87 73.47 73.21 73.35 72.49 72.59 72.92 71.80 70.97 71.59 71.30 71.07 69.66 67.94 67.20 66.29 64.89 64.98
64.48 64.87 64.00 65.12 65.45 66.79 68.04 69.09 70.56 71.15 72.53 72.63 73.32 74.28 74.29 74.10 74.30 73.98 73.04 72.69 73.04 72.37 72.28 71.36 71.56 71.27 71.59 70.55 68.97 67.14 67.01 64.78 65.09
60.73 60.78 61.56 62.44 65.17 66.30 67.62 68.90 69.83 71.20 72.29 73.25 74.02 74.29 74.17 74.55 74.16 74.07 73.59 72.83 73.21 73.10 72.33 70.95 71.17 70.85 71.38 70.97 69.55 67.96 67.23 66.28 64.97
60.56 61.72 61.55 62.68 64.93 66.21 67.84 68.93 69.73 71.11 71.96 73.78 74.22 74.72 74.54 74.15 74.46 74.54 74.49 73.94 73.31 72.98 73.32 71.41 70.97 71.17 70.75 71.20 70.31 68.56 68.25 66.86 65.35
58.39 61.18 61.91 62.77 64.77 66.18 67.77 68.83 69.54 70.90 72.39 73.30 74.30 74.19 74.56 74.31 74.91 75.14 75.04 74.54 74.06 73.37 74.21 72.26 71.48 70.01 70.54 70.13 70.11 69.42 68.07 67.56 65.95
58.34 58.99 62.04 63.70 65.48 66.88 67.78 68.80 69.40 70.35 71.71 73.53 74.27 74.26 74.24 74.92 75.16 74.91 74.79 75.14 74.64 73.55 73.21 73.45 71.25 70.20 69.51 69.53 70.21 66.50 65.87 67.67 66.71
57.00 58.74 62.55 63.96 65.72 67.41 68.22 69.32 70.02 69.74 71.33 73.39 74.13 74.11 74.76 74.82 74.75 74.39 74.49 74.79 74.64 74.30 73.16 72.54 71.91 70.44 70.16 69.70 69.67 64.20 64.09 65.98 67.04
56.27 57.49 59.37 64.75 65.98 66.85 68.66 69.98 70.47 70.89 71.13 72.10 73.34 73.62 74.21 74.88 74.52 74.16 74.39 74.51 74.36 74.22 74.27 72.89 72.64 71.35 70.86 70.10 69.64 62.91 62.32 64.89 66.96
55.96 57.18 58.74 59.25 64.13 66.11 66.38 68.76 69.97 70.48 70.56 71.15 71.65 72.43 73.39 74.04 74.43 73.68 73.87 73.61 73.98 73.98 74.20 73.74 73.18 71.98 70.67 70.00 69.51 60.21 59.86 63.46 66.38
56.80 55.55 56.93 58.44 59.33 63.48 68.68 67.91 69.68 69.54 69.66 70.49 70.63 71.60 72.63 73.96 74.39 73.59 73.32 73.60 73.74 74.22 74.39 73.80 72.22 70.82 70.27 66.99 67.95 58.03 57.93 60.91 63.65
61.41 61.73 60.08 58.27 56.20 59.21 65.27 69.74 68.56 68.12 69.16 69.54 71.26 72.21 72.41 72.76 73.87 73.58 73.69 74.09 74.31 74.41 73.29 72.57 71.31 69.15 67.07 66.76 66.58 64.41 57.82 56.41 63.41
62.13 61.15 62.30 67.37 58.56 58.40 62.30 66.82 69.16 68.05 67.99 70.10 70.90 71.27 70.91 70.89 72.49 73.11 74.45 73.85 73.41 72.78 71.47 70.64 69.62 67.81 66.53 65.84 66.22 60.53 55.60 54.99 58.15
66.33 67.18 67.53 69.60 68.84 66.11 69.12 66.33 69.86 68.21 68.82 69.46 69.03 69.18 70.61 71.78 73.02 73.92 73.76 72.39 71.59 70.19 69.92 68.65 67.02 66.62 64.40 64.17 64.88 62.09 55.23 54.16 54.85
61.72 62.00 62.55 63.36 65.37 69.39 70.07 70.58 69.54 69.26 69.17 70.18 70.92 72.58 73.67 73.40 72.35 71.28 71.19 70.64 70.36 68.92 67.79 66.78 65.80 65.31 64.95 64.83 64.38 62.25 59.21 56.46 55.96
59.58 60.46 60.73 60.52 59.61 59.00 58.66 70.87 73.01 73.45 73.79 74.49 73.49 72.60 72.10 71.45 70.10 70.03 64.69 57.71 63.92 67.07 64.04 65.42 65.65 65.00 65.18 64.48 63.58 62.41 57.81 56.50 58.65
58.71 59.45 60.10 58.25 57.60 56.90 58.46 59.19 65.45 73.71 73.95 73.21 71.66 70.14 69.96 69.10 64.40 62.09 60.50 58.87 55.11 47.50 46.40 47.50 51.56 54.64 61.77 56.26 56.16 50.29 48.30 47.21 47.03
57.86 60.37 60.50 61.57 61.57 59.43 59.17 63.36 61.20 69.67 71.54 71.14 70.73 70.00 68.79 65.56 63.86 63.52 63.49 61.82 58.55 53.63 48.76 45.36 44.53 46.67 49.65 52.60 52.11 47.76 45.76 44.86 45.40

GFSFLT1_sfc_wetblb_015.txt.gz
Wetbulb
61.94 63.35 64.11 64.94 65.74 66.35 67.92 68.26 69.35 69.85 69.56 69.92 71.78 72.19 71.90 71.97 71.76 71.33 70.96 69.78 70.12 70.50 71.37 71.76 72.38 72.16 71.66 70.13 66.73 66.14 64.88 63.89 63.18
61.54 62.32 63.82 64.58 65.54 66.09 67.29 68.05 68.47 69.80 69.61 69.62 71.05 72.02 72.27 71.97 72.07 71.67 71.04 69.82 70.51 70.71 71.63 72.33 71.99 72.29 71.71 69.95 67.58 65.84 64.59 63.72 63.64
60.63 61.96 62.88 64.36 65.31 65.97 67.05 68.03 68.75 69.73 70.48 69.97 70.29 71.57 72.39 72.22 72.24 72.14 71.65 71.07 70.27 70.72 71.40 71.49 71.28 71.95 71.38 69.59 67.34 66.15 65.23 63.83 63.21
60.83 61.44 62.55 63.39 65.05 66.11 66.81 67.84 68.29 69.17 70.24 70.27 70.37 70.97 71.57 71.70 72.10 72.24 72.07 71.05 71.37 71.43 71.32 71.23 71.53 71.53 71.05 69.61 67.46 66.77 65.78 64.68 63.80
59.57 62.38 63.29 63.64 64.08 65.19 66.23 67.02 67.58 68.78 69.99 70.56 70.69 71.41 71.71 71.48 71.82 72.10 72.37 71.55 71.38 71.84 71.42 70.97 71.30 71.14 70.99 69.81 68.17 66.87 66.06 65.39 65.25
57.39 59.88 62.10 62.95 63.46 63.03 65.58 66.79 67.46 68.71 69.91 70.67 71.36 71.65 71.89 71.94 71.90 71.65 71.97 72.39 72.24 71.88 72.07 70.53 71.03 70.75 70.54 69.82 68.56 66.71 66.63 65.76 65.34
57.25 59.69 61.62 61.60 61.25 62.37 65.20 66.85 67.69 68.71 69.88 71.08 71.30 71.82 72.04 71.94 72.10 72.42 72.11 72.30 72.31 72.34 72.15 70.98 70.38 70.51 70.78 70.74 69.74 68.54 67.20 66.36 65.34
56.68 57.82 59.43 61.30 62.16 63.67 64.72 66.08 67.74 69.03 69.88 71.13 71.57 71.35 71.91 72.13 72.71 73.19 73.04 72.64 72.14 72.16 71.92 71.61 70.87 70.01 70.29 70.77 70.31 69.38 67.86 67.17 66.06
53.15 56.66 57.85 59.29 63.14 64.03 64.59 66.12 67.41 68.49 69.80 70.75 72.14 71.69 71.83 72.47 73.08 73.18 73.23 73.06 72.58 72.02 71.69 71.73 70.46 70.03 69.70 69.30 70.35 66.47 65.79 67.98 66.97
53.11 53.96 56.27 59.40 60.63 62.15 64.74 66.33 67.99 68.16 69.92 70.93 71.99 71.72 72.39 72.73 72.83 73.01 73.27 73.42 72.94 72.22 71.56 72.09 70.17 69.73 69.56 69.25 69.43 64.61 63.98 65.96 67.33
51.98 54.47 56.56 59.25 61.87 63.06 65.30 67.31 68.47 69.03 70.02 70.75 71.40 71.90 72.18 72.94 73.10 72.96 73.40 73.55 73.19 73.01 72.29 72.46 70.48 69.84 69.31 69.45 69.52 61.85 62.15 64.97 67.31
53.35 54.77 55.99 59.29 63.48 64.27 65.66 67.22 68.58 68.84 69.04 70.23 71.27 71.42 71.87 72.75 73.49 73.09 73.50 73.24 73.41 73.81 73.35 72.13 71.81 70.99 70.26 69.99 69.66 60.46 60.44 62.86 67.10
55.25 54.21 54.19 57.76 61.90 63.20 63.50 66.31 68.56 68.43 68.27 69.36 70.53 71.93 72.40 73.18 73.84 73.40 73.16 73.44 73.69 74.42 74.36 73.09 72.68 72.01 71.41 68.54 69.89 58.57 58.57 62.75 67.33
60.79 57.32 58.42 57.12 55.59 60.47 63.98 64.91 66.70 67.49 68.07 68.35 70.58 72.06 72.97 73.19 73.90 73.89 73.88 73.72 73.94 74.09 74.12 73.62 73.01 72.53 71.96 71.08 68.79 59.48 56.84 59.71 66.18
64.06 64.01 65.56 68.25 67.33 64.39 61.12 60.68 63.88 66.74 67.71 69.59 70.20 70.99 71.32 72.05 72.93 73.84 73.51 73.35 73.62 73.84 73.83 73.21 72.63 72.00 68.25 68.52 65.47 59.85 56.08 57.08 59.24
60.46 60.15 59.37 59.97 59.90 61.52 61.66 68.30 65.32 63.15 66.48 68.80 69.77 70.08 70.15 70.53 72.31 73.21 73.09 72.94 73.27 73.30 73.31 72.46 70.95 68.36 66.73 66.08 66.23 65.02 55.42 53.97 55.01
58.64 58.89 58.51 58.13 57.61 56.67 56.05 59.53 63.51 64.97 67.97 66.18 66.62 68.48 69.34 69.99 71.21 72.05 72.84 73.44 73.80 73.25 72.41 71.35 69.11 67.64 66.21 65.17 64.83 62.98 57.83 55.52 57.75
57.62 57.87 57.90 57.50 56.82 56.66 56.47 58.31 59.71 59.91 59.20 61.94 65.66 66.50 67.64 68.98 70.82 72.13 70.48 61.93 68.88 72.13 68.20 68.00 67.57 66.91 66.28 65.10 63.88 62.84 56.82 55.88 57.94
57.38 58.18 58.62 58.35 58.10 57.10 56.58 59.02 63.62 62.45 61.60 62.04 66.19 69.05 71.09 71.24 71.61 63.50 61.22 60.16 57.36 50.07 53.70 55.33 54.24 54.79 61.97 62.20 56.40 49.35 48.44 47.54 47.72
57.60 59.87 61.15 61.23 61.32 62.16 61.05 62.43 64.19 62.88 62.02 62.06 60.03 68.84 71.09 67.59 63.43 64.07 65.20 66.31 64.61 59.94 55.49 48.37 44.93 48.62 52.07 53.88 52.97 47.35 45.36 44.45 45.00

GFSFLT1_sfc_wetblb_018.txt.gz
Wetbulb
63.18 64.49 65.75 66.38 66.85 66.75 67.68 68.04 68.19 69.31 69.94 70.17 70.94 70.94 70.88 71.26 71.24 71.00 70.95 70.69 70.62 70.69 71.18 72.05 73.19 72.82 72.63 71.93 70.17 69.46 68.16 66.68 65.48
59.68 62.14 64.13 65.27 66.83 67.31 67.49 67.77 68.22 68.99 69.62 70.09 70.70 71.22 71.14 71.14 71.46 71.41 70.99 71.41 70.98 71.09 71.70 72.27 72.78 72.99 72.44 72.05 70.10 69.28 67.88 66.45 65.74
59.53 60.77 62.37 64.27 65.28 66.60 67.50 68.25 68.50 69.46 69.89 69.61 70.34 71.29 71.63 71.53 71.59 71.91 71.93 71.66 70.72 70.99 71.38 72.71 72.67 72.87 72.70 71.99 70.43 68.86 67.70 66.56 66.30
59.30 60.50 61.71 62.82 64.61 65.80 66.96 67.68 68.60 68.71 69.59 69.64 69.75 71.31 71.76 71.93 71.91 72.06 72.28 71.68 71.29 71.26 71.83 72.02 72.44 72.62 72.45 71.59 70.11 68.85 67.51 66.79 66.23
58.91 60.51 61.25 62.86 63.69 65.14 65.77 66.16 67.65 68.25 69.29 69.68 69.94 70.54 71.71 71.86 72.15 72.25 71.98 71.57 71.88 71.88 71.36 72.03 72.30 72.33 72.38 71.71 70.35 69.11 68.09 67.02 66.70
55.04 58.20 60.02 61.46 62.60 63.33 64.93 65.73 66.64 67.87 68.67 69.70 70.26 70.33 70.79 71.50 71.73 71.86 71.65 71.80 72.11 71.97 71.94 71.59 72.01 72.15 71.92 71.45 70.67 69.27 68.87 68.15 67.30
54.37 55.68 57.10 58.40 61.06 62.63 64.29 65.58 66.36 66.99 68.14 69.63 70.37 70.34 70.15 70.44 71.18 71.53 72.01 72.28 72.08 71.81 72.25 71.58 71.75 71.82 71.89 71.70 71.10 70.04 69.30 68.44 67.64
52.76 54.53 56.61 58.89 60.25 61.62 62.79 64.94 66.19 67.07 67.89 69.02 70.35 70.21 70.14 70.38 71.29 71.60 71.88 72.27 72.34 72.31 72.04 72.14 71.60 71.70 71.66 71.87 71.16 70.38 69.21 68.77 67.77
51.03 53.34 56.86 58.86 60.63 61.76 62.65 64.66 65.94 66.94 67.81 69.03 70.19 69.96 70.05 71.05 71.48 71.69 71.63 71.77 72.06 72.34 72.11 72.31 71.56 71.16 71.30 71.09 71.31 67.02 65.75 68.35 68.44
50.43 51.57 55.32 58.11 59.70 61.72 63.21 64.72 66.60 66.89 68.10 69.54 69.71 69.97 70.57 71.21 71.59 71.63 72.19 72.31 71.83 71.61 71.60 72.08 71.32 71.24 71.17 71.13 71.57 64.28 64.48 66.15 69.45
50.99 51.70 53.77 56.19 58.55 61.02 61.77 64.24 65.87 67.49 68.21 69.10 69.85 69.91 70.40 71.34 71.73 71.80 72.22 72.51 72.23 72.01 71.83 71.60 71.47 71.15 71.02 70.87 70.78 63.01 62.43 64.95 70.24
51.67 52.33 53.15 55.30 58.19 59.74 62.01 63.11 65.90 67.04 67.87 69.11 69.76 70.21 70.53 71.29 71.88 71.85 72.29 72.37 72.34 72.60 72.19 71.73 71.63 71.75 70.80 70.64 70.70 61.55 60.27 63.79 69.36
52.69 54.64 54.64 56.61 59.65 62.31 62.25 63.97 66.21 66.64 67.29 68.60 68.91 70.69 71.25 72.07 72.57 72.35 72.17 72.82 72.99 73.33 73.07 72.45 72.58 71.60 71.20 68.67 71.11 59.15 58.38 63.72 68.58
64.61 66.14 65.66 57.32 58.32 58.53 60.11 64.93 66.32 66.37 66.78 67.87 69.90 71.16 72.16 72.42 72.97 72.99 72.92 73.28 73.67 73.66 73.47 73.18 72.61 71.66 71.61 71.60 70.32 65.35 57.11 59.10 68.28
61.58 62.41 65.48 66.60 65.51 66.21 67.74 65.51 66.06 65.99 66.54 68.81 70.56 71.41 71.91 72.18 72.97 73.31 73.33 73.46 73.42 73.68 73.77 73.19 72.15 71.65 71.72 72.21 71.50 60.60 55.50 58.22 62.23
59.59 58.95 59.10 59.14 58.49 60.02 62.59 66.78 66.46 65.58 66.62 68.30 68.89 69.69 70.55 71.97 72.85 73.29 73.89 73.59 73.44 73.18 73.43 72.77 71.89 70.94 71.22 70.04 66.24 63.15 56.03 56.25 58.60
57.69 58.07 58.00 58.14 57.29 57.22 58.20 60.70 62.10 62.36 64.17 68.41 68.61 66.94 68.50 70.04 71.51 72.11 73.76 73.73 73.76 73.48 73.07 72.72 71.59 71.30 69.86 68.26 65.68 64.23 62.46 62.76 60.86
57.72 58.30 58.49 58.59 57.46 57.02 58.37 60.58 63.10 63.96 64.22 62.91 65.78 68.67 66.92 68.45 69.79 70.13 72.81 73.25 72.74 73.19 74.08 72.02 72.60 71.51 68.78 66.32 65.09 63.87 58.02 59.09 61.89
59.95 60.87 61.53 62.56 62.98 63.22 62.37 62.85 63.28 62.51 62.73 62.77 62.36 66.24 68.69 67.42 69.24 70.31 71.94 64.43 60.35 50.57 56.79 52.62 53.35 55.34 62.73 63.96 56.25 51.90 52.80 50.99 48.82
59.36 61.17 61.88 62.00 62.28 63.43 64.65 64.88 62.99 60.98 62.34 63.10 62.56 61.64 68.53 69.69 68.10 68.24 64.33 66.16 64.73 60.29 55.48 48.63 50.45 52.08 54.25 56.07 56.61 52.62 47.00 45.19 46.82

GFSFLT1_sfc_wetblb_021.txt.gz
Wetbulb
67.68 68.37 69.46 69.93 71.47 71.94 72.39 72.67 73.20 73.10 73.27 73.86 74.91 75.20 75.43 76.05 76.43 75.23 75.42 75.95 74.49 74.26 74.37 75.08 76.94 76.91 77.26 77.14 76.77 76.33 75.66 74.12 73.25
64.83 67.19 68.66 69.49 71.21 72.26 72.39 72.90 73.11 73.19 73.13 73.80 74.82 74.79 75.23 75.59 75.92 75.78 75.34 76.40 76.49 74.99 76.59 75.47 76.31 76.96 76.88 77.16 76.83 76.27 75.54 73.76 72.94
62.75 64.58 67.00 68.87 70.47 71.42 72.37 72.68 73.69 73.57 73.74 73.74 74.45 75.00 75.14 75.16 75.45 75.83 76.07 76.54 76.07 76.27 76.56 76.34 76.03 76.31 76.64 76.88 76.73 76.16 75.45 74.46 73.73
62.09 63.73 65.28 66.95 69.38 71.16 72.19 72.20 72.79 73.25 73.31 73.73 74.29 74.81 75.19 75.12 75.30 75.46 75.80 75.85 76.28 76.41 76.64 76.57 76.32 76.39 76.24 76.32 76.23 76.00 75.18 74.86 73.99
62.19 64.97 66.10 66.78 67.91 69.32 70.51 71.83 71.71 72.38 73.00 73.21 74.16 74.76 75.07 75.01 75.65 75.51 75.38 75.52 76.12 76.68 76.51 76.65 77.33 77.18 76.27 76.34 76.39 76.02 74.84 74.35 73.75
61.09 63.05 65.14 66.62 67.11 67.89 69.51 70.52 71.75 72.27 72.57 72.86 73.83 74.52 74.58 74.95 75.31 75.46 75.26 75.58 76.13 76.54 76.62 76.53 75.90 76.90 76.82 76.01 75.83 75.53 75.22 75.01 74.33
60.96 62.45 64.74 66.38 67.03 68.89 69.64 70.36 71.19 71.55 72.41 73.04 73.40 73.65 74.14 74.37 74.91 75.28 75.53 76.02 76.08 76.34 76.65 76.40 76.65 76.97 76.68 76.42 75.71 75.63 75.13 74.73 74.65
59.94 60.14 61.79 63.83 65.10 68.61 69.79 70.20 71.02 71.44 72.05 73.18 73.74 73.68 73.47 74.02 75.24 75.83 75.95 75.83 75.99 76.31 76.48 76.23 76.57 76.61 76.67 76.67 75.73 74.90 75.28 74.67 74.33
59.91 60.76 60.78 62.80 65.58 67.69 68.27 69.67 70.59 71.14 71.74 72.62 73.59 73.63 73.33 74.21 75.06 75.65 75.57 75.87 75.98 76.21 76.09 76.27 76.29 76.02 76.31 76.14 75.04 69.07 67.66 72.94 74.55
60.33 61.62 62.86 64.13 64.59 66.94 69.01 69.33 71.09 70.79 71.59 73.02 73.11 72.09 73.85 74.60 74.94 74.99 75.28 75.71 75.89 75.43 75.55 75.93 75.78 75.90 76.11 75.87 76.26 65.39 65.28 67.35 74.67
60.36 61.14 61.83 63.78 62.62 66.04 70.16 69.45 69.69 71.96 72.02 72.74 72.94 73.35 73.90 74.53 74.70 74.51 75.17 75.07 75.23 75.56 75.79 75.45 75.54 75.46 75.84 75.92 75.77 64.02 63.30 65.75 73.74
60.55 61.84 63.23 62.99 62.74 63.95 69.31 69.87 71.70 72.28 72.14 72.52 72.88 72.94 73.46 74.30 74.62 74.54 74.98 74.68 74.71 75.30 75.45 75.48 75.43 75.90 75.78 75.39 75.85 62.90 61.34 65.06 72.68
59.26 60.16 61.01 61.79 63.73 65.40 67.00 68.56 69.45 71.48 71.05 71.97 72.34 73.27 73.77 75.07 75.68 75.33 74.98 75.38 75.58 75.88 75.81 75.37 75.23 75.62 76.02 72.31 75.53 62.40 59.79 64.26 73.35
66.49 67.00 63.10 63.29 66.32 68.55 69.02 70.13 69.79 71.07 71.90 71.83 73.13 73.87 74.75 75.48 75.78 75.50 75.95 76.17 76.14 75.99 75.81 75.29 75.35 75.19 75.46 75.77 74.17 74.24 58.63 58.83 73.84
69.14 69.09 67.72 67.69 69.52 70.26 70.86 70.67 71.64 71.45 71.85 73.41 74.16 74.50 75.04 75.84 76.16 75.67 75.76 76.33 76.35 76.38 75.49 74.72 74.57 74.52 74.42 74.42 75.62 65.22 56.78 57.10 63.78
67.21 66.91 67.38 70.42 69.92 68.85 69.83 71.42 72.58 71.67 72.49 73.19 73.88 74.23 75.06 75.61 76.35 76.47 76.73 76.27 76.03 75.28 75.30 73.70 73.19 72.43 72.00 71.75 72.91 73.28 56.30 56.40 59.31
63.73 63.82 63.61 64.37 65.52 66.16 66.73 68.64 69.21 69.89 70.26 73.36 73.76 73.79 74.69 75.48 75.24 75.73 76.70 75.87 75.93 75.41 74.65 73.13 73.40 72.65 72.10 71.64 71.75 68.59 62.65 62.78 63.18
62.80 63.20 63.66 64.98 66.20 66.66 66.42 67.73 67.63 67.73 67.96 68.61 69.04 71.35 73.01 73.20 73.88 74.50 75.67 76.43 76.42 75.84 76.53 74.17 74.29 74.40 73.54 71.97 67.19 64.48 59.70 61.65 64.16
62.63 63.30 65.73 66.47 67.45 67.51 66.74 66.17 66.28 66.94 67.98 67.62 67.61 68.12 68.42 69.00 70.82 72.24 73.49 74.85 74.77 53.46 52.42 56.16 56.54 57.12 67.33 67.80 58.57 50.74 50.74 52.01 52.01
60.64 63.21 63.23 63.13 64.18 65.22 67.02 68.06 68.08 68.78 68.97 69.27 68.15 67.79 67.42 68.37 68.09 70.73 70.64 73.15 72.68 70.01 61.98 48.02 50.74 52.01 53.10 52.73 53.44 52.01 51.10 50.92 50.74

GFSFLT1_sfc_wetblb_024.txt.gz
Wetbulb
67.46 70.02 71.11 71.49 72.71 73.38 73.58 73.49 74.97 75.54 76.57 77.18 77.49 77.40 78.80 79.41 79.59 76.89 77.08 78.27 77.08 76.51 76.01 76.54 77.96 78.06 78.53 78.60 78.85 78.87 78.86 77.63 76.81
63.90 68.91 70.75 71.50 72.45 73.53 74.01 74.47 75.70 76.71 77.20 77.86 77.59 76.78 78.78 79.33 79.20 78.92 77.24 79.31 79.08 77.57 79.34 77.31 77.73 78.10 78.35 78.40 78.54 78.80 78.91 77.19 77.03
63.55 67.17 70.04 71.23 72.29 73.03 74.35 74.99 75.43 76.26 77.17 77.75 78.25 78.04 78.05 77.74 78.45 79.34 79.51 79.92 79.34 79.59 79.17 79.15 78.21 77.99 78.07 78.19 78.44 78.66 78.70 77.66 77.67
63.61 65.84 68.06 70.17 71.48 72.89 73.83 75.04 75.58 75.70 75.99 77.10 77.02 78.07 78.56 78.50 78.17 78.38 78.67 78.69 79.71 80.15 79.39 79.97 78.99 78.84 77.93 77.61 77.93 78.39 78.36 78.38 77.55
63.79 65.50 66.82 68.01 69.41 71.32 72.89 73.76 74.80 75.41 75.84 75.76 76.82 77.77 78.80 78.72 79.15 78.96 78.17 78.87 79.42 80.19 79.78 80.08 79.74 79.02 78.41 77.84 77.56 78.65 78.05 77.46 76.71
63.34 64.84 66.85 68.47 68.68 69.57 71.37 72.95 74.17 74.33 75.33 75.59 76.13 77.54 76.89 77.18 77.80 78.12 78.51 79.25 79.15 79.90 79.90 79.98 78.40 79.31 79.55 78.68 77.90 78.29 78.26 78.13 77.57
61.13 64.28 65.50 66.71 67.83 69.04 70.69 72.87 74.95 75.82 74.36 75.33 75.65 75.81 76.28 77.40 78.33 78.38 78.74 79.50 79.47 79.82 80.07 80.01 79.74 79.94 80.18 79.32 78.64 78.22 77.73 77.75 77.66
60.31 61.67 63.08 65.23 67.75 70.05 72.17 72.81 74.78 76.10 75.21 75.87 75.84 76.78 75.86 77.49 78.68 79.44 79.50 79.34 79.64 79.83 79.92 79.78 80.12 79.95 80.00 79.92 78.29 77.07 78.72 78.42 77.44
59.55 60.71 61.34 62.26 64.77 68.69 70.06 71.92 73.04 73.68 75.70 75.22 76.37 77.43 76.79 78.01 78.81 79.26 79.25 79.59 79.51 79.70 79.71 79.76 79.76 79.39 79.66 79.37 77.92 70.60 68.67 75.59 78.31
59.41 61.00 62.38 63.44 65.03 66.78 68.97 69.68 72.60 73.16 74.69 75.49 76.50 76.83 77.73 78.32 78.72 78.69 79.12 79.42 79.53 79.09 79.21 79.57 79.38 79.34 79.48 79.51 79.68 66.63 66.11 68.69 77.65
60.44 61.23 62.54 64.03 63.90 64.73 66.67 68.72 68.56 73.33 74.31 76.48 76.58 77.07 77.51 78.30 77.76 78.24 78.72 79.17 78.87 79.05 79.06 78.85 78.74 79.00 79.36 79.40 79.26 66.15 63.76 66.74 76.88
62.29 63.22 63.93 64.42 64.76 65.56 69.49 68.33 70.17 71.81 73.79 74.46 75.13 76.67 76.94 77.56 77.74 77.36 78.04 78.26 78.69 78.97 78.66 78.69 78.58 78.95 79.21 79.19 79.17 64.54 61.91 66.21 75.95
62.07 63.34 64.08 64.63 65.28 66.14 66.79 68.79 69.77 71.47 72.66 73.63 74.36 76.25 76.26 77.93 78.41 78.33 77.88 78.38 78.80 79.22 79.11 78.36 77.51 78.25 79.09 75.16 79.03 65.71 60.24 65.91 74.90
66.60 66.75 66.86 67.51 67.03 66.63 68.82 71.14 71.14 71.29 72.93 73.06 75.13 75.78 75.92 77.27 78.40 78.66 78.89 79.25 79.42 78.77 78.41 77.87 78.38 78.36 78.78 79.37 77.63 77.81 58.51 60.08 75.81
67.10 67.25 68.85 70.60 67.70 68.28 71.74 73.58 73.48 72.61 75.07 75.61 76.29 76.55 76.08 77.68 78.60 77.33 76.86 79.35 79.38 78.74 78.14 78.00 77.81 77.93 77.69 78.07 79.14 68.31 58.84 58.34 63.90
68.59 69.71 70.99 72.08 70.50 72.30 73.26 74.74 75.06 74.42 75.43 75.95 75.96 76.13 76.30 76.67 77.22 77.31 78.45 78.72 78.13 76.64 78.16 76.13 76.04 75.64 75.52 76.41 77.93 78.50 61.29 57.08 59.13
69.12 69.32 70.13 71.77 71.94 70.93 72.11 74.94 75.95 76.44 76.23 76.34 76.52 76.21 76.58 76.89 76.93 76.57 77.29 76.76 76.76 76.37 76.10 75.80 75.42 75.34 75.61 75.88 76.13 76.72 76.24 66.92 63.63
68.52 68.35 68.87 70.11 70.09 70.38 70.24 71.19 71.20 71.45 72.09 73.21 75.24 76.02 76.00 76.60 76.45 76.77 76.88 77.62 76.77 76.37 78.19 74.94 76.31 76.00 76.20 75.57 75.23 74.38 68.28 64.81 65.92
66.44 67.24 68.66 68.96 69.11 69.55 69.46 70.05 70.80 72.07 72.61 72.72 71.95 71.67 71.10 71.65 72.64 73.72 75.07 75.22 76.22 54.81 57.65 53.01 50.65 50.95 66.18 76.12 67.32 54.48 52.28 51.92 53.01
62.78 65.92 66.12 66.65 67.15 68.94 70.44 68.32 67.06 68.50 72.18 71.86 71.39 71.11 72.07 72.37 69.42 73.17 72.47 72.58 73.09 72.90 67.49 52.10 51.74 49.02 48.66 53.01 57.24 50.11 50.11 48.84 49.75

GFSFLT1_sfc_wetblb_027.txt.gz
Wetbulb
66.52 67.78 70.11 71.36 72.69 73.19 73.59 74.18 75.74 76.38 77.92 78.88 79.81 79.49 79.58 79.49 80.43 77.51 76.94 78.52 76.49 75.78 75.29 75.95 80.17 80.28 80.16 79.90 79.80 79.23 80.64 78.20 77.27
64.55 67.17 69.33 71.24 72.56 73.62 74.40 74.19 75.93 76.74 77.88 78.80 79.56 79.20 79.78 80.06 79.78 79.44 77.98 78.86 79.46 77.99 79.17 76.91 80.15 80.39 79.87 79.99 80.06 80.47 80.52 77.31 78.62
63.77 65.89 68.96 71.08 72.22 73.38 74.99 74.53 75.81 77.30 78.15 78.79 79.30 79.34 79.60 79.59 80.26 80.40 80.02 80.55 80.32 78.88 79.83 80.63 80.59 79.54 79.64 79.58 80.07 80.38 80.57 78.62 79.35
63.55 64.66 68.08 70.58 72.20 73.26 74.63 75.17 75.08 75.94 77.49 78.68 79.06 79.11 79.49 79.48 79.69 79.98 80.53 80.08 80.70 80.53 81.09 81.65 80.15 80.91 79.94 79.81 79.69 80.26 80.26 79.66 79.34
63.50 65.15 67.53 70.40 71.66 72.55 73.13 74.28 75.12 75.63 76.15 76.51 78.84 79.20 79.70 79.42 79.92 79.70 79.78 79.92 80.20 81.10 80.81 81.13 81.70 80.98 80.62 80.32 79.66 80.08 79.83 79.05 77.56
64.27 65.59 66.87 68.79 70.71 71.38 72.17 73.26 75.40 75.35 76.74 76.17 76.67 78.56 78.56 79.77 79.57 79.66 79.31 79.95 80.25 80.79 80.91 81.06 80.76 80.92 80.94 80.43 79.75 79.78 80.09 79.80 79.21
63.89 65.34 66.60 67.61 68.30 69.04 71.27 73.52 76.11 77.14 76.24 76.72 76.92 77.33 77.43 78.47 79.51 79.45 79.80 80.22 80.53 80.52 81.07 80.84 80.82 80.82 80.87 80.58 80.41 79.65 79.68 79.58 79.46
61.89 63.83 65.19 66.29 67.16 69.40 71.97 74.81 77.04 77.43 76.26 77.66 77.67 78.30 78.12 78.19 79.86 80.67 80.90 80.70 80.64 80.92 80.90 80.82 80.97 80.72 80.68 81.14 80.60 79.23 79.38 79.21 79.21
60.32 61.18 62.54 64.48 66.15 67.81 70.50 71.90 74.99 76.59 77.80 77.19 77.62 78.60 77.99 79.11 79.67 80.44 80.65 80.88 80.87 81.08 80.57 80.73 80.85 80.48 80.13 80.15 79.94 72.12 69.21 76.26 78.81
60.61 61.09 61.88 63.18 64.29 65.07 68.64 70.62 72.57 73.61 77.28 78.01 77.71 77.96 79.23 78.68 79.80 79.81 80.41 81.12 80.93 80.35 80.34 80.94 80.54 80.21 80.36 79.95 80.49 68.41 66.45 68.71 78.70
61.50 62.11 62.93 63.68 63.54 65.02 67.11 67.21 67.43 73.15 73.58 78.28 78.36 78.50 78.25 79.52 79.16 79.95 80.43 80.43 80.20 80.62 80.51 80.20 80.23 80.15 80.63 80.21 80.08 68.39 64.08 66.76 77.18
62.34 62.94 63.71 64.29 64.71 65.41 69.61 67.64 68.69 69.83 73.09 76.41 78.03 77.93 78.85 78.81 79.67 79.67 79.94 79.59 79.83 80.40 80.09 80.01 79.81 80.37 80.28 79.90 80.12 66.22 63.23 65.39 76.32
67.07 65.12 66.23 66.26 65.52 66.24 66.48 68.89 68.35 68.44 69.46 73.67 77.02 77.95 78.81 79.64 80.15 79.83 79.77 79.86 80.22 80.49 80.54 80.01 79.67 79.87 80.31 76.38 80.09 67.87 62.14 64.82 76.67
69.46 69.69 69.77 69.62 70.26 69.91 69.43 70.25 69.76 72.94 73.06 73.33 76.27 77.35 78.56 79.99 80.33 80.35 80.43 80.35 80.77 80.66 80.40 79.66 79.75 79.53 80.11 80.43 78.98 78.98 60.84 59.27 77.06
69.78 69.90 69.77 68.46 69.32 71.31 70.90 71.00 72.56 75.22 75.90 77.83 79.64 79.50 79.03 79.73 80.41 79.10 78.78 80.66 80.51 80.68 80.19 79.56 79.18 79.24 78.79 79.64 80.36 69.73 64.24 57.83 62.94
70.05 70.22 71.01 71.68 71.77 72.00 72.85 75.47 75.67 75.26 79.30 79.06 79.72 79.59 79.98 80.23 80.41 80.05 80.34 80.23 80.11 78.51 79.41 77.28 77.27 76.77 77.05 77.56 78.49 79.81 63.25 57.26 58.47
70.33 70.64 70.64 71.33 72.36 72.74 73.80 76.55 76.74 77.41 77.98 77.78 77.52 77.82 78.97 79.00 78.72 78.50 79.36 77.83 78.09 77.09 76.78 76.45 76.32 75.86 76.56 76.24 77.61 78.49 79.95 72.58 65.62
69.99 70.00 70.11 71.87 72.73 72.71 72.69 73.88 73.73 74.39 74.97 77.18 77.01 77.36 77.35 77.70 77.21 77.52 78.26 78.67 77.13 77.04 78.70 75.02 76.86 76.78 76.47 76.41 76.48 76.95 71.38 72.85 77.20
69.27 69.18 70.03 70.79 71.60 71.54 71.63 72.39 72.47 73.40 74.49 74.38 74.46 75.77 76.14 75.71 76.32 76.83 76.94 76.75 77.34 64.94 62.89 58.12 53.45 50.37 61.89 75.06 63.64 55.11 52.44 51.08 54.48
64.52 66.69 67.70 68.82 70.48 69.70 69.50 68.18 69.83 72.83 73.68 73.85 73.36 73.18 73.43 72.63 68.99 72.33 72.91 73.73 73.77 73.40 68.25 55.08 54.18 50.37 48.20 47.65 46.58 47.11 49.28 47.11 49.46

GFSFLT1_sfc_wetblb_030.txt.gz
Wetbulb
66.18 67.92 69.84 71.66 72.56 72.73 72.39 72.98 73.73 74.79 76.31 76.20 76.90 77.03 77.21 76.53 78.41 76.24 75.00 77.98 75.37 75.54 75.36 75.36 78.32 77.44 78.45 78.45 78.35 78.29 79.30 77.49 77.33
64.63 66.43 68.22 70.95 72.89 73.29 72.98 72.89 73.51 74.54 75.71 76.52 77.30 76.65 77.63 77.14 76.47 77.77 75.13 76.24 77.81 77.06 77.16 77.34 78.87 77.76 77.72 77.62 78.46 78.22 78.38 77.03 77.36
64.42 66.45 67.98 70.70 72.55 73.64 73.54 73.27 74.11 74.70 75.97 76.50 77.38 77.66 77.50 77.55 76.73 77.43 77.61 76.14 77.28 76.59 78.06 77.43 80.59 77.97 77.95 78.13 78.20 78.85 78.31 77.65 77.80
64.13 66.50 68.10 70.08 72.59 73.85 74.30 73.80 74.13 74.35 74.87 76.52 77.37 77.70 77.75 77.69 77.86 76.96 77.19 77.25 76.92 78.54 77.31 80.11 77.67 79.62 78.35 78.03 77.83 78.09 78.18 77.29 76.85
64.70 66.37 69.05 69.99 71.81 73.57 74.31 73.84 73.83 74.26 75.14 76.09 77.35 78.19 78.12 77.75 78.12 78.36 77.55 76.44 77.34 78.12 79.20 77.93 79.66 78.85 78.41 78.18 77.73 78.00 77.54 77.18 76.08
65.08 67.37 68.10 69.61 71.48 72.36 73.61 74.28 74.23 74.52 74.99 75.58 77.60 78.09 78.10 78.05 77.73 77.67 77.83 77.90 76.92 78.37 77.89 79.29 78.05 79.36 78.66 77.82 77.77 77.39 77.98 77.50 77.16
65.21 67.71 68.56 69.71 70.69 72.05 73.28 74.34 74.86 75.00 75.09 76.13 76.53 77.86 78.00 77.46 77.98 77.87 77.89 78.12 78.29 77.53 78.45 77.76 78.57 78.40 78.47 78.79 78.06 77.86 77.63 77.55 77.48
65.80 66.96 68.67 70.41 70.82 71.51 72.95 74.16 75.09 75.79 75.92 76.01 76.53 76.04 77.14 77.24 77.90 78.62 78.40 78.20 78.40 78.75 78.11 78.23 78.19 78.22 78.37 78.48 78.63 78.33 77.51 77.40 77.17
63.35 64.64 66.33 68.55 70.86 72.67 74.21 75.98 75.76 75.90 76.23 76.80 76.96 76.30 76.27 77.01 77.52 78.01 78.65 78.45 78.50 78.65 78.47 78.48 78.69 78.25 78.21 78.05 78.40 72.52 70.16 75.24 77.05
62.24 61.83 63.19 66.39 69.29 71.24 72.98 73.84 77.66 76.41 76.44 77.41 77.69 76.91 77.22 77.24 77.54 77.59 77.95 78.71 78.67 78.10 78.40 78.70 78.29 78.46 78.54 77.73 78.22 69.04 67.78 69.62 77.14
62.47 62.92 65.63 68.71 64.57 67.88 71.41 69.46 70.84 75.31 77.46 77.71 77.16 77.99 77.71 78.76 78.36 77.66 78.23 78.19 78.31 78.55 78.71 78.68 78.30 78.36 78.78 78.42 78.36 68.20 65.23 67.30 75.88
62.51 65.53 66.57 67.17 65.95 67.20 72.42 70.67 71.83 72.56 73.18 76.77 76.73 76.34 77.24 77.58 79.03 78.23 78.18 78.19 78.27 78.77 78.79 78.43 78.72 78.70 78.76 78.52 78.43 65.95 63.69 65.19 74.67
68.51 69.15 70.35 71.16 70.92 71.23 70.93 76.33 72.49 74.31 72.97 75.29 75.63 76.23 76.76 78.24 77.79 78.23 77.94 78.40 78.55 79.21 79.32 78.84 78.94 78.71 79.01 75.20 78.82 68.42 61.81 64.58 75.75
68.93 70.00 70.97 72.23 72.45 71.46 75.92 75.74 74.10 75.65 76.58 74.09 76.36 77.19 78.06 78.46 79.22 78.21 78.48 79.18 79.52 79.30 79.24 78.86 78.60 78.50 78.89 78.96 77.82 77.81 61.40 59.44 76.24
68.07 69.88 70.67 70.69 72.04 72.42 74.52 76.72 76.33 75.18 77.04 79.98 80.31 79.86 78.02 78.82 79.80 78.54 78.80 79.18 79.68 79.42 78.96 78.26 78.04 78.11 78.10 78.79 79.24 68.95 65.31 58.51 61.29
69.60 71.42 72.03 71.96 72.73 74.78 77.44 78.31 79.08 78.19 80.30 81.74 81.37 82.23 80.20 79.55 80.46 79.41 79.05 79.13 78.71 78.33 78.65 77.94 77.45 77.24 76.95 77.69 78.49 78.85 63.18 59.04 58.34
68.32 71.45 71.33 70.87 72.07 74.01 76.54 78.69 79.17 79.88 80.81 81.87 81.36 82.01 81.45 80.91 80.31 78.90 79.29 79.09 78.68 78.07 77.45 77.22 77.01 76.54 76.49 76.81 77.27 77.75 78.30 73.91 65.62
66.59 69.68 71.46 73.14 73.84 74.12 73.69 74.59 74.89 75.35 76.44 78.12 78.88 79.89 79.83 80.34 79.09 78.59 78.90 78.85 77.42 78.03 78.29 75.22 77.02 76.83 76.57 75.66 76.32 67.67 56.64 59.94 71.93
66.66 67.87 69.66 71.26 72.62 72.51 72.52 72.57 72.64 74.43 75.36 76.64 77.87 78.23 77.62 77.03 77.01 77.73 77.21 77.30 77.37 66.15 61.56 56.38 49.13 49.85 62.29 69.41 53.56 47.48 46.05 46.95 49.67
64.27 66.90 68.40 69.29 70.90 69.76 70.31 70.44 71.71 73.15 74.25 75.31 75.87 76.10 77.90 73.66 72.79 75.46 77.18 77.23 77.64 76.07 62.08 51.48 50.59 47.50 46.59 46.39 44.84 44.60 44.05 43.33 44.05

GFSFLT1_sfc_wetblb_033.txt.gz
Wetbulb
63.45 64.54 66.56 68.09 68.46 68.79 69.45 70.32 72.04 73.78 73.49 73.36 74.60 74.33 73.14 73.09 74.81 73.24 72.10 72.81 70.56 71.97 72.13 73.65 74.34 75.09 75.48 74.63 74.85 74.85 73.82 73.85 73.42
65.08 66.77 68.16 68.22 68.65 69.25 69.30 70.30 71.49 72.88 73.74 73.44 74.14 74.41 74.27 72.96 73.56 74.99 72.02 71.51 73.20 71.28 72.61 72.85 74.59 75.09 75.86 75.18 75.01 74.53 75.04 74.41 73.31
62.76 67.16 66.80 69.05 68.92 69.40 69.66 70.39 71.91 72.51 74.33 73.64 73.96 73.95 74.68 74.18 73.33 74.07 74.74 72.02 71.56 73.81 72.05 72.68 73.42 74.73 74.64 75.30 75.61 75.23 74.50 74.36 74.46
61.76 64.67 68.15 69.30 69.63 70.04 70.12 70.67 71.56 72.08 73.19 73.95 74.09 74.30 74.17 74.60 73.97 73.56 75.02 73.92 71.78 73.36 73.46 73.50 73.19 74.96 74.48 74.88 74.78 75.66 74.58 73.65 73.74
60.43 63.86 68.04 69.97 70.24 70.48 70.14 69.99 70.96 71.53 72.42 74.04 74.53 75.06 74.39 74.38 74.86 74.56 73.36 74.66 74.11 72.05 73.73 73.80 75.53 75.88 75.22 75.32 75.18 75.11 75.30 74.55 74.71
58.74 63.00 67.28 69.32 70.31 70.24 70.14 70.02 70.43 70.94 72.20 73.52 74.78 75.06 75.04 74.51 74.66 75.06 73.91 73.90 74.26 74.42 72.68 75.32 74.11 75.68 75.70 75.61 75.54 75.36 75.19 75.18 74.96
59.38 62.84 66.02 68.42 69.54 70.46 70.67 70.40 70.34 70.91 71.49 72.92 74.69 75.03 75.22 75.06 74.94 75.09 75.34 74.97 74.36 73.70 74.94 74.16 76.15 74.19 75.57 75.80 75.81 75.44 75.62 75.24 74.93
61.35 61.71 65.12 67.23 68.96 70.01 70.88 70.61 70.57 71.09 71.57 72.48 73.43 74.75 75.19 75.22 75.61 75.81 75.86 75.63 75.92 75.61 73.86 75.13 75.17 75.82 74.78 76.04 75.70 75.94 75.28 75.35 75.19
57.56 60.59 63.54 64.99 67.70 69.56 70.58 71.32 71.13 71.38 71.68 72.22 73.09 73.96 74.59 75.68 75.68 75.76 75.56 75.70 75.47 75.88 75.63 74.25 75.46 75.01 75.15 75.40 76.39 71.31 69.27 74.01 75.30
57.21 57.85 58.52 60.95 63.59 65.38 68.35 71.31 72.43 71.93 72.34 72.85 72.98 73.00 74.14 74.96 75.42 75.34 75.67 75.82 75.64 75.26 75.55 75.86 74.72 74.69 75.45 74.89 75.87 68.09 67.04 69.13 75.66
57.51 59.04 60.46 60.66 59.89 60.40 63.32 67.63 73.07 73.30 73.45 73.08 72.72 72.68 72.98 73.78 75.06 75.08 75.41 75.90 75.38 75.75 75.86 75.70 75.94 75.68 75.33 76.03 75.92 67.02 65.25 66.86 74.81
63.91 64.07 64.77 65.39 65.41 65.77 64.10 63.84 66.36 73.33 73.17 73.61 73.50 73.01 73.26 73.85 74.61 74.72 74.98 75.02 75.75 76.00 76.01 75.94 76.13 76.48 76.18 75.94 76.23 64.53 63.80 64.94 73.06
65.82 66.23 66.17 66.07 66.81 66.05 67.66 67.32 66.81 67.68 71.44 73.05 72.38 73.11 74.47 75.67 75.23 75.33 74.83 75.27 75.60 76.30 76.49 76.26 76.81 76.27 76.88 73.29 76.55 66.36 61.59 64.37 74.38
66.45 66.82 67.17 66.20 66.36 64.86 65.83 67.33 66.21 65.38 67.48 69.85 73.43 73.17 73.05 74.22 75.27 75.67 76.14 75.68 76.14 76.45 76.48 76.54 76.40 76.46 76.80 77.08 75.81 75.52 60.84 59.73 74.19
65.53 68.25 67.98 68.44 67.18 67.49 65.43 67.23 66.05 65.71 68.61 70.66 72.07 73.09 72.97 73.76 74.36 75.27 76.03 75.61 76.19 76.55 76.54 76.20 76.06 75.93 76.28 76.90 77.32 66.67 61.97 58.98 61.11
63.16 67.21 69.03 70.38 69.29 68.96 73.69 73.89 72.67 70.35 71.96 73.81 73.27 74.63 72.97 73.86 74.66 75.63 74.56 75.38 76.09 76.31 76.36 76.28 75.76 75.74 75.42 75.55 76.57 76.63 61.78 59.07 59.04
62.93 64.30 66.03 68.30 69.80 70.55 71.14 71.75 72.04 71.51 72.34 73.15 74.40 72.97 75.36 74.87 75.79 75.24 75.11 76.51 76.46 76.28 75.74 75.61 75.26 74.75 74.67 74.95 74.90 75.21 71.87 69.31 64.56
61.90 62.15 63.85 65.97 66.70 69.04 69.86 70.92 70.51 71.66 71.93 72.37 72.11 73.61 75.29 75.42 75.60 75.25 75.60 74.85 74.69 75.43 73.05 72.84 75.17 75.05 74.41 73.18 68.11 61.27 53.38 55.57 66.07
61.84 62.18 63.11 63.85 65.84 68.04 68.66 68.54 68.56 69.19 71.12 71.14 71.49 73.49 73.84 73.65 73.61 75.01 74.84 74.86 68.40 53.43 54.18 52.33 50.08 52.33 58.79 56.43 53.38 48.32 45.47 44.38 45.47
60.90 62.73 63.49 64.23 65.87 67.03 67.38 67.51 68.02 68.97 70.07 70.45 69.96 70.27 71.45 70.95 69.64 72.89 72.98 73.84 71.22 60.62 56.27 48.53 47.00 48.30 50.87 50.47 47.41 44.38 43.11 42.75 45.47

GFSFLT1_sfc_wetblb_036.txt.gz
Wetbulb
65.05 65.65 65.42 66.85 67.59 68.15 68.19 69.61 70.00 69.99 70.37 71.00 72.08 72.30 71.95 72.43 72.28 71.94 71.40 69.58 69.12 69.71 71.85 71.62 72.37 74.11 74.10 73.72 73.55 72.99 72.11 71.69 71.83
64.65 65.30 65.51 66.53 67.68 68.37 68.46 69.52 70.18 70.25 70.20 70.61 72.39 72.28 72.55 72.76 72.87 72.50 71.81 70.76 70.83 69.48 71.36 73.16 72.81 73.55 74.33 73.86 74.10 72.96 72.84 71.85 71.69
64.51 65.77 65.78 65.90 67.43 68.33 69.05 69.97 70.78 71.48 71.42 70.88 72.50 72.73 72.58 72.39 72.41 74.06 72.87 71.21 70.24 71.69 70.69 71.85 73.37 73.14 74.43 74.08 73.68 73.52 73.20 72.84 72.04
64.41 65.19 65.75 64.96 67.53 68.72 69.15 69.70 70.80 71.97 72.10 71.64 72.49 73.33 73.28 72.66 71.94 72.07 74.17 72.09 70.25 70.54 71.73 71.14 71.63 73.21 73.39 74.21 73.95 73.61 73.02 72.91 73.58
64.26 65.17 65.89 66.40 67.97 68.45 68.58 68.98 70.04 71.41 72.64 72.34 72.68 73.62 73.66 73.45 73.09 72.07 72.08 73.80 72.07 71.06 71.10 72.44 71.28 73.29 73.24 73.74 74.26 74.23 73.43 72.49 73.28
62.89 64.33 65.90 67.64 67.88 67.78 68.26 68.62 69.60 70.84 72.57 72.85 73.05 73.38 73.00 73.03 73.10 72.72 71.79 72.17 74.25 72.81 70.85 71.67 72.73 73.93 73.45 73.39 73.78 73.88 74.55 73.63 73.16
58.53 64.74 66.75 67.14 67.45 67.78 68.47 68.73 69.23 70.31 71.11 73.42 73.41 73.28 72.92 72.40 72.93 73.26 73.10 72.51 72.40 74.10 73.36 70.36 72.20 73.43 74.56 74.03 74.18 73.95 73.95 74.36 74.12
59.54 64.84 66.27 67.08 67.46 67.93 68.53 68.54 68.92 70.21 71.17 72.38 73.53 73.29 73.18 72.96 73.08 73.92 74.10 73.66 72.85 72.68 73.13 73.70 71.69 72.70 73.13 75.00 74.83 74.88 74.28 74.15 73.96
59.99 64.40 66.76 67.78 68.35 68.62 68.73 68.70 68.91 69.93 70.37 71.69 73.15 73.09 73.07 73.71 73.85 73.70 73.80 74.26 74.16 73.29 72.84 72.34 73.53 73.16 74.06 73.16 75.07 70.26 68.95 73.11 74.27
57.47 62.73 66.80 67.99 68.49 68.96 69.42 69.45 69.67 69.32 70.21 71.34 72.43 72.88 73.20 73.79 73.91 74.08 74.16 74.32 74.33 74.28 74.03 73.73 71.98 72.59 73.73 73.66 74.28 67.08 66.87 68.84 74.44
60.56 61.49 60.99 60.17 64.57 67.35 68.92 69.95 70.18 70.18 70.50 70.55 70.76 71.39 72.94 73.66 74.19 74.09 74.52 74.60 74.18 74.48 74.62 74.73 74.30 72.93 72.95 74.01 74.28 65.74 64.49 66.80 73.80
62.22 62.16 62.47 62.96 64.41 62.72 62.94 70.37 71.18 70.74 70.17 70.44 70.52 70.60 70.99 73.23 74.11 74.29 74.36 74.08 74.28 74.55 74.69 74.36 74.66 75.14 74.30 73.37 73.87 63.76 63.14 64.95 72.13
66.35 64.53 63.33 62.89 62.59 64.06 64.75 63.48 67.29 70.89 70.58 70.67 70.25 70.68 71.40 72.13 73.42 74.16 74.10 74.37 74.41 75.12 74.99 74.86 75.10 74.69 75.46 72.08 74.78 63.85 61.68 64.43 73.89
66.78 67.47 66.69 66.44 67.69 65.45 63.17 63.59 64.96 66.54 68.55 70.93 72.14 72.36 72.11 72.36 72.63 73.42 74.50 74.66 74.95 74.95 75.10 75.02 74.88 74.98 75.22 75.55 74.05 73.76 60.49 59.98 73.94
62.87 64.78 67.31 69.74 71.06 70.83 71.46 69.48 67.45 68.74 69.03 70.23 70.16 71.15 71.63 72.82 73.89 73.62 74.06 73.86 74.25 74.68 74.61 74.64 74.60 74.53 74.86 75.65 75.98 65.91 60.69 59.24 61.37
60.44 62.30 64.05 66.49 68.77 69.43 70.34 70.49 70.39 69.29 69.90 71.65 71.78 70.98 70.46 71.31 72.44 73.83 74.17 74.18 73.69 73.71 74.48 74.24 74.16 74.32 74.40 74.91 75.47 76.24 61.42 59.24 59.38
60.05 60.89 62.19 64.36 65.61 68.24 68.09 69.14 69.74 69.67 70.02 70.81 71.06 71.03 71.77 71.19 71.80 72.31 73.07 74.53 75.10 74.81 74.69 74.60 74.59 74.70 74.81 75.31 75.38 75.51 69.83 67.86 65.25
59.98 60.89 61.92 62.85 63.88 65.77 66.89 67.17 67.33 67.78 69.31 69.65 69.73 70.13 72.77 72.86 72.55 72.02 73.02 65.62 65.05 73.69 74.85 73.10 75.19 75.41 75.41 74.30 72.29 64.42 56.13 58.57 66.74
59.41 60.63 61.87 62.90 63.79 65.61 66.20 66.72 66.78 67.36 68.49 69.04 68.55 68.89 71.71 72.48 72.87 73.48 73.39 66.27 59.70 51.04 48.52 49.18 49.91 52.03 58.32 55.62 51.91 49.07 47.82 46.37 45.47
58.39 59.96 60.19 60.85 62.32 64.45 65.17 65.02 65.76 66.76 68.05 67.88 67.14 67.28 65.64 70.60 70.16 73.09 72.56 64.94 61.82 58.98 57.23 49.67 46.27 46.72 48.29 50.18 49.09 46.19 44.20 46.92 46.92

GFSFLT1_sfc_wetblb_039.txt.gz
Wetbulb
63.63 62.38 64.93 66.43 66.58 66.95 67.78 68.19 68.47 68.45 68.85 68.58 69.08 69.51 69.80 69.93 69.55 69.41 69.44 69.23 68.83 68.69 69.57 70.76 71.76 72.75 72.77 72.23 72.15 72.32 71.32 70.25 70.17
62.24 62.32 63.86 66.09 67.31 67.38 67.38 67.92 68.39 68.70 68.87 69.44 69.48 69.71 70.49 70.48 70.26 70.17 69.91 69.37 69.40 69.35 69.72 71.07 70.88 72.56 73.10 72.91 72.75 72.25 71.66 70.41 70.49
62.26 63.05 63.82 65.89 67.30 67.50 68.05 68.30 69.02 69.26 69.29 69.65 70.12 70.43 70.73 71.00 71.04 71.06 71.00 70.18 69.20 68.64 69.56 71.19 71.27 71.42 72.38 72.74 72.96 72.41 71.86 71.05 70.55
61.51 62.71 64.27 65.69 66.63 67.90 68.40 68.51 69.37 69.12 69.22 69.37 70.18 70.88 71.16 71.24 71.44 71.63 71.55 71.02 70.21 70.82 69.25 70.51 71.54 71.57 71.93 72.59 72.64 72.56 72.06 71.90 71.47
62.13 64.14 65.18 66.20 66.54 66.96 67.88 68.02 68.89 69.33 69.42 69.42 70.05 71.34 71.20 71.32 71.73 72.18 72.18 71.71 70.53 70.21 70.61 70.42 70.80 71.99 71.99 72.46 72.76 72.65 72.16 71.81 72.82
60.51 63.87 65.31 66.24 66.39 66.20 67.43 68.06 68.39 69.54 69.85 69.96 70.20 71.35 71.42 71.26 71.06 70.86 71.36 73.03 72.77 70.12 69.22 70.49 70.56 71.17 71.59 72.02 72.85 72.98 72.83 72.56 72.02
59.14 62.98 64.92 65.85 65.78 65.60 67.41 68.13 68.09 69.15 70.46 71.21 70.87 71.44 71.55 71.40 71.57 71.53 71.08 71.32 72.60 72.70 70.68 70.05 71.08 71.63 72.05 72.30 72.53 73.10 73.24 73.09 72.63
52.98 60.82 64.26 65.18 65.35 65.43 66.94 67.48 68.09 69.26 70.64 71.71 71.71 71.38 71.70 71.78 72.30 72.67 72.15 71.44 71.27 72.48 72.74 71.46 71.14 71.51 72.39 72.93 72.79 73.19 72.93 73.12 73.03
56.09 61.17 63.34 64.46 65.82 66.35 66.81 67.43 67.69 68.61 70.13 71.77 72.30 71.67 71.41 72.12 71.95 72.43 72.25 72.05 71.57 71.06 71.90 72.92 72.19 70.73 71.32 72.35 73.77 69.40 68.35 71.99 72.79
55.35 60.49 63.02 64.03 65.80 66.74 67.29 67.82 68.20 68.15 69.58 71.32 72.12 71.67 71.88 71.99 71.96 71.60 72.24 72.61 72.41 71.75 71.02 71.46 71.76 72.31 71.59 71.39 71.98 66.35 66.38 68.30 73.66
58.75 60.47 63.44 65.37 66.93 67.60 67.98 68.83 68.72 68.70 69.94 70.02 71.19 71.64 71.82 72.34 72.40 72.07 72.07 72.41 72.67 72.78 72.55 71.67 71.39 71.18 71.70 72.32 72.75 65.74 64.11 66.54 72.98
62.15 59.62 60.42 63.55 67.39 67.78 68.13 68.62 68.96 68.54 69.06 69.42 70.13 70.98 71.71 72.31 72.74 72.72 72.88 72.54 72.48 73.13 73.27 73.37 73.14 72.81 71.75 71.21 72.08 63.43 62.67 64.77 71.79
65.77 67.54 64.96 61.77 63.48 65.46 67.16 67.56 68.73 68.17 68.12 68.53 68.54 70.23 71.59 72.68 73.12 73.06 72.92 73.51 73.51 73.72 73.89 73.67 74.06 74.03 74.25 70.49 72.38 63.50 60.99 63.33 72.08
63.39 66.52 69.46 69.62 65.95 62.92 61.63 64.80 69.28 68.44 68.48 68.29 69.59 69.83 70.06 71.15 73.07 73.32 73.91 73.91 74.10 73.97 73.74 73.82 73.56 73.48 73.94 74.29 72.82 72.66 59.89 59.59 72.22
61.11 62.95 65.63 68.86 68.84 68.96 69.54 68.96 68.04 67.20 69.14 70.62 69.13 69.23 69.34 69.99 70.77 73.17 73.56 73.61 73.93 73.79 73.71 73.42 73.25 73.02 73.37 74.16 74.64 65.96 60.43 59.19 60.53
60.23 62.20 63.76 66.29 67.93 67.93 68.58 69.21 68.95 68.48 68.15 70.71 69.76 69.49 69.84 69.98 70.57 71.02 72.05 72.73 72.77 73.07 73.29 73.17 72.96 73.05 72.86 73.49 74.13 74.68 61.19 58.29 58.71
59.41 61.41 62.78 64.54 66.22 66.29 65.84 66.42 67.25 67.81 68.44 69.40 69.71 69.69 70.00 69.57 70.66 71.07 71.73 72.54 72.65 72.67 72.67 72.64 72.66 72.84 72.87 73.53 74.01 75.06 75.50 69.94 64.44
57.89 58.58 60.81 62.39 63.60 65.15 65.06 65.48 65.93 66.96 68.11 68.70 68.51 68.78 69.97 71.09 70.25 68.83 68.74 58.71 60.64 70.08 71.87 69.95 73.30 73.68 74.18 73.73 74.41 72.85 61.37 63.19 70.01
56.41 56.76 57.55 60.14 61.21 62.59 64.46 64.58 65.10 66.02 67.08 67.36 66.87 66.90 66.94 68.20 71.16 70.48 66.08 59.52 57.70 48.84 46.87 46.49 49.23 53.76 61.72 55.62 51.71 46.51 46.51 47.05 47.78
53.83 54.00 56.25 59.08 61.02 61.79 63.66 63.58 63.77 65.97 66.05 65.74 64.74 65.23 65.36 64.67 68.35 71.95 65.64 61.22 61.30 59.20 55.78 48.68 45.06 45.33 45.77 46.78 46.33 44.68 44.33 44.52 45.24

GFSFLT1_sfc_wetblb_042.txt.gz
Wetbulb
64.92 65.19 66.03 66.30 66.89 66.88 67.21 67.78 67.86 67.93 67.79 67.68 67.87 68.28 69.06 69.32 69.40 68.77 69.31 69.27 69.15 69.10 70.03 71.34 72.81 73.00 73.47 73.34 73.30 73.32 73.27 71.91 71.70
63.51 64.94 65.65 66.13 67.34 67.70 67.73 68.12 68.21 68.01 67.85 67.98 68.23 68.23 68.87 69.17 69.35 69.23 69.25 69.67 70.14 69.58 70.49 71.64 72.35 73.02 73.51 73.68 73.51 73.72 73.53 72.57 72.38
62.52 64.45 64.43 65.27 66.69 67.22 68.15 68.59 69.08 68.69 68.70 68.18 68.52 68.97 69.24 69.51 69.53 69.62 69.91 70.10 69.72 69.73 70.39 71.76 72.20 72.49 73.19 73.78 73.84 73.80 73.44 72.84 72.73
61.78 63.18 63.30 63.65 65.59 67.76 67.80 68.66 68.97 68.56 68.58 68.55 68.89 69.26 69.47 69.86 69.94 70.28 70.51 70.38 70.35 69.93 70.37 71.37 71.72 71.98 72.39 73.18 73.54 73.91 73.44 73.44 73.16
61.87 63.32 63.91 63.81 64.84 67.02 67.51 67.31 68.16 68.31 68.64 68.69 69.58 69.69 69.89 69.98 70.65 70.83 70.65 70.69 70.74 71.05 70.18 71.33 71.93 72.31 72.20 72.65 73.18 73.44 73.53 73.09 73.61
59.22 62.49 63.61 64.02 64.69 65.79 67.10 67.25 67.67 68.14 68.77 68.91 69.91 70.13 69.99 70.12 70.38 70.92 70.84 71.19 71.36 71.12 71.52 71.01 71.55 72.16 72.33 72.35 72.98 73.34 73.54 73.51 73.34
54.19 60.17 61.92 63.21 64.39 65.60 67.15 67.61 67.31 68.37 68.50 69.49 69.83 70.40 70.37 70.13 70.52 71.05 71.66 71.96 72.19 70.58 71.25 71.64 71.55 71.84 72.18 72.70 73.20 73.71 73.76 73.61 73.51
52.16 55.62 61.09 63.24 64.38 65.40 66.35 67.09 67.42 68.74 69.13 69.42 69.75 69.75 70.41 70.29 71.14 71.64 71.78 72.21 72.99 72.30 71.11 71.31 71.57 71.83 72.17 72.72 73.02 73.13 73.76 73.94 73.61
54.20 54.06 56.39 62.79 65.16 65.79 65.73 66.91 67.41 68.32 69.15 69.52 69.99 69.49 70.04 71.08 71.39 71.46 71.25 71.17 71.37 72.74 72.60 72.15 71.76 71.59 71.84 71.98 72.47 68.26 67.60 72.12 73.76
61.50 57.17 54.50 58.16 64.71 65.87 65.98 67.18 68.05 67.91 69.39 70.62 70.33 70.07 70.66 71.37 71.73 71.71 71.77 71.91 71.39 71.10 71.85 72.84 72.31 71.79 72.01 72.00 72.86 66.07 65.65 67.68 73.73
61.94 62.47 59.70 60.88 65.25 66.17 66.29 68.00 68.44 68.59 69.94 70.93 70.70 70.46 70.83 71.73 72.03 71.76 72.21 72.31 71.97 71.57 71.59 71.50 72.39 72.72 72.55 71.75 72.23 64.90 63.84 66.12 72.71
62.83 66.12 60.78 62.58 65.30 66.38 66.73 67.59 68.19 68.45 69.61 71.01 71.19 71.00 71.29 71.71 72.05 71.65 71.80 71.87 72.19 72.56 72.30 71.74 71.46 71.90 72.28 72.52 72.74 62.43 62.24 64.44 72.08
63.38 66.81 66.74 63.53 65.13 65.88 66.08 67.25 68.08 68.37 68.80 69.73 70.58 71.19 71.74 72.45 72.67 72.34 71.92 72.14 72.35 73.09 73.49 73.16 73.26 72.58 72.86 69.43 72.40 63.40 60.92 63.09 71.91
64.28 66.54 68.16 66.16 65.68 66.01 66.21 67.62 67.93 67.71 68.42 68.45 70.25 71.77 72.39 72.77 73.12 72.91 73.26 73.22 73.48 73.15 73.42 73.65 73.70 73.80 74.37 74.34 72.21 72.02 59.73 58.91 71.83
61.97 64.05 66.45 68.18 68.00 67.82 67.58 67.61 67.97 67.41 67.53 69.23 69.55 70.53 71.59 72.32 72.87 73.41 73.63 73.56 73.88 73.99 73.76 73.27 73.39 73.59 73.77 74.56 75.30 65.24 61.64 58.23 59.62
59.27 61.07 63.03 66.39 66.31 66.99 68.23 69.26 70.10 69.51 70.19 72.35 70.00 69.06 69.42 70.14 72.21 72.99 73.77 73.65 73.55 73.46 73.94 73.34 73.19 73.15 73.15 73.63 75.03 75.12 60.50 58.14 57.73
56.38 58.14 60.68 62.86 65.40 65.40 65.56 67.19 68.44 69.05 70.15 71.49 70.65 70.25 69.99 69.94 70.04 70.69 72.92 73.62 73.96 73.69 73.31 73.12 73.38 73.52 73.38 74.09 74.58 75.18 75.81 69.65 65.36
53.81 55.83 58.33 62.00 62.63 64.17 64.38 65.92 66.90 68.04 68.97 69.86 69.96 71.17 72.78 71.29 71.28 70.88 69.35 60.76 62.43 71.39 72.23 70.22 73.58 73.80 74.44 73.99 73.99 74.34 68.50 69.51 73.04
52.25 53.23 56.49 60.45 63.23 63.40 64.38 65.02 66.56 67.44 67.82 67.87 68.38 69.00 69.27 71.53 71.29 70.32 64.97 62.53 59.17 47.97 46.36 46.34 51.07 57.05 66.15 60.54 51.52 47.06 47.44 48.17 48.71
52.39 54.65 55.48 57.00 61.23 63.54 64.54 64.59 64.66 66.05 65.74 66.12 66.68 67.17 67.49 67.10 69.35 68.23 64.51 63.68 62.49 59.37 53.64 46.77 44.42 43.35 45.62 49.16 46.99 44.16 43.27 43.82 45.27

GFSFLT1_sfc_wetblb_045.txt.gz
Wetbulb
67.83 68.11 68.60 68.84 69.12 69.92 70.61 71.25 72.24 71.71 72.11 72.27 73.02 73.26 74.04 74.88 75.30 73.23 73.26 74.47 73.49 73.11 72.93 74.06 76.61 76.83 77.03 77.19 77.47 77.47 77.47 76.39 76.15
66.83 67.80 68.51 68.86 69.53 70.19 70.91 71.19 71.84 72.24 72.40 72.54 72.83 72.68 73.85 74.41 74.75 74.70 73.91 75.52 75.11 73.81 75.44 74.13 76.01 76.68 76.75 76.95 77.14 77.41 77.66 76.20 76.65
66.28 68.09 68.78 69.40 69.85 70.41 71.44 71.60 72.09 72.72 72.82 72.52 73.14 73.15 73.65 73.81 74.25 74.88 75.01 75.29 74.95 75.36 74.67 75.03 75.40 76.47 76.75 76.97 77.14 77.30 77.40 76.58 77.19
65.00 67.43 68.60 69.41 70.64 71.46 71.70 71.73 72.06 72.28 72.30 72.74 72.77 73.07 73.48 73.78 73.76 74.06 74.71 74.19 74.55 75.54 75.17 75.44 75.75 76.44 76.61 76.55 76.72 77.16 77.24 76.97 76.89
62.96 66.72 68.50 69.71 70.36 70.76 71.30 71.87 72.24 72.04 72.46 72.16 72.69 73.30 73.42 73.37 73.89 74.25 73.37 74.26 74.42 75.51 75.46 75.67 76.00 76.22 76.21 76.52 76.56 76.80 76.68 76.06 76.15
63.62 65.94 67.83 69.01 69.54 70.15 71.51 71.88 72.24 72.36 72.46 72.04 72.49 73.36 72.60 73.09 73.34 73.40 74.13 74.64 74.91 75.53 75.61 75.68 75.32 75.61 75.85 76.04 76.33 76.38 76.67 76.59 76.60
58.80 63.79 66.73 68.04 68.15 69.53 71.01 71.81 72.28 72.59 72.48 72.66 72.95 72.65 72.73 73.18 73.73 74.06 74.28 75.24 75.60 74.93 75.98 75.83 75.57 75.77 75.91 76.00 76.30 76.47 76.41 76.55 76.59
58.21 58.97 63.39 67.36 67.99 68.99 70.32 71.41 71.91 72.54 72.90 73.34 73.30 73.39 73.12 73.42 74.33 75.14 75.49 75.70 75.83 75.43 75.69 75.98 76.18 75.82 75.77 75.83 75.79 75.57 76.19 76.64 76.63
62.70 63.62 62.49 64.69 68.11 69.43 69.87 71.13 71.26 71.78 72.37 72.90 73.79 73.48 73.39 74.42 74.74 74.96 75.08 75.70 75.79 75.69 75.57 75.91 76.01 75.51 75.60 75.44 74.95 68.97 67.90 73.84 76.18
63.43 64.69 66.53 66.57 64.54 69.47 70.38 71.23 72.19 71.63 72.28 73.47 73.14 73.23 74.17 74.68 74.92 74.79 75.15 75.79 76.10 76.19 75.69 75.61 75.75 75.11 75.39 75.87 76.51 66.27 65.49 67.84 75.45
62.46 64.65 66.14 67.72 67.42 66.46 71.09 71.25 71.69 72.68 72.87 72.99 73.06 73.28 73.89 74.73 74.87 74.71 75.42 75.56 75.43 75.96 76.12 76.18 75.70 75.51 76.04 75.80 76.43 65.36 63.70 65.58 74.41
62.15 64.25 65.58 68.93 69.72 64.69 71.17 71.61 72.75 72.87 72.96 73.12 73.12 73.08 73.57 74.59 75.05 75.00 75.29 74.95 75.21 75.39 75.05 74.96 75.40 75.77 75.91 75.97 76.31 63.46 62.67 65.83 74.35
63.70 66.34 69.79 68.92 67.90 66.70 70.98 72.05 72.29 72.49 72.48 73.04 72.82 73.76 74.25 75.34 75.81 75.50 75.57 75.96 76.08 76.45 75.86 74.95 74.97 74.98 75.94 72.34 76.50 65.17 60.51 64.40 73.86
62.70 64.94 68.56 69.61 69.92 70.75 71.56 72.66 72.58 72.19 73.12 73.10 74.10 74.58 75.02 76.00 76.33 76.26 76.59 76.77 76.98 76.15 75.67 76.14 75.81 75.17 75.89 75.96 74.64 75.04 60.34 58.68 73.62
59.35 63.37 66.43 70.29 69.92 70.62 72.02 72.71 72.72 72.46 72.90 75.28 76.17 76.41 75.96 76.32 76.49 75.53 75.58 76.56 76.27 76.26 76.25 75.66 75.61 75.64 75.55 76.11 76.76 66.29 62.35 58.43 59.93
55.39 60.47 65.82 68.17 70.29 70.85 71.86 72.13 73.28 72.41 73.05 75.23 75.64 76.17 76.21 76.08 76.54 76.17 77.13 76.25 75.98 74.92 75.72 74.94 75.00 74.83 74.92 75.54 77.05 77.50 61.11 57.89 57.36
53.09 56.06 62.88 67.16 68.58 69.14 70.09 72.31 73.47 73.47 74.81 74.18 74.60 75.18 75.69 76.11 75.92 75.52 76.45 75.75 75.75 75.49 75.25 74.83 75.07 75.10 75.03 75.84 76.56 77.30 77.84 73.79 68.38
54.37 54.66 56.25 64.14 66.40 67.72 68.39 70.82 70.95 71.63 73.03 75.12 73.78 73.67 74.05 74.33 74.58 74.56 75.44 76.50 72.84 75.75 76.97 73.26 75.65 75.94 76.22 75.79 75.89 76.46 70.96 71.79 76.67
55.57 55.52 56.00 58.37 62.99 66.78 67.55 68.41 68.73 69.39 69.79 71.54 74.00 75.24 74.23 73.07 73.25 73.10 74.39 69.90 64.59 47.83 48.16 46.79 51.00 55.89 69.63 70.29 55.44 51.54 51.18 51.00 54.44
55.51 57.26 57.01 56.89 57.96 60.84 66.28 67.01 66.38 67.32 69.29 69.87 70.71 70.71 69.71 72.79 69.92 72.21 71.73 70.69 69.84 65.32 54.66 46.41 43.86 44.11 48.82 52.99 51.77 45.16 44.82 45.02 46.10

GFSFLT1_sfc_wetblb_048.txt.gz
Wetbulb
69.37 70.03 71.04 71.23 71.49 71.25 71.99 72.55 72.81 72.95 74.24 75.14 75.86 75.56 76.84 77.51 77.32 74.70 74.73 75.98 75.20 74.46 73.98 74.55 76.83 78.24 78.37 78.83 78.93 78.70 78.77 78.34 77.12
67.04 69.40 70.69 71.34 72.34 72.32 72.20 72.71 73.83 74.55 75.26 75.38 75.17 74.73 76.80 77.31 77.28 76.92 75.90 78.32 76.68 75.43 77.39 75.33 76.27 76.84 77.76 77.89 78.40 78.75 78.95 76.93 77.78
66.22 69.29 70.60 71.61 72.13 72.67 72.73 73.24 73.61 73.97 74.31 74.81 75.10 74.97 75.34 75.65 75.91 77.23 77.23 77.06 77.51 77.44 76.58 77.15 76.44 76.61 76.79 77.25 78.04 78.34 78.87 77.57 78.15
64.57 68.30 70.20 71.40 72.25 73.11 73.43 73.60 73.54 73.80 74.10 74.38 74.66 75.32 76.14 76.14 75.54 75.89 76.46 75.98 76.51 76.95 77.22 77.41 77.43 76.81 76.55 77.16 77.88 78.34 78.25 78.22 77.60
64.94 67.53 69.91 71.32 72.04 72.83 73.30 73.34 73.50 73.62 73.94 74.08 74.73 76.49 77.16 75.87 76.46 76.55 75.59 76.09 76.48 77.40 77.06 77.42 77.60 77.43 77.04 76.97 77.09 78.27 78.16 77.65 77.05
64.49 66.13 68.34 70.60 71.42 72.15 72.61 73.23 73.73 73.53 73.93 73.95 74.67 75.35 74.89 74.85 75.22 75.35 76.08 76.52 76.75 77.36 77.21 77.36 77.41 77.28 77.25 77.03 76.84 77.79 78.30 78.14 77.76
62.46 64.13 66.87 68.68 70.47 71.50 72.89 73.89 75.63 75.62 74.28 74.58 74.47 74.78 74.61 75.59 75.51 75.85 75.49 77.59 77.83 76.85 77.77 77.16 77.37 77.75 77.29 77.36 76.93 76.95 77.67 77.76 77.76
60.97 62.02 64.66 68.19 69.32 71.24 73.89 74.75 76.21 75.94 74.82 75.82 75.51 76.36 74.57 75.84 77.22 77.54 77.72 78.07 78.05 77.53 78.13 77.55 77.88 77.62 77.36 77.66 76.78 76.13 77.03 77.06 76.93
61.70 64.07 64.09 64.38 68.24 70.38 71.72 73.15 75.35 76.29 76.55 75.92 76.27 77.25 76.19 77.31 78.02 78.21 78.08 78.52 78.79 78.49 78.30 77.93 77.80 77.54 77.53 77.08 76.53 69.23 67.60 73.28 76.22
64.25 65.92 67.05 68.48 68.27 68.83 70.97 72.37 74.51 75.13 76.56 76.70 76.44 77.25 77.25 77.72 78.12 78.04 78.35 78.64 78.94 78.46 78.40 78.13 77.76 77.53 77.80 78.29 78.35 66.77 65.41 67.77 75.92
65.74 66.73 67.82 69.15 70.06 71.06 69.99 71.97 72.97 74.73 75.30 77.11 76.90 77.03 77.24 78.01 78.22 77.90 78.52 78.63 78.65 79.09 78.26 78.46 77.98 77.58 78.73 79.00 78.60 66.25 63.90 65.90 76.17
65.73 67.45 68.66 70.07 71.20 71.70 73.19 71.15 72.84 74.43 74.12 75.28 76.21 76.58 77.23 77.98 78.21 77.84 77.79 77.93 78.14 78.24 77.86 77.95 77.85 77.80 78.74 78.85 79.10 63.99 63.06 66.51 75.92
64.97 67.12 68.88 69.99 72.35 73.66 73.20 73.53 72.07 73.11 73.54 74.16 75.49 76.41 77.22 78.47 78.64 78.32 78.13 78.29 78.55 78.91 78.14 77.55 77.44 77.49 78.56 74.18 78.54 65.34 61.02 66.57 75.82
62.41 64.54 67.50 71.47 72.93 72.74 73.16 73.13 71.90 74.73 74.76 74.46 76.19 76.03 76.27 77.76 78.58 78.83 78.94 79.27 79.44 79.02 77.90 78.11 78.27 77.89 78.90 79.18 77.26 77.09 60.26 59.30 76.00
57.09 61.06 68.22 72.60 71.88 71.32 71.82 71.84 74.32 75.89 75.13 76.43 77.69 77.79 77.46 78.25 79.13 77.18 77.25 79.40 78.96 78.54 78.32 78.01 78.36 77.72 77.37 77.55 78.41 67.09 61.18 58.33 61.14
54.00 56.33 63.33 70.85 72.58 72.17 73.17 74.16 75.06 74.28 77.33 77.18 77.68 77.42 78.18 78.02 78.16 77.83 79.38 78.40 78.21 77.12 77.98 76.91 76.21 76.17 75.98 76.27 77.54 78.34 61.97 57.55 57.83
53.83 55.14 56.44 65.45 69.60 71.34 72.80 74.41 74.76 75.35 76.43 78.29 77.43 76.94 77.53 77.53 77.22 76.84 77.80 77.57 77.60 76.84 76.52 76.11 76.20 76.11 76.06 76.69 77.33 78.23 79.37 75.09 69.42
55.22 55.58 56.36 58.23 64.06 68.15 69.05 70.83 72.05 74.29 76.15 76.53 76.30 76.54 76.78 77.20 77.27 76.83 77.06 77.84 72.89 76.95 78.94 73.24 76.68 77.00 77.41 77.03 76.98 77.74 72.44 73.37 78.71
56.02 55.84 56.85 57.43 58.68 63.46 66.94 68.21 69.99 71.69 74.12 75.87 75.02 74.66 74.98 75.75 76.14 76.68 76.65 76.36 73.68 49.26 48.72 46.34 47.39 51.25 66.75 74.66 59.49 55.05 57.05 56.50 57.59
56.43 55.80 56.82 57.36 58.31 60.75 64.56 65.42 66.18 68.70 72.99 74.38 75.27 73.46 76.78 75.00 73.49 75.22 73.60 73.50 73.04 71.63 67.43 48.13 45.38 44.31 48.35 54.67 55.14 46.72 46.17 45.99 46.72

GFSFLT1_sfc_wetblb_051.txt.gz
Wetbulb
69.72 70.20 70.48 70.79 71.30 71.60 73.00 73.85 74.68 74.98 76.36 77.03 77.67 76.89 76.95 76.89 77.82 74.08 72.92 76.31 74.71 73.80 73.49 74.59 80.38 78.68 78.45 78.78 78.97 78.27 79.61 77.44 76.76
66.98 69.51 70.75 71.11 71.60 72.21 73.35 73.98 74.95 75.15 76.36 77.06 77.53 75.34 77.15 77.67 77.44 76.18 74.16 76.04 78.11 76.44 77.97 75.20 77.87 78.33 78.14 78.26 78.22 79.35 80.34 76.63 77.63
66.55 69.03 70.61 71.40 72.20 72.47 72.99 73.58 74.62 75.61 76.37 76.96 77.37 76.80 77.31 77.37 77.60 78.18 77.62 78.43 79.22 77.92 78.71 79.21 77.64 77.94 77.49 77.88 78.78 78.94 80.68 78.62 79.44
65.52 67.37 69.89 71.25 72.21 73.28 73.47 73.80 74.12 74.46 75.29 76.31 76.39 77.09 77.26 76.57 76.65 77.18 77.99 78.46 79.03 79.40 79.23 79.99 79.39 78.75 78.21 77.89 77.76 79.12 80.22 79.76 78.94
64.35 66.52 69.18 71.31 72.12 73.29 73.81 73.72 73.87 74.46 74.50 74.31 75.88 76.75 77.96 77.17 77.28 77.19 76.81 77.47 78.74 79.84 79.72 79.29 79.51 79.26 78.98 78.42 78.08 79.59 79.56 77.83 77.37
63.68 65.44 67.45 70.68 71.68 72.55 73.39 73.92 74.64 74.14 74.57 74.33 74.89 76.55 76.55 77.10 76.63 77.16 76.74 77.95 78.26 79.38 79.71 79.74 77.85 79.46 79.56 78.58 78.33 79.17 79.80 79.72 78.67
62.00 65.28 67.76 69.06 71.01 71.77 73.07 75.03 76.12 75.98 74.83 74.83 74.60 75.11 75.24 76.40 76.96 77.40 77.22 78.08 78.87 79.05 79.69 79.65 79.48 80.03 79.90 79.10 78.78 78.56 78.40 78.94 79.12
62.33 62.77 65.70 67.81 70.01 73.06 75.47 75.92 76.97 77.08 75.79 76.57 75.76 76.14 75.56 76.49 77.70 77.70 77.98 77.78 79.04 79.20 79.65 79.81 80.33 80.11 80.01 79.75 77.97 76.78 78.27 79.13 79.16
61.98 63.03 64.43 66.18 68.72 70.75 73.39 75.89 76.84 77.32 76.88 77.02 76.66 76.85 75.96 76.78 77.75 77.94 77.74 78.02 78.73 79.44 79.62 79.86 80.12 79.91 79.86 79.14 76.92 69.92 68.01 75.13 78.11
61.63 63.14 64.58 66.26 66.21 69.29 70.82 72.90 76.40 76.76 77.56 77.59 77.44 77.69 77.26 77.64 78.27 77.91 78.27 78.51 78.97 79.04 79.38 79.98 79.97 79.84 80.04 79.53 79.69 66.72 65.59 68.05 76.63
67.33 67.73 67.17 68.77 69.53 69.88 70.26 71.79 73.16 75.73 76.87 78.14 78.08 77.47 78.52 78.03 78.83 78.39 78.95 78.99 78.93 79.18 79.40 79.35 79.41 80.00 80.25 80.03 79.94 66.91 63.50 66.02 77.06
67.99 68.80 69.73 70.49 71.56 71.90 72.90 71.74 72.54 75.78 75.69 78.27 77.86 78.24 78.39 78.62 78.97 78.84 79.21 78.87 79.13 79.54 79.54 79.57 79.56 80.17 80.34 80.20 80.18 65.11 62.99 66.26 76.75
68.19 68.99 69.94 70.76 71.98 72.73 72.98 73.58 73.44 72.48 74.41 76.01 77.20 78.25 78.28 79.33 79.35 79.42 79.06 79.49 79.75 80.28 80.07 79.77 78.91 79.43 80.53 76.21 80.50 65.84 61.54 66.29 76.31
65.52 68.09 69.36 71.19 72.26 72.34 73.49 74.77 74.34 74.23 74.83 75.43 77.72 78.88 79.47 79.96 79.77 79.92 80.02 80.40 80.48 80.34 79.91 78.73 79.77 79.36 80.11 80.58 78.87 79.30 60.69 59.32 77.48
62.40 63.59 65.62 69.04 73.30 74.23 75.01 75.49 76.40 75.93 75.16 77.15 79.11 79.02 78.94 79.52 80.21 79.29 79.03 80.39 80.37 80.40 80.06 79.59 79.77 79.57 79.30 78.95 80.73 69.10 61.41 58.66 62.23
59.30 59.14 63.13 65.57 71.67 74.80 73.97 75.92 76.85 76.52 75.73 79.62 78.91 79.05 78.72 79.41 80.09 79.93 80.23 79.75 79.75 78.58 79.66 77.10 77.06 76.90 76.27 76.32 77.90 79.08 61.98 58.27 58.89
56.22 57.46 58.06 60.66 67.08 73.74 74.06 76.24 76.24 76.74 80.76 79.97 79.63 78.91 78.73 79.25 79.08 79.06 79.62 78.62 78.45 77.22 76.67 76.52 76.06 75.79 75.41 75.31 75.79 75.92 77.51 73.99 67.85
54.81 55.96 56.82 58.38 61.41 65.39 67.75 71.45 73.78 76.65 78.16 79.35 77.84 78.52 78.60 77.98 77.81 77.33 78.37 79.58 76.46 77.51 71.99 71.69 76.36 75.34 74.73 73.75 74.41 74.60 70.85 73.67 77.09
54.94 55.10 56.74 56.70 58.95 61.09 61.77 63.52 64.41 66.25 69.08 77.97 77.23 76.92 76.09 76.71 76.52 76.66 77.03 73.75 71.91 51.76 56.15 49.02 48.47 49.11 61.80 75.06 56.90 55.21 51.57 55.20 55.00
55.25 55.25 56.32 57.25 57.96 59.05 60.71 60.78 62.35 65.74 66.86 71.90 76.20 75.46 77.97 77.00 74.72 75.90 76.66 76.12 74.87 72.90 63.16 47.95 46.50 49.03 49.58 50.81 51.85 48.85 48.85 49.40 50.12

GFSFLT1_sfc_wetblb_054.txt.gz
Wetbulb
65.69 69.76 70.10 70.29 70.69 71.12 71.11 71.55 72.34 72.77 73.71 73.58 74.42 75.61 74.18 74.92 76.40 73.68 74.31 76.61 75.21 76.84 75.94 75.71 77.74 78.55 77.89 79.03 79.20 78.96 79.15 77.49 77.25
63.51 66.44 69.43 70.29 71.16 71.48 71.74 72.14 72.23 73.28 73.82 74.36 74.92 74.48 75.47 74.05 75.88 75.49 73.31 75.75 77.26 76.97 77.14 76.71 77.76 78.27 78.88 78.80 78.59 78.23 78.88 77.15 77.32
63.45 66.12 65.74 69.76 71.42 71.80 72.79 72.91 73.65 73.81 74.83 74.45 75.28 74.95 75.20 74.79 73.70 75.15 75.64 73.30 75.61 75.67 78.50 78.16 77.65 78.09 77.96 78.46 78.96 78.75 78.95 77.66 77.70
63.69 64.68 66.31 66.71 66.99 72.56 73.26 73.65 74.17 73.69 74.44 75.01 75.43 75.90 75.01 74.79 74.29 74.48 74.01 75.31 72.97 77.20 76.45 80.21 79.08 79.50 78.58 77.78 77.70 78.90 78.95 77.74 77.71
66.67 67.77 66.76 66.27 64.18 66.00 72.79 73.22 73.63 73.91 74.16 75.16 75.67 76.08 75.26 74.79 75.31 74.43 73.95 72.72 76.51 76.45 78.57 77.99 80.71 78.71 79.58 78.12 77.87 78.11 77.90 77.33 75.95
64.40 67.44 63.40 63.42 65.48 67.46 72.52 72.95 73.59 74.26 74.28 74.27 76.05 76.38 75.57 75.24 74.91 75.01 74.90 74.01 74.50 77.09 76.59 78.08 77.45 79.19 77.81 78.10 77.09 77.37 77.93 77.82 76.91
62.71 65.33 65.99 65.37 68.43 69.80 73.30 73.40 73.65 73.98 74.40 74.77 75.09 75.65 75.54 75.18 74.72 74.84 74.52 75.73 74.51 76.37 77.62 77.05 77.48 77.56 78.22 78.01 77.40 76.95 77.74 78.03 77.44
62.66 64.08 64.65 66.80 68.16 68.93 73.15 73.76 74.04 74.31 74.83 74.54 74.93 74.91 74.82 75.10 75.94 75.60 75.23 75.20 75.78 75.23 76.34 77.06 77.75 77.46 78.09 78.15 77.48 76.80 76.76 77.01 77.55
59.41 60.67 64.46 66.34 65.24 73.53 72.79 74.50 74.44 74.66 74.67 74.80 75.02 74.49 74.38 75.30 75.70 75.62 75.65 75.11 75.80 76.23 76.00 76.91 77.37 77.56 77.63 77.72 77.39 71.07 68.84 74.53 76.20
57.11 59.67 60.21 67.17 68.58 69.48 70.63 74.06 75.47 74.92 75.05 75.80 75.08 74.88 74.97 75.08 75.87 75.92 75.44 76.23 75.35 76.07 75.80 76.71 76.94 77.43 77.90 77.51 77.75 67.80 66.62 68.69 75.83
56.96 59.49 60.48 70.22 67.51 70.77 72.17 70.45 71.85 76.67 76.47 75.75 75.61 74.91 75.50 75.33 75.91 75.62 76.14 75.65 75.86 75.32 76.44 76.23 76.79 77.31 77.84 77.90 78.12 67.78 63.78 66.40 74.12
57.16 58.94 62.68 70.13 70.77 71.39 73.09 73.16 73.74 76.02 76.73 75.93 75.70 75.41 75.55 75.55 75.67 75.76 75.70 75.36 75.35 75.77 76.44 76.74 76.73 77.46 77.85 77.73 78.01 65.62 64.03 64.91 72.94
58.93 67.00 69.33 69.55 70.59 71.22 71.77 72.97 73.67 73.58 75.08 76.46 74.88 75.49 76.02 76.99 75.93 76.47 75.64 75.91 75.93 76.49 76.91 76.92 77.33 77.26 77.98 74.69 78.06 66.28 63.02 64.97 74.73
65.40 66.18 67.66 69.51 70.19 70.92 72.53 73.64 74.00 73.31 73.67 74.60 77.02 76.50 77.38 77.30 77.22 76.57 77.26 77.28 77.43 77.20 77.26 77.37 77.12 77.07 77.67 78.47 77.35 77.23 61.02 59.73 75.16
63.51 64.44 65.47 67.38 68.72 70.05 73.95 75.42 73.90 73.08 73.73 75.70 77.38 77.98 76.83 78.25 78.29 77.47 78.10 77.74 77.93 77.91 77.53 77.32 76.96 77.24 77.54 78.34 79.16 68.77 62.03 58.83 61.90
61.54 60.68 62.29 64.29 66.95 70.55 76.09 75.12 76.37 73.59 74.81 76.63 79.00 78.26 76.77 77.90 78.37 78.39 77.88 77.99 77.62 77.52 77.89 77.13 76.71 76.64 76.41 77.00 78.14 78.68 63.44 58.81 58.39
56.85 58.19 58.32 59.75 63.47 66.24 66.60 68.33 71.09 76.87 76.54 77.64 77.88 77.17 77.34 77.51 77.99 77.48 77.85 78.42 78.24 77.70 77.25 77.00 76.76 75.98 76.36 76.55 77.30 77.73 78.57 70.27 65.27
55.51 56.40 57.38 58.52 60.62 61.24 61.64 64.61 68.39 70.89 72.00 76.97 75.99 77.48 77.20 77.06 77.52 76.73 77.55 77.58 77.79 77.76 78.09 75.65 76.68 76.77 76.36 76.42 75.62 75.82 70.83 72.26 74.22
55.38 56.29 57.64 57.02 57.07 57.81 58.46 60.48 64.06 67.14 69.48 71.47 78.08 76.80 76.98 76.61 76.96 77.12 77.35 76.37 73.27 51.28 54.57 49.80 52.87 56.37 69.52 70.58 57.31 52.16 51.62 51.66 58.48
55.78 56.65 56.67 55.77 55.99 56.70 57.22 57.71 60.58 62.50 65.69 69.11 73.68 76.98 76.75 76.97 74.80 76.60 76.40 75.89 72.62 68.62 59.21 46.68 45.45 46.17 50.71 54.45 54.94 49.08 47.81 45.99 51.39

GFSFLT1_sfc_wetblb_057.txt.gz
Wetbulb
65.82 65.55 63.20 67.59 67.80 67.93 67.96 68.76 68.89 69.98 70.17 70.93 71.88 70.80 70.40 71.31 71.71 69.99 70.58 71.50 71.50 73.56 73.47 73.17 74.40 74.35 74.53 73.66 74.63 74.60 74.09 72.74 72.84
62.67 64.43 66.17 65.88 68.64 68.51 68.57 68.67 69.05 69.69 69.97 70.15 72.10 71.73 70.36 70.98 72.94 69.88 69.61 70.51 71.08 70.51 71.95 73.42 73.80 75.27 74.55 74.98 74.55 74.69 74.55 72.56 73.27
64.02 65.75 66.55 66.92 67.20 68.55 68.94 69.45 69.58 70.23 70.76 70.27 71.59 72.19 71.72 70.54 71.44 72.94 70.15 69.95 70.69 70.83 70.72 71.89 74.15 75.54 74.71 75.38 74.68 73.76 74.74 72.44 73.48
64.46 64.05 65.71 66.28 67.14 68.20 67.77 70.13 69.90 70.18 71.26 71.00 71.24 71.34 72.45 71.18 70.32 72.39 71.79 70.17 68.92 71.48 70.85 74.25 75.13 75.48 74.83 75.10 74.85 74.67 73.98 72.80 73.75
64.36 65.25 65.81 66.67 66.65 67.45 66.62 68.28 70.07 70.18 71.11 71.71 72.25 72.43 72.01 72.28 71.04 71.03 71.97 70.65 69.78 68.53 71.38 71.97 74.73 75.46 74.88 74.20 73.78 74.57 73.92 73.63 73.57
63.97 64.61 65.38 62.00 65.04 66.79 66.64 66.72 69.13 70.68 71.12 72.23 72.87 73.17 72.22 72.31 71.90 70.27 70.98 70.52 70.30 68.91 72.85 71.58 73.97 74.66 74.55 74.53 74.43 73.66 74.04 74.19 73.89
58.98 64.55 64.06 63.22 63.52 64.69 65.93 66.48 66.92 70.72 71.10 72.51 72.95 73.26 73.06 72.16 71.94 71.98 70.25 70.58 69.68 71.99 71.47 74.30 73.40 75.10 74.31 74.50 73.74 74.18 74.20 74.70 74.37
54.88 56.58 62.50 63.00 62.88 63.35 67.28 66.53 67.77 70.03 71.89 71.82 73.29 73.28 73.33 72.84 72.59 72.46 72.42 71.04 70.71 68.86 73.47 72.48 74.06 73.98 74.84 74.52 74.77 74.43 73.61 74.78 74.85
50.18 51.33 55.54 57.00 59.64 61.86 66.69 66.75 66.02 66.05 69.95 72.00 72.26 73.22 73.23 73.39 72.98 72.59 72.37 72.40 72.67 70.70 70.33 74.09 73.45 73.69 74.06 74.61 75.65 70.52 69.13 72.73 74.32
50.10 50.47 52.57 56.99 58.46 65.63 65.80 64.71 66.25 65.56 65.60 72.72 72.19 72.15 73.27 73.34 73.03 72.88 72.28 72.45 72.06 72.68 70.65 71.75 73.83 74.30 74.48 74.34 75.25 67.99 67.38 69.08 73.83
51.29 53.26 55.56 62.94 61.48 68.25 68.90 69.10 66.74 66.78 66.93 68.43 72.07 71.79 72.22 73.05 73.06 73.01 73.21 72.94 72.16 72.41 73.27 72.02 72.42 73.68 74.55 74.55 75.17 67.69 65.49 67.07 72.16
52.89 53.57 55.55 61.59 59.24 65.42 68.63 67.56 66.06 66.33 66.45 66.04 65.51 71.56 71.80 72.78 73.09 72.88 73.24 72.28 72.73 72.42 73.13 73.25 73.03 74.08 74.48 74.82 75.16 65.78 64.60 64.91 68.54
52.47 53.41 54.57 60.22 60.81 64.93 66.83 68.63 66.53 65.18 65.39 64.84 66.78 68.32 72.51 73.03 73.19 73.45 73.12 73.18 72.86 73.84 72.98 73.01 74.15 73.59 74.66 72.61 75.21 66.13 63.60 64.56 72.25
52.21 53.10 54.53 62.45 64.23 64.89 66.93 69.41 70.21 68.60 67.74 65.73 71.28 72.34 73.60 73.71 73.25 73.44 73.72 73.91 73.91 73.70 73.65 73.20 73.23 73.76 74.28 75.12 74.53 74.72 61.82 60.47 73.55
51.62 52.65 56.13 62.95 62.41 63.18 65.95 69.63 69.43 69.49 69.44 71.06 72.60 73.24 73.06 73.27 73.57 73.66 74.33 73.77 73.92 73.66 73.49 72.91 72.93 73.51 73.93 74.85 75.85 67.78 63.53 59.68 61.19
51.35 57.16 58.89 60.19 60.02 60.73 64.56 66.36 66.96 68.40 69.52 71.56 72.28 73.91 73.03 73.94 74.72 73.67 74.62 73.89 73.63 73.46 73.68 73.28 73.44 73.47 73.53 74.10 75.45 76.25 63.41 59.66 58.87
55.43 56.56 56.45 58.00 58.25 61.54 62.08 61.67 62.98 66.56 68.83 70.03 71.70 72.86 74.15 73.56 74.28 74.10 73.98 75.24 74.80 74.69 74.30 73.93 73.70 73.87 73.69 74.52 74.83 75.56 76.87 69.36 64.24
54.68 56.10 57.07 57.26 57.46 57.66 57.80 58.81 60.66 62.91 64.00 66.31 68.38 72.31 74.40 74.13 74.87 73.57 74.61 75.30 75.26 75.42 75.88 74.21 74.83 74.74 74.96 74.26 74.35 74.76 71.01 71.56 72.29
55.37 55.63 56.36 55.95 55.89 56.49 56.95 57.06 57.60 58.81 60.06 62.50 65.84 69.66 73.23 74.53 74.30 74.69 75.18 74.55 67.22 50.12 52.54 51.43 56.32 61.81 71.46 74.91 62.41 61.85 57.55 54.15 57.43
55.37 55.69 55.83 55.19 54.73 54.36 55.53 54.90 54.97 56.40 57.68 60.67 63.32 67.81 72.68 74.77 72.47 74.83 74.65 74.48 72.52 68.37 57.79 47.82 45.46 46.37 54.71 56.16 59.54 50.90 49.81 47.84 52.17

GFSFLT1_sfc_wetblb_060.txt.gz
Wetbulb
62.79 63.38 63.69 65.52 66.39 66.02 66.40 67.50 68.04 69.93 69.80 69.26 69.48 69.97 69.87 70.53 68.47 68.46 69.40 69.83 71.34 72.20 72.68 73.06 73.94 73.10 73.29 73.36 72.77 72.32 72.12 71.65 71.21
60.87 62.89 64.80 66.44 67.18 66.91 66.77 67.48 67.77 68.74 69.82 69.41 69.24 69.38 69.40 69.72 71.38 68.98 68.24 70.44 71.12 71.37 72.47 72.35 73.84 73.27 73.19 72.83 73.19 72.75 72.30 71.03 71.01
61.35 64.99 65.47 66.75 67.06 67.27 67.24 68.01 68.25 68.89 69.52 70.05 70.20 69.86 69.45 69.37 70.11 71.54 68.06 68.92 69.24 70.73 70.85 71.91 72.68 73.47 73.23 72.94 73.07 72.99 72.42 71.17 71.80
62.73 64.35 65.10 66.14 67.07 67.31 67.69 68.16 68.36 68.49 68.80 69.22 70.58 71.07 70.27 69.13 69.35 70.43 70.25 68.40 68.77 69.65 69.60 70.46 71.74 73.82 73.27 73.37 73.10 72.38 72.87 71.35 71.39
63.48 64.62 65.73 66.41 67.18 67.27 67.24 67.56 68.06 68.34 68.93 69.01 69.53 71.33 71.00 70.14 69.10 69.79 71.08 70.54 68.90 68.29 69.38 71.83 73.19 74.07 73.42 73.25 73.84 73.01 72.03 72.06 72.36
63.68 64.81 65.24 65.49 64.19 62.75 64.12 66.68 68.20 68.34 69.16 69.39 69.63 70.50 70.94 70.82 69.72 68.84 69.65 71.15 69.79 67.58 68.12 69.47 73.23 73.63 73.75 73.52 73.72 73.50 73.16 72.70 72.30
62.86 63.58 64.29 63.48 63.25 63.34 64.28 64.93 65.19 67.03 69.06 70.61 70.31 70.23 70.53 70.42 70.86 69.85 68.87 70.26 70.71 69.97 67.37 68.38 70.61 73.54 73.50 73.52 73.47 73.32 73.55 72.93 72.24
58.16 61.99 63.54 59.19 59.72 59.82 61.17 63.90 65.36 66.85 68.40 70.43 71.30 70.57 70.67 70.03 71.24 71.62 70.31 68.88 70.24 69.25 70.01 69.56 70.43 72.08 73.29 73.67 73.46 73.41 72.48 72.80 72.52
50.45 52.11 55.48 57.02 59.42 62.83 64.79 64.43 61.85 66.73 67.20 68.65 71.78 71.19 71.06 71.52 70.90 71.46 71.29 69.98 68.97 69.24 68.57 70.83 70.09 72.35 73.25 72.90 74.10 69.23 68.70 71.83 72.70
51.28 51.78 53.42 54.00 57.62 65.21 66.43 66.28 66.10 64.96 65.77 67.47 68.33 71.52 71.92 72.06 72.12 71.32 71.06 71.13 69.94 69.02 68.66 67.91 71.13 70.36 72.56 73.43 73.45 67.05 66.45 68.75 73.01
48.44 50.56 51.16 51.70 53.43 59.72 65.68 66.30 67.16 66.69 67.04 66.96 66.58 67.08 71.59 72.44 72.43 71.90 71.67 71.12 70.92 70.55 70.52 68.35 67.99 71.88 71.30 72.32 73.72 66.40 64.98 66.89 72.37
49.13 50.07 50.40 51.88 53.54 58.43 65.52 65.08 66.75 67.25 67.60 67.35 66.46 66.21 65.88 70.62 72.94 72.34 71.89 71.14 71.05 71.35 71.62 71.09 69.02 70.69 73.08 72.55 72.65 64.62 63.73 65.20 71.39
49.28 50.39 51.01 51.37 53.53 60.54 64.72 68.14 66.78 65.18 66.35 67.57 64.77 65.85 65.97 67.01 70.71 72.78 72.16 72.08 71.68 72.02 71.73 71.70 72.11 70.91 71.10 70.46 73.72 64.75 62.52 64.30 72.71
48.59 49.38 50.49 52.43 54.76 62.51 64.61 65.99 65.66 64.23 64.55 64.29 65.68 66.85 66.40 67.20 68.15 71.46 72.87 72.79 72.99 72.51 72.04 71.84 72.04 71.97 72.06 72.62 72.36 72.75 61.40 60.61 73.05
46.20 47.76 49.96 57.07 57.79 60.09 63.26 65.92 67.05 68.26 67.22 67.91 66.22 65.60 65.74 66.67 68.56 71.26 73.02 72.74 72.99 72.74 72.29 71.55 71.14 71.65 72.18 72.84 73.51 66.44 62.64 59.89 61.55
45.36 47.72 50.25 57.20 58.19 57.68 61.66 64.67 64.28 63.82 66.66 69.67 69.90 69.86 70.21 70.00 72.23 72.69 72.82 72.53 72.36 72.24 72.21 72.12 71.55 70.88 71.05 72.13 73.40 74.14 62.65 59.76 59.27
45.29 47.99 49.91 56.08 56.58 58.31 59.18 59.60 60.90 60.86 63.90 65.04 65.26 66.48 68.28 71.97 72.35 72.35 72.31 72.98 72.67 72.58 72.11 71.75 71.82 71.62 71.38 71.90 72.88 73.56 74.70 70.10 65.05
46.93 48.79 52.34 55.27 56.31 55.57 56.52 57.22 58.04 58.61 60.04 60.72 61.48 62.69 65.76 69.97 72.35 70.82 72.23 72.78 72.63 72.80 73.36 71.92 72.23 72.20 72.57 72.17 72.10 73.09 69.11 70.21 72.93
47.41 49.21 53.72 54.66 54.07 55.67 56.17 55.67 55.05 56.01 55.96 57.07 58.44 60.32 63.52 68.73 72.74 72.60 73.29 72.12 67.43 51.67 53.89 56.27 56.55 58.16 68.36 73.11 65.51 60.98 55.78 53.12 56.56
51.20 51.48 55.17 54.51 52.64 52.10 53.21 53.11 53.85 54.35 54.24 54.84 55.23 57.69 61.04 64.99 67.63 73.46 73.03 73.42 71.12 69.78 58.92 47.48 46.59 50.40 53.12 56.49 63.68 53.30 52.39 53.12 51.31

GFSFLT1_sfc_wetblb_063.txt.gz
Wetbulb
64.04 63.57 64.57 65.55 64.47 65.87 65.84 66.08 67.04 69.03 68.41 68.09 68.85 68.78 68.13 67.05 67.42 68.33 68.01 68.70 68.85 69.85 70.83 72.04 72.26 71.67 72.14 71.72 71.31 71.76 70.60 70.84 70.25
62.87 64.42 64.90 65.70 65.32 65.66 66.33 66.40 66.66 68.60 68.38 68.34 68.82 68.82 68.75 68.30 67.45 67.17 67.84 68.89 69.68 69.82 70.98 72.11 72.55 72.09 71.90 72.37 72.10 71.35 70.95 70.60 70.13
62.66 64.14 65.03 64.31 65.89 65.24 66.42 67.22 67.61 68.40 69.14 68.55 68.72 69.13 69.25 69.02 69.53 68.45 67.24 68.22 69.57 70.16 70.76 71.29 71.91 72.30 71.70 72.05 72.10 71.88 71.07 70.16 70.26
62.28 61.35 62.30 64.05 65.46 66.52 66.11 67.21 67.59 67.86 68.73 68.55 68.51 68.88 69.15 68.84 68.34 70.00 68.91 67.24 68.08 69.07 70.11 70.76 70.76 72.34 71.91 71.36 71.80 71.89 71.49 70.59 70.36
60.32 62.56 63.32 65.83 66.45 65.94 65.63 65.88 66.28 66.66 68.30 68.74 68.92 69.13 68.84 68.45 68.28 68.56 69.83 68.56 67.51 67.95 68.32 68.96 69.80 71.12 72.28 71.79 72.03 71.76 71.60 71.37 71.71
63.32 63.76 63.23 62.62 63.10 63.87 64.79 65.27 65.91 66.64 67.47 68.14 69.28 69.54 68.96 68.38 68.08 67.82 68.26 69.42 69.12 67.14 67.50 68.31 70.72 71.50 72.09 71.77 71.99 72.19 71.65 71.53 71.46
59.87 62.79 58.84 59.87 60.76 62.81 64.17 64.30 64.65 65.44 67.54 68.55 68.78 69.34 69.63 69.04 68.61 68.13 68.29 68.69 69.29 69.17 67.05 67.53 68.49 72.01 72.62 72.59 72.23 72.62 72.56 72.02 71.28
52.23 54.47 53.05 54.68 58.70 60.29 63.82 64.63 63.26 64.47 66.11 68.31 69.01 68.49 69.06 69.43 69.87 69.34 68.53 68.23 68.68 68.82 68.79 67.82 67.55 69.52 72.63 72.68 72.85 72.95 72.15 72.33 72.10
47.58 49.10 51.08 53.46 53.54 55.00 59.15 64.60 66.01 63.89 64.35 66.88 69.43 68.63 68.31 69.46 69.76 70.22 69.10 68.18 67.80 68.23 68.35 68.76 67.22 67.99 69.39 71.95 73.17 68.84 67.99 71.15 71.96
45.80 47.01 47.93 49.08 52.07 54.71 54.47 62.18 65.93 65.77 65.46 66.50 68.80 69.29 69.14 69.19 69.50 69.68 70.19 69.55 68.11 67.55 68.02 68.21 68.31 68.73 69.67 69.73 71.80 66.23 65.99 67.73 72.02
45.15 46.94 47.03 48.34 49.46 52.00 53.65 59.02 63.52 66.35 67.09 65.71 66.44 69.33 69.92 70.14 70.12 69.43 70.09 70.28 69.33 68.18 68.09 67.97 67.19 67.67 68.82 70.39 71.20 65.59 64.27 66.21 71.34
44.97 46.32 47.44 48.54 50.52 50.67 52.77 59.84 66.49 66.71 66.06 66.87 66.48 66.72 68.43 70.85 71.16 70.73 70.09 70.06 69.94 70.10 68.81 68.16 68.12 67.40 67.56 68.76 69.94 63.57 62.94 64.44 70.32
44.87 46.75 47.28 48.71 50.07 52.21 56.55 60.71 64.71 65.58 65.07 66.60 66.93 66.56 66.20 66.50 69.74 71.58 71.25 70.98 70.56 70.77 70.58 69.69 69.76 68.52 67.66 66.40 69.62 62.14 61.82 63.72 71.59
45.17 46.06 47.28 48.72 49.74 53.00 57.81 60.60 62.99 64.21 64.88 64.81 66.26 66.84 66.04 65.95 66.41 66.83 71.56 71.96 71.54 71.12 70.63 70.84 70.39 70.41 69.59 68.84 69.73 70.66 59.44 59.64 71.69
43.73 44.58 46.01 47.69 48.06 50.41 56.81 60.04 61.08 62.83 63.44 65.97 69.19 69.30 65.75 65.46 65.54 67.60 69.30 69.60 71.76 71.38 70.94 70.14 70.09 70.02 70.53 70.97 70.45 63.52 61.00 58.88 61.02
43.86 43.93 44.70 46.60 47.85 49.67 55.55 59.62 61.86 61.88 61.86 62.95 64.93 64.52 65.58 67.94 69.29 66.92 67.39 68.76 70.09 71.51 71.61 70.81 70.36 69.97 70.00 70.61 71.77 71.75 60.40 58.14 58.35
43.97 45.09 44.86 46.56 47.58 49.49 53.47 58.71 61.60 60.69 60.59 61.72 61.08 61.60 63.47 64.62 65.81 68.41 71.65 71.47 71.07 70.83 71.44 71.12 70.85 70.41 69.95 70.40 71.24 72.03 72.41 67.54 63.09
46.59 47.50 47.92 47.90 48.40 49.46 53.64 57.99 58.82 59.46 59.27 57.97 57.32 58.72 61.26 62.12 64.53 67.90 70.92 71.67 70.92 71.40 72.28 70.93 71.35 71.40 71.41 70.36 70.07 70.92 67.98 68.92 71.35
45.57 47.02 47.31 48.18 48.33 49.53 53.50 56.30 56.79 57.29 56.10 55.35 54.88 56.50 59.45 60.43 61.96 64.27 67.88 71.01 69.83 52.37 56.02 55.01 55.42 56.22 66.40 71.41 63.54 59.90 55.37 54.00 54.36
45.89 46.47 46.60 47.13 48.85 51.00 54.59 53.01 53.10 53.85 53.31 52.93 52.89 53.59 56.18 58.39 59.26 62.32 64.97 69.09 71.45 69.62 60.14 48.56 50.01 48.74 51.46 53.06 62.61 51.28 51.83 51.10 51.64

GFSFLT1_sfc_wetblb_066.txt.gz
Wetbulb
64.75 65.33 65.89 65.89 64.95 65.23 65.83 66.56 67.01 67.85 67.72 67.54 68.54 68.98 68.38 68.54 68.97 69.29 69.59 69.58 69.63 70.01 71.13 72.49 73.72 73.60 73.20 72.78 73.07 72.60 72.14 72.49 73.28
62.57 63.54 64.93 65.37 65.92 65.71 65.74 66.01 66.48 67.61 67.97 67.95 68.54 68.94 68.80 67.73 68.08 68.54 68.83 69.73 70.57 70.49 71.78 72.59 73.54 73.28 73.32 73.28 73.24 73.06 73.01 72.30 72.20
60.56 62.89 62.96 64.54 65.70 65.33 66.21 66.40 66.65 68.28 68.56 68.22 68.61 69.17 69.12 68.63 68.17 68.43 68.98 69.58 70.04 70.89 71.66 72.67 73.50 73.54 73.40 73.40 73.86 72.86 73.02 72.36 72.37
57.95 63.04 64.21 65.05 65.66 65.37 66.42 66.82 66.58 67.48 68.64 68.45 68.41 69.22 69.27 69.22 68.89 68.11 68.16 68.78 70.04 71.22 72.03 72.21 72.67 73.48 73.48 73.19 73.16 73.78 73.15 72.91 72.51
61.76 61.93 63.89 65.52 65.90 65.85 65.59 66.21 66.74 66.66 67.99 68.36 68.75 69.11 69.29 68.85 69.18 69.86 68.46 68.14 68.93 70.10 70.79 71.85 72.71 72.88 73.50 73.18 73.03 72.86 73.28 72.91 73.15
52.91 57.37 60.30 61.26 63.17 64.60 65.60 66.25 66.56 66.86 67.48 68.49 68.98 69.12 69.12 68.95 68.29 68.62 69.65 69.44 68.84 69.11 69.55 69.93 70.81 72.10 72.50 73.18 73.32 73.28 73.42 73.37 73.35
50.89 51.45 52.26 54.36 56.95 60.10 64.80 65.48 65.94 66.73 67.29 68.00 69.09 69.00 68.70 68.58 68.34 68.10 68.76 69.67 70.01 68.96 69.37 69.45 69.70 71.35 72.14 73.07 73.35 73.51 73.51 73.06 73.10
47.31 47.79 49.92 50.98 52.14 53.75 54.80 60.72 66.44 66.86 65.79 67.90 68.51 68.69 68.87 68.56 68.92 69.12 68.81 68.77 69.33 70.11 69.35 69.47 69.72 69.93 72.10 73.31 73.54 73.23 73.43 73.63 73.11
45.17 46.00 47.16 49.04 50.22 52.27 52.73 56.16 59.12 65.32 66.10 65.57 68.33 68.20 68.40 69.83 69.90 69.70 68.87 68.57 68.61 69.19 69.77 69.45 68.87 69.18 70.24 71.78 72.78 68.58 67.85 71.92 73.44
43.92 44.81 46.29 46.87 48.56 50.35 51.63 53.86 58.03 62.59 65.86 67.56 66.61 68.04 68.68 69.00 70.14 70.01 69.83 69.48 68.75 68.35 68.59 69.64 69.10 68.55 69.11 70.20 71.67 65.71 66.00 67.65 73.75
42.59 43.57 44.92 45.97 47.25 49.25 50.58 52.78 58.18 64.35 67.04 67.11 66.82 67.66 69.20 69.42 69.40 69.67 70.07 70.29 69.14 68.57 68.68 68.61 68.63 69.17 69.24 69.41 70.12 64.38 64.11 66.26 72.55
42.66 43.29 44.77 46.11 47.67 49.10 50.17 52.64 58.64 63.60 65.66 66.49 67.40 67.33 68.28 70.37 69.72 69.46 69.70 69.81 70.16 69.81 68.92 68.50 68.78 68.94 68.99 69.30 69.89 62.18 62.20 64.82 71.45
42.82 44.06 45.04 45.74 47.25 48.32 49.03 50.89 57.40 61.07 62.20 65.37 65.73 67.31 67.87 68.32 69.17 70.94 70.08 69.61 70.29 70.87 70.71 69.51 69.41 69.27 68.95 66.44 69.45 61.61 60.40 63.15 70.81
43.60 44.19 45.59 47.08 47.16 46.86 47.90 50.27 53.50 57.94 59.82 62.12 66.87 68.61 68.33 67.46 67.35 68.12 71.69 71.70 71.27 71.26 71.07 71.10 70.18 69.56 69.92 68.99 67.74 68.60 58.67 59.10 70.85
42.62 43.98 46.53 47.23 46.10 46.17 47.71 49.58 51.41 55.09 58.55 62.69 66.35 65.82 66.51 67.18 67.33 67.17 68.91 69.87 72.07 71.80 71.03 70.43 70.34 70.29 70.36 70.54 69.63 62.03 58.91 57.53 60.32
43.25 45.52 46.86 46.79 45.63 46.08 47.72 49.40 50.83 52.86 57.57 63.91 63.89 64.47 63.94 64.25 66.04 68.21 68.07 68.00 68.62 71.34 71.71 70.82 70.29 70.15 70.09 70.75 71.92 70.76 59.37 57.02 57.38
43.88 45.90 46.69 46.88 46.69 46.64 47.32 49.53 51.02 52.44 56.68 61.86 61.99 61.44 62.09 63.37 63.64 64.14 66.80 69.52 68.27 68.20 70.88 70.86 70.82 70.33 70.32 70.79 71.40 71.99 72.28 66.88 63.01
43.93 44.88 46.59 47.44 46.65 46.47 47.66 49.96 50.71 51.84 54.95 59.83 59.49 58.83 60.20 62.10 62.98 63.56 64.31 67.96 70.01 70.55 69.68 69.87 71.53 71.52 71.67 70.86 70.56 71.45 67.60 67.72 69.96
43.03 43.97 45.89 46.15 46.26 46.45 47.32 48.92 50.27 51.77 54.67 58.22 56.85 56.64 57.80 59.44 61.58 62.06 63.42 64.22 66.58 58.69 56.64 52.33 52.12 56.68 66.91 72.10 64.09 57.28 54.34 53.26 52.17
43.74 44.25 44.55 45.15 45.41 46.47 46.91 47.96 51.45 52.67 56.00 55.74 54.26 53.74 54.99 56.72 56.91 59.61 61.20 62.47 63.69 65.02 66.08 52.35 49.63 48.18 49.27 53.24 62.48 51.99 52.17 50.17 49.27

GFSFLT1_sfc_wetblb_069.txt.gz
Wetbulb
66.81 68.20 68.73 68.62 68.64 69.10 70.11 70.68 71.16 71.38 71.37 71.70 72.50 73.20 74.09 74.83 74.72 73.93 73.98 74.91 74.41 74.41 74.58 75.52 77.61 77.47 77.46 76.92 76.94 76.61 76.72 75.97 75.88
64.34 67.47 68.78 68.73 69.03 69.49 70.24 70.74 71.19 71.55 71.71 72.00 72.22 72.46 73.96 74.15 74.27 74.50 74.43 75.27 75.52 74.60 76.19 75.56 76.86 77.47 77.19 77.01 77.02 76.96 76.84 75.45 76.02
62.99 66.05 68.41 69.22 69.22 69.09 70.03 71.04 71.61 71.96 72.26 72.07 72.49 72.52 73.15 73.04 73.38 74.27 74.61 75.11 75.14 75.61 76.03 76.41 76.34 76.80 77.19 77.28 77.27 77.08 76.87 76.27 76.63
63.37 65.90 66.56 68.76 69.73 69.84 70.31 70.68 71.01 71.30 71.73 72.12 72.10 72.57 73.45 73.31 72.76 73.12 73.75 73.78 74.78 75.74 76.33 76.50 76.52 76.83 76.80 77.19 76.96 77.31 77.03 76.65 76.33
56.35 60.76 64.04 67.21 68.65 68.92 69.31 69.81 70.18 70.42 71.21 71.20 71.57 72.92 73.32 72.82 73.53 73.18 72.71 72.95 73.89 75.50 75.73 76.44 76.83 77.08 76.90 77.19 77.03 77.30 76.84 76.56 75.87
49.84 52.17 53.77 56.73 58.22 60.01 66.88 69.22 69.82 70.03 70.43 71.22 70.90 71.50 71.35 72.15 72.62 72.79 72.90 73.18 73.48 74.00 74.80 75.86 75.95 76.94 76.80 76.93 76.94 77.04 77.24 77.02 76.76
48.13 49.02 49.51 50.78 52.08 54.59 57.48 61.25 66.56 69.37 69.63 70.86 71.71 71.53 70.49 71.43 71.11 72.08 73.13 74.45 74.16 73.62 74.54 74.47 75.05 75.66 76.41 76.91 77.17 77.31 77.19 76.97 76.99
49.02 47.60 48.13 48.70 49.24 50.86 52.52 54.76 59.75 65.32 68.35 68.93 70.90 71.73 71.66 71.71 72.90 72.73 71.55 72.23 74.76 74.21 74.08 74.14 74.97 74.47 74.94 75.62 75.67 75.59 76.64 76.92 76.80
48.47 48.67 48.38 47.97 48.58 49.60 50.26 52.44 55.02 60.73 65.86 67.73 69.04 69.34 71.18 73.14 73.67 74.07 73.72 73.67 73.21 74.68 74.23 74.02 74.56 73.83 73.97 74.28 73.88 68.19 68.16 73.87 76.45
47.34 47.51 48.48 48.89 48.45 48.22 49.60 50.86 52.48 58.21 63.80 67.75 68.49 68.99 69.47 71.80 73.18 73.40 73.89 73.49 73.65 73.78 73.83 74.37 73.67 73.82 74.13 74.31 75.39 65.51 65.93 68.34 75.71
47.14 47.17 47.78 48.83 50.03 49.99 50.24 50.67 51.47 55.66 60.99 63.66 66.61 70.04 69.15 70.97 72.27 72.50 73.57 73.35 73.17 73.38 73.42 73.76 73.82 73.61 74.37 74.38 74.25 64.47 63.76 66.18 74.86
46.98 47.31 48.25 49.16 50.68 51.62 52.64 52.27 51.52 51.69 55.90 60.26 62.45 67.16 69.87 71.39 72.20 72.16 72.57 72.57 73.66 73.44 72.75 72.71 73.25 73.39 74.00 73.77 74.22 62.40 61.77 65.40 73.73
46.57 47.85 48.41 48.80 50.51 52.30 52.77 53.01 52.19 51.43 52.50 56.59 60.22 62.95 67.66 69.81 71.43 70.96 72.82 72.92 73.34 73.86 73.88 72.89 72.79 72.60 73.49 70.32 74.27 63.99 59.97 63.75 71.93
47.17 47.41 47.87 49.54 50.67 51.58 52.57 53.25 53.16 51.81 51.29 51.95 57.49 62.05 67.31 67.63 68.71 70.64 71.17 71.80 74.45 73.74 73.55 73.69 73.67 73.00 73.56 73.96 72.50 72.86 59.40 58.53 72.18
46.39 46.29 47.19 49.03 50.18 51.02 52.39 53.22 53.00 52.69 52.30 52.73 56.71 60.01 65.07 65.88 66.84 68.22 70.13 71.58 71.35 74.16 74.38 74.02 73.61 73.73 73.15 73.50 74.25 64.89 61.49 57.65 59.37
45.63 46.39 47.29 48.76 49.27 50.69 51.75 52.86 53.22 52.55 54.26 54.84 54.57 59.17 63.77 63.69 65.34 67.16 68.62 70.62 71.11 71.01 71.37 72.89 73.26 72.51 72.42 73.23 74.60 74.36 59.68 56.84 57.14
44.45 44.39 44.64 46.66 47.80 48.56 49.26 51.39 52.22 52.59 53.73 55.52 54.06 55.63 60.89 62.63 62.74 64.43 66.72 67.60 69.48 70.23 70.50 70.94 71.71 72.32 72.19 73.25 74.23 74.68 75.15 71.15 66.41
43.09 43.09 43.65 44.41 45.62 47.04 48.84 50.69 50.95 51.86 52.49 53.67 54.57 53.56 58.00 60.63 61.15 62.54 64.84 66.09 67.16 69.81 71.58 70.23 71.02 72.45 73.42 72.76 73.04 73.64 69.10 69.99 73.77
43.44 43.88 44.97 45.04 45.64 46.22 47.27 48.84 49.42 50.90 52.58 53.53 54.82 54.22 55.90 58.03 58.83 60.62 62.76 64.52 64.62 57.27 55.66 54.33 53.62 54.52 61.65 73.22 65.01 58.70 53.73 53.08 52.90
46.19 44.97 45.32 44.92 45.00 45.79 45.71 46.51 47.49 50.15 51.63 52.06 54.13 54.42 56.51 56.93 56.48 58.11 59.59 62.06 64.04 63.35 62.48 53.26 50.72 49.09 50.54 50.00 59.66 52.17 51.63 51.27 51.09

GFSFLT1_sfc_wetblb_072.txt.gz
Wetbulb
66.18 70.69 71.24 71.06 71.62 71.88 72.29 72.40 73.26 73.79 74.34 74.84 75.59 75.86 76.31 77.06 77.17 75.64 75.48 76.02 74.72 75.11 75.12 76.04 77.82 77.74 77.22 77.69 77.63 77.35 77.32 76.30 75.78
66.55 70.04 70.99 70.71 71.73 72.21 72.55 72.89 73.36 74.04 74.55 75.29 75.57 75.63 76.16 76.58 76.99 76.42 75.66 76.49 76.54 75.52 76.88 76.12 77.98 77.28 76.99 77.05 78.00 78.03 78.37 76.50 76.51
66.52 68.50 70.58 71.47 71.09 72.21 72.91 73.50 73.87 74.59 74.83 75.19 75.79 75.98 75.85 75.98 76.38 76.78 76.76 76.80 76.55 76.55 76.31 77.42 77.41 78.08 77.79 77.09 77.78 78.58 78.48 76.55 77.36
58.93 62.25 65.75 66.40 69.78 71.72 72.62 73.66 73.84 73.98 74.44 74.89 75.35 75.83 76.07 75.92 75.85 76.11 76.71 76.32 76.58 76.93 76.87 77.41 77.91 78.04 78.18 77.61 77.22 77.96 78.64 77.69 77.04
54.01 56.11 57.54 59.10 60.04 60.43 66.55 72.18 73.02 73.57 74.30 74.27 75.04 75.71 76.08 75.54 75.75 76.01 75.60 75.93 76.29 76.98 76.79 77.25 78.03 78.76 78.23 78.21 77.82 78.31 77.95 76.72 76.53
50.98 52.06 52.35 52.44 52.92 54.22 57.23 62.95 65.95 71.74 73.17 73.86 73.91 74.70 74.90 74.70 74.60 74.96 75.41 75.60 76.26 76.38 76.54 76.84 77.09 77.60 77.99 78.06 77.91 78.39 78.59 77.57 76.96
49.55 50.51 51.23 51.03 51.05 53.09 54.96 56.69 58.49 64.99 69.96 72.99 73.74 74.33 74.18 74.34 74.08 74.51 75.28 75.85 76.29 76.14 76.51 76.27 76.60 77.15 77.63 77.81 77.10 77.76 78.05 78.26 77.40
49.41 49.25 50.03 50.92 50.49 51.08 53.39 53.77 54.87 59.18 64.85 68.29 72.01 72.61 73.82 74.13 74.85 75.39 75.49 75.74 76.32 76.50 76.36 76.20 76.39 76.28 76.74 77.38 77.21 76.30 77.37 78.14 78.10
52.61 51.81 50.53 51.18 52.13 51.82 51.51 52.64 53.31 55.32 57.90 64.22 67.51 71.39 71.99 73.22 75.37 75.63 75.52 75.66 75.28 76.31 76.40 76.44 76.44 75.77 75.53 75.57 75.22 69.38 68.22 74.35 77.62
52.23 51.98 52.77 53.28 51.29 51.24 53.10 53.96 55.59 53.83 55.92 61.18 63.18 65.03 71.31 72.73 73.19 74.63 75.37 75.90 75.75 75.24 75.10 76.35 76.70 76.04 76.00 76.07 76.38 66.05 65.16 68.55 75.87
51.29 51.62 52.13 53.13 53.91 54.13 53.79 54.35 54.18 56.54 56.85 57.85 60.01 62.40 66.57 70.69 72.25 73.14 74.32 75.35 74.99 75.62 75.69 75.48 76.11 76.41 77.31 77.21 76.62 65.38 63.71 65.83 75.50
51.25 51.71 52.55 53.12 54.20 54.96 56.74 57.54 55.96 55.33 54.36 54.06 55.54 58.77 62.10 66.70 67.50 72.21 72.86 73.71 74.90 74.60 74.97 75.29 75.30 75.62 76.56 77.13 77.46 63.07 62.70 66.09 74.55
51.35 52.33 52.88 52.88 53.60 54.65 55.98 57.49 57.89 57.19 57.23 55.13 53.79 55.18 58.32 62.02 67.71 68.04 70.22 73.27 75.35 76.98 75.70 75.19 75.05 75.39 76.19 72.13 76.53 65.37 60.28 65.09 73.67
51.69 51.88 52.15 52.98 53.45 53.87 55.61 57.03 57.10 56.69 57.77 57.84 57.68 56.74 57.33 59.93 64.99 67.11 66.48 70.10 74.85 74.77 76.05 76.61 75.95 75.03 76.24 76.43 75.06 75.07 59.49 58.57 73.53
50.35 50.74 51.36 51.99 51.97 52.98 54.87 56.17 56.16 55.90 56.33 58.15 58.73 58.19 56.01 56.67 59.45 64.58 64.74 68.49 67.86 72.97 75.90 75.80 75.65 76.53 75.20 75.84 76.74 66.59 62.46 57.55 59.45
49.26 49.61 49.74 50.12 49.66 50.28 52.15 54.42 55.35 54.48 56.12 57.29 57.42 57.58 58.43 56.85 59.23 62.41 65.35 66.81 68.04 66.84 72.33 73.22 75.13 75.67 73.91 74.37 75.73 76.78 61.31 57.55 57.23
48.42 49.13 48.81 49.49 48.17 48.64 49.53 52.20 53.47 54.53 55.65 56.43 56.24 55.89 57.27 58.71 56.31 58.79 63.12 63.73 65.53 66.85 66.26 70.38 71.95 72.87 74.51 75.53 75.06 75.79 77.07 74.12 68.80
48.95 49.58 49.28 48.60 47.63 47.10 48.53 50.53 50.81 51.59 53.24 54.05 53.74 54.95 55.85 57.50 59.10 59.30 61.16 63.27 64.19 66.18 66.96 66.04 70.35 72.77 74.17 73.96 73.66 74.53 69.47 70.92 76.89
48.88 49.07 48.05 47.18 48.84 47.45 47.54 48.84 49.55 51.49 51.93 50.87 51.23 52.70 54.43 56.04 58.21 59.21 60.21 61.00 61.93 56.89 55.52 54.57 52.98 51.76 57.21 71.13 63.18 55.25 55.63 53.14 54.04
48.92 47.72 47.27 47.73 47.14 46.43 47.47 47.30 47.02 49.03 51.43 49.57 49.78 49.40 52.20 54.57 54.23 58.80 59.70 60.16 59.99 59.88 61.62 51.48 50.01 49.50 49.87 50.21 56.68 54.02 49.14 47.51 49.87

GFSFLT1_sfc_wetblb_075.txt.gz
Wetbulb
69.93 69.51 70.53 70.75 71.35 70.79 70.70 71.88 72.07 73.29 74.66 76.08 76.49 76.59 77.45 78.01 77.91 75.83 75.16 76.32 75.75 75.27 74.52 73.45 79.13 77.58 77.10 77.32 77.58 77.51 77.79 76.63 75.46
65.96 69.52 68.73 70.54 71.00 72.14 70.74 71.53 73.00 73.59 75.68 76.05 76.63 76.40 77.26 77.59 78.22 77.20 76.55 79.26 77.25 75.92 77.58 73.99 78.05 77.67 77.23 77.49 77.67 77.83 78.73 75.63 77.03
65.54 65.30 64.98 64.68 67.56 70.84 71.48 71.92 73.04 73.36 74.52 75.68 76.75 76.85 76.78 76.94 77.30 77.79 77.43 77.13 77.48 77.66 76.66 77.27 74.49 77.55 77.63 77.33 77.46 77.58 78.30 78.03 78.20
59.47 59.80 61.64 63.17 62.51 65.21 67.52 68.45 72.45 72.98 74.31 75.10 76.12 76.62 76.95 76.99 76.96 77.38 77.60 76.72 77.00 77.42 77.13 77.62 77.48 79.47 78.08 77.79 77.26 77.39 78.43 78.82 77.59
56.41 55.05 53.97 58.60 59.93 61.33 61.02 64.06 66.32 68.76 73.20 74.43 75.36 76.44 77.57 76.82 77.18 77.22 76.85 77.06 77.23 78.34 78.13 77.41 77.73 78.12 77.86 77.77 77.42 78.28 77.98 76.76 76.09
52.43 53.99 54.63 52.92 56.55 55.56 55.32 60.13 65.35 66.92 69.33 72.01 74.37 75.77 75.80 76.27 76.43 76.60 76.65 76.99 77.20 78.63 78.31 77.87 76.35 77.58 77.97 77.25 77.13 78.43 78.79 78.31 77.09
53.10 52.67 52.40 53.38 51.59 54.09 54.62 56.10 57.78 63.25 65.07 70.38 70.84 72.65 75.33 75.55 76.09 76.26 76.12 77.57 78.41 77.26 78.89 78.03 77.64 78.09 78.82 78.05 77.03 77.34 77.45 77.99 77.74
51.39 51.49 51.93 52.35 52.60 52.96 54.33 56.24 56.31 57.24 61.72 65.39 68.16 69.92 72.35 74.29 76.22 76.87 75.81 77.35 78.59 78.28 78.56 78.35 78.15 78.11 78.37 78.21 77.24 75.97 78.21 78.31 77.73
51.78 51.56 52.74 52.86 53.13 53.78 54.39 54.74 56.95 57.63 58.25 60.91 64.68 65.55 69.65 73.96 75.02 75.39 76.94 77.24 77.30 78.45 78.34 78.82 79.09 77.54 77.80 77.56 75.39 69.50 68.02 74.77 78.09
54.25 54.66 53.70 54.36 54.82 55.57 55.92 56.17 56.90 57.55 58.97 59.41 60.57 62.42 64.17 67.41 71.52 74.16 74.56 76.49 76.49 77.04 77.15 78.15 78.96 78.39 77.83 78.06 78.26 67.44 65.29 68.35 75.94
53.55 54.18 54.74 55.73 55.97 56.11 56.19 57.42 57.74 59.18 59.72 59.61 59.33 60.02 59.50 62.10 64.62 69.26 72.32 74.85 74.93 76.14 76.32 76.16 77.52 77.69 78.87 78.84 78.37 66.66 63.88 65.82 77.25
53.60 54.22 55.10 55.67 56.33 56.64 58.24 58.94 59.81 60.10 59.50 59.56 59.72 59.02 58.98 59.89 61.52 64.83 67.97 68.15 73.17 77.03 76.26 75.82 75.87 76.81 78.30 78.61 78.94 64.71 63.30 65.52 74.79
53.65 54.57 55.43 55.25 55.98 56.85 57.36 58.62 59.36 59.31 59.23 59.63 59.83 58.58 59.53 60.14 59.98 62.65 67.21 67.94 67.10 72.06 76.07 75.87 75.66 76.05 77.18 73.68 78.32 67.84 61.44 64.48 74.76
53.64 54.09 54.44 55.05 55.46 55.62 56.70 57.86 58.12 58.14 58.75 58.92 60.32 60.87 61.02 61.70 61.67 60.94 63.14 67.55 68.14 68.81 71.50 75.13 75.65 75.06 76.66 77.88 76.58 77.41 60.71 59.28 75.03
51.99 52.21 52.75 53.39 53.25 53.63 54.84 55.82 56.14 56.51 57.35 59.29 60.00 59.97 59.96 60.60 61.63 61.83 60.15 64.32 67.34 67.86 69.21 70.20 74.07 75.79 75.67 77.17 77.59 68.20 63.78 58.85 60.03
51.17 51.43 52.32 52.93 52.76 52.69 53.91 54.79 55.17 54.47 56.58 57.90 58.29 58.45 58.55 59.23 60.12 61.18 62.68 61.49 64.67 64.74 69.04 67.91 68.61 72.60 73.30 74.56 77.25 76.34 62.77 58.63 58.14
51.11 51.94 52.20 52.62 52.16 52.19 52.26 53.83 54.36 54.30 55.02 56.08 55.85 55.62 56.47 57.34 58.05 58.88 60.61 61.59 59.83 61.55 62.70 65.30 66.19 69.31 72.65 74.11 75.79 77.11 76.68 75.62 68.24
51.13 51.33 51.88 51.65 50.84 51.15 51.88 53.13 52.94 53.76 54.45 54.32 53.46 53.97 53.96 55.06 56.66 58.05 60.16 62.34 61.66 61.25 62.94 62.73 64.97 67.01 69.06 69.06 68.94 73.22 62.90 60.50 69.06
50.93 51.24 51.54 50.58 50.74 50.48 51.86 51.56 51.74 52.48 52.55 52.50 51.52 51.46 52.27 53.35 54.46 56.08 57.59 59.18 60.91 54.49 53.02 51.36 49.64 49.24 56.45 65.64 57.87 54.34 54.53 53.25 53.61
51.13 52.07 51.18 50.14 48.60 50.21 50.41 50.40 50.40 51.19 50.33 49.78 49.89 48.11 50.29 51.11 51.42 53.61 55.63 56.84 58.35 59.58 60.02 49.36 48.38 47.37 48.91 49.23 52.83 49.76 47.74 46.54 51.07

GFSFLT1_sfc_wetblb_078.txt.gz
Wetbulb
69.55 69.55 69.62 68.96 70.35 71.42 70.09 70.18 70.83 73.81 74.94 75.35 76.25 76.20 77.03 77.28 78.21 76.40 75.22 72.75 75.48 73.84 71.25 74.40 78.44 78.20 78.24 78.87 78.05 78.43 78.58 77.84 77.18
64.79 65.48 65.14 67.14 70.96 71.85 69.97 71.41 70.59 73.79 75.16 76.10 76.54 76.50 77.34 77.31 77.39 76.89 77.47 77.55 78.85 74.96 73.03 75.89 76.27 77.32 77.57 78.14 76.40 78.53 78.08 75.50 76.42
59.83 60.90 62.90 64.00 66.10 68.44 69.47 72.15 71.81 74.30 75.88 75.91 76.58 76.59 77.08 77.31 77.41 77.98 78.04 78.89 78.33 79.58 72.89 72.41 72.24 72.17 75.30 77.60 76.28 77.10 77.87 77.36 74.26
55.03 56.86 58.08 61.53 61.63 63.85 67.01 69.25 70.53 69.36 75.17 76.06 76.45 76.81 76.85 76.83 77.02 77.69 78.09 77.84 79.32 78.82 79.44 72.81 70.82 67.27 68.37 74.40 77.49 78.42 78.02 76.47 75.11
54.04 52.86 55.22 57.80 58.28 58.69 60.15 63.86 66.31 65.95 70.22 70.02 76.06 76.69 77.25 76.98 77.57 77.55 77.55 77.39 78.00 79.41 78.64 78.88 74.26 70.13 70.25 74.86 76.70 76.85 77.43 75.94 76.39
54.72 52.34 52.68 55.15 57.71 56.97 57.42 57.52 61.01 64.90 66.06 66.62 69.10 72.59 76.54 76.69 76.75 77.20 77.09 77.62 77.75 78.43 78.58 78.58 77.73 77.92 78.44 78.37 77.19 77.75 76.68 77.27 77.03
54.06 54.23 53.72 53.88 55.52 56.28 57.83 56.35 57.88 60.00 64.59 64.65 66.64 68.65 70.79 73.87 76.42 76.57 76.83 77.74 77.76 77.76 78.65 78.04 77.74 78.05 78.10 77.64 77.79 77.70 77.17 76.89 77.16
53.38 52.77 53.33 54.57 54.58 55.84 56.74 57.18 57.79 57.02 58.48 62.46 64.99 66.14 68.73 69.15 69.71 76.53 79.03 78.79 77.99 78.34 77.66 77.81 77.99 77.82 77.38 77.49 76.88 76.31 76.86 77.38 76.80
53.46 53.64 53.81 54.13 55.45 56.12 56.12 56.54 58.15 59.18 58.49 58.27 62.16 62.96 64.83 66.37 70.54 72.71 74.54 76.93 77.41 78.52 77.68 77.95 77.63 77.32 77.04 76.41 76.50 70.25 68.60 74.73 76.58
53.97 54.15 54.95 55.24 55.25 55.90 57.62 57.46 58.74 58.74 60.49 61.00 59.76 60.10 60.96 62.83 66.20 68.18 70.70 74.49 76.61 77.45 77.21 77.85 77.30 77.06 77.07 76.74 76.85 68.40 65.21 67.39 75.64
54.10 54.72 55.00 55.52 55.89 56.61 57.83 58.69 58.71 60.42 60.44 61.64 60.97 61.57 60.86 60.78 61.57 63.85 68.36 70.75 69.55 72.20 76.69 76.99 76.72 76.51 77.21 77.35 77.22 67.88 65.77 65.51 73.57
54.27 54.71 55.48 55.81 56.15 56.66 59.10 59.36 60.50 61.26 60.47 61.70 61.64 61.37 62.13 61.69 60.32 60.17 63.05 67.75 68.61 69.62 71.84 74.81 75.60 75.86 76.31 76.70 77.18 65.74 63.54 65.84 73.15
54.32 54.95 55.40 54.99 56.14 56.88 57.37 58.30 58.54 58.70 60.05 61.09 60.40 60.52 61.79 62.98 63.29 62.30 61.31 62.27 66.77 68.75 70.37 71.16 74.13 74.78 75.73 72.20 76.27 67.87 63.31 64.02 73.94
54.33 54.45 54.33 54.75 55.02 54.85 55.52 56.31 56.36 56.69 58.10 58.10 59.80 60.47 60.87 61.66 62.08 62.29 63.67 64.37 63.69 67.07 67.55 69.12 71.03 71.50 74.68 75.26 74.66 75.25 61.92 60.58 74.73
52.70 52.50 53.20 53.72 53.54 53.66 54.89 55.43 55.08 55.07 56.52 58.41 58.98 59.49 59.67 60.53 61.13 60.85 60.70 62.35 63.68 63.40 65.26 66.14 68.32 69.78 71.60 74.15 75.46 68.02 66.08 59.25 60.01
51.58 51.98 52.72 53.17 52.90 53.15 54.04 54.71 54.51 53.31 55.67 56.84 57.14 57.29 57.30 57.77 58.84 59.42 60.33 60.86 62.59 62.34 62.65 64.81 65.41 66.83 66.87 69.76 73.83 74.81 63.72 60.57 58.70
51.61 51.92 52.04 52.33 51.64 51.32 52.13 54.12 54.29 53.89 55.42 56.32 55.50 55.08 55.54 56.22 56.18 55.88 57.38 58.61 59.66 60.00 61.04 60.13 61.59 63.76 66.23 69.77 73.38 74.32 75.43 75.44 71.99
51.45 51.34 51.87 51.61 50.69 50.94 51.24 52.99 53.00 52.95 54.25 54.00 51.68 52.49 53.02 53.42 54.36 55.26 56.39 58.00 59.00 59.79 61.63 61.12 61.63 61.75 62.65 62.36 63.68 70.19 63.82 62.43 67.04
51.37 51.42 52.19 51.39 51.09 50.43 50.85 51.17 51.44 52.88 53.41 52.34 49.68 48.65 49.52 50.57 51.04 52.51 53.33 54.04 55.04 53.98 51.12 49.53 48.03 47.29 52.56 60.37 55.02 51.94 50.45 49.95 48.58
52.02 52.00 51.96 50.77 50.24 50.81 50.67 50.09 49.95 51.12 51.31 50.29 48.97 47.14 47.88 48.41 48.92 49.84 51.04 51.64 51.98 52.25 54.76 51.53 48.04 45.68 46.49 46.69 49.73 47.64 45.96 44.97 46.22

GFSFLT1_sfc_wetblb_081.txt.gz
Wetbulb
64.05 65.04 66.63 67.37 67.60 68.70 69.11 68.87 69.68 70.56 70.31 71.44 72.30 71.41 72.12 72.29 72.12 71.01 70.42 70.05 70.23 71.38 70.05 71.95 72.95 74.01 73.74 73.32 72.90 72.85 72.67 71.57 72.38
62.40 64.89 65.65 67.14 67.50 66.79 69.09 68.13 68.93 70.37 70.85 71.64 72.65 72.23 72.97 72.69 72.25 72.21 70.67 68.92 69.98 72.17 70.46 73.15 72.57 72.74 73.55 73.54 73.52 73.15 73.10 71.47 71.47
57.31 59.70 64.08 64.71 64.63 64.93 67.87 69.20 69.40 71.65 72.36 71.97 72.89 73.18 74.00 73.81 73.76 73.27 72.99 72.70 72.57 71.59 71.76 71.69 70.64 69.82 70.43 72.67 73.22 74.67 72.90 72.04 71.64
54.40 56.05 57.66 60.66 62.58 63.38 64.29 66.65 68.33 68.96 68.80 70.01 71.43 73.27 73.12 73.16 73.63 73.91 73.41 73.27 73.47 72.16 71.32 69.49 69.34 69.13 68.16 70.01 72.55 73.17 72.66 72.15 72.10
52.41 55.04 56.08 57.28 57.91 59.35 61.10 64.07 65.32 66.08 67.07 67.27 67.68 68.71 71.15 73.26 73.88 73.97 73.59 73.40 73.00 73.55 71.94 71.45 69.71 69.35 67.62 68.64 71.62 73.07 72.86 71.97 72.23
51.43 52.00 53.79 55.42 55.96 56.35 58.66 60.46 62.55 64.98 65.27 65.96 67.27 67.28 68.82 70.67 72.16 73.38 72.83 73.72 74.00 74.42 72.59 70.28 68.42 67.45 68.45 71.18 71.82 72.70 73.30 73.09 73.12
51.81 51.60 52.36 54.01 54.47 56.62 57.12 58.38 59.34 60.19 62.86 65.43 66.10 66.96 66.11 67.93 67.79 68.71 71.03 73.65 74.76 74.73 74.76 73.81 73.32 73.29 73.11 73.45 73.45 72.82 73.76 73.17 72.43
51.58 52.17 52.52 52.87 53.68 55.10 57.78 57.44 57.05 57.98 59.40 60.77 62.94 64.38 64.50 65.83 68.92 67.05 67.86 69.78 72.43 74.01 74.63 74.70 74.37 73.77 74.16 73.90 73.97 74.97 73.67 73.32 72.46
50.56 49.75 52.69 53.44 54.41 54.99 55.68 56.86 56.94 57.59 57.31 60.12 60.62 60.02 61.10 63.85 65.64 68.38 69.59 69.92 70.81 72.05 72.87 73.97 74.69 73.39 73.79 73.46 75.10 70.28 68.78 72.26 73.52
51.15 51.40 51.38 51.46 51.95 53.22 53.57 54.12 56.71 57.10 58.95 59.24 59.12 59.43 59.31 60.45 62.47 63.37 66.29 68.78 68.26 67.72 71.49 72.54 73.31 73.73 74.05 72.84 73.40 68.17 66.03 67.40 73.26
51.23 51.64 51.80 51.38 52.05 53.30 53.93 54.92 56.02 57.07 59.49 60.19 59.49 59.20 59.79 60.43 60.91 60.58 62.01 66.11 66.58 66.22 68.20 69.93 72.41 72.34 73.09 73.47 74.37 67.60 66.15 66.25 67.77
51.01 50.92 51.07 51.18 52.21 54.43 54.17 54.30 55.91 56.50 57.06 58.25 57.56 58.60 59.14 60.71 61.60 60.86 60.65 60.89 62.20 65.98 66.80 67.93 69.89 72.59 72.61 72.28 72.74 66.63 63.24 64.82 69.09
51.00 51.25 51.15 51.00 52.20 52.73 52.14 51.97 53.03 53.69 54.44 55.84 55.39 56.86 57.61 58.82 59.29 59.01 58.70 61.21 61.42 61.95 65.75 66.06 66.96 69.05 70.11 70.06 72.45 67.16 62.26 63.54 70.20
50.65 50.24 49.91 51.14 50.92 50.22 50.79 51.58 52.11 51.83 52.62 51.91 53.96 55.09 55.74 56.77 57.55 57.45 57.36 57.82 58.78 60.48 60.90 62.76 65.20 65.91 67.81 70.13 71.91 72.38 63.49 60.05 69.34
49.20 48.78 49.40 50.48 49.43 49.57 50.81 51.26 50.60 50.04 50.12 52.04 52.74 53.37 53.83 54.27 54.80 55.70 56.17 55.78 57.00 58.42 60.13 59.88 60.56 63.20 65.11 67.49 70.00 65.03 65.02 60.70 59.27
47.91 48.56 48.63 48.74 47.65 48.28 50.10 50.56 50.12 48.41 49.69 51.28 51.20 50.97 51.15 51.12 52.36 53.33 53.70 52.44 52.62 54.08 54.72 56.89 57.35 57.87 59.50 63.64 65.92 69.36 62.24 58.73 58.95
46.92 47.68 47.23 47.36 46.73 47.21 47.62 49.62 49.38 48.75 49.90 50.02 48.55 47.20 47.55 48.42 48.57 49.32 50.14 51.69 52.87 53.38 54.06 55.35 56.86 56.98 58.41 60.08 60.26 66.38 67.72 68.58 67.81
46.58 47.29 47.24 47.08 46.34 46.11 46.68 47.63 48.02 48.17 48.37 47.45 45.62 45.29 45.80 45.87 46.59 46.39 47.68 49.06 49.80 50.75 51.85 51.57 50.92 51.99 54.05 54.83 56.53 58.47 60.86 60.78 63.73
46.68 46.77 47.56 46.77 46.29 45.83 46.49 46.61 46.45 46.80 46.79 46.13 44.63 43.84 44.37 44.75 44.91 44.99 46.07 46.06 46.98 48.92 47.50 46.78 45.76 45.07 46.28 52.60 50.73 49.24 48.24 46.39 45.87
49.85 47.32 48.84 45.92 46.17 46.35 45.61 45.39 45.05 46.30 46.58 45.52 44.10 42.09 42.39 43.15 44.10 44.34 44.78 45.55 45.82 45.40 47.74 47.86 46.31 45.11 45.87 46.45 45.26 44.83 43.46 43.63 43.96

GFSFLT1_sfc_wetblb_084.txt.gz
Wetbulb
63.04 63.49 66.17 65.36 66.08 67.16 67.65 67.95 69.35 70.02 70.63 69.78 70.01 70.14 70.72 71.01 69.73 68.83 67.15 68.76 70.02 70.27 70.54 70.77 71.84 72.60 72.40 72.21 72.10 71.49 71.09 70.39 70.70
60.85 64.75 65.54 66.73 66.59 67.80 68.26 68.32 69.24 69.54 70.45 70.68 70.38 70.68 70.38 70.59 70.94 70.07 69.77 69.57 69.00 69.40 70.28 71.36 71.94 73.19 72.73 72.61 71.77 71.39 71.89 70.24 70.04
57.37 59.00 61.27 64.47 65.11 65.91 68.09 69.08 69.10 69.27 69.74 70.87 71.08 71.04 70.97 71.57 71.02 71.28 70.66 69.67 68.04 69.83 69.45 72.64 71.61 71.85 72.50 72.40 72.38 72.02 72.04 71.12 70.09
54.68 57.30 58.96 59.83 62.98 65.91 67.37 67.69 68.12 68.36 68.18 69.06 68.18 68.63 68.79 71.34 72.15 71.91 71.61 71.39 71.54 71.57 70.90 71.20 70.72 69.87 69.31 69.95 71.05 72.37 72.12 70.67 70.85
53.97 55.68 57.07 58.42 58.94 62.07 64.73 65.40 66.81 67.37 67.64 67.06 67.33 68.32 68.86 69.89 70.55 71.30 71.58 71.80 71.86 71.46 70.67 70.18 69.61 68.29 67.54 67.49 69.69 71.39 71.65 70.92 71.82
52.86 54.63 55.05 55.98 57.50 58.49 60.56 62.76 65.05 65.95 66.94 67.17 67.22 67.08 67.51 68.59 68.57 70.35 70.34 70.98 71.70 72.11 71.08 70.66 69.74 68.22 67.31 66.87 68.51 70.27 71.95 71.65 71.43
51.70 52.76 53.62 55.01 55.92 56.52 57.96 59.41 60.96 63.67 65.18 66.61 67.26 66.72 67.04 66.94 66.92 66.79 67.44 69.42 70.53 71.17 70.86 70.33 69.04 67.67 67.41 67.82 68.80 70.85 71.91 72.23 71.41
51.04 50.97 51.71 53.05 54.57 56.11 56.75 57.41 59.18 59.95 61.07 62.48 64.87 65.34 65.77 65.92 67.62 67.42 68.70 68.43 67.26 67.66 70.55 72.36 70.26 69.94 70.35 70.21 71.85 72.49 71.53 72.34 71.18
51.01 51.46 52.34 53.29 54.44 55.45 56.49 56.65 56.64 59.84 59.25 59.91 60.87 60.66 61.31 63.20 64.87 65.73 66.41 68.43 67.91 68.12 68.34 71.00 72.18 71.78 72.15 72.61 74.25 69.24 68.56 71.73 71.76
50.94 51.96 52.61 53.38 54.08 54.63 54.94 56.76 57.91 56.71 58.03 59.46 59.28 59.50 60.01 60.39 60.68 60.97 61.89 65.38 67.22 66.14 66.86 68.86 70.53 71.51 71.50 71.78 72.17 67.89 66.31 67.41 70.84
49.87 50.35 51.75 52.58 54.26 54.22 54.97 56.40 56.80 57.86 58.63 58.81 59.17 59.48 60.28 60.20 60.23 60.50 61.31 61.94 62.24 63.48 66.34 66.90 67.87 69.63 70.75 70.98 72.50 65.78 64.36 65.34 68.08
49.38 48.36 48.93 50.34 51.90 50.70 50.61 51.33 53.21 55.20 55.43 55.81 56.02 56.30 57.34 58.36 59.09 58.85 59.31 60.46 61.22 62.27 63.48 63.18 64.66 65.92 68.09 68.88 70.69 64.03 61.50 63.62 68.41
48.99 49.21 49.92 49.53 49.80 50.37 50.55 50.41 52.60 51.51 50.90 51.57 51.86 53.01 54.49 55.76 56.91 56.67 56.45 56.98 58.34 60.67 61.42 62.54 63.65 64.27 65.85 64.75 67.71 64.27 61.50 62.90 68.54
48.22 49.08 49.08 49.34 49.38 48.75 48.88 49.66 49.94 48.82 48.85 49.01 50.44 51.90 52.77 53.43 53.77 53.94 54.30 54.90 55.41 56.67 58.16 59.86 61.72 62.84 64.62 65.58 65.80 66.63 60.93 60.41 67.66
47.64 47.77 48.36 48.75 47.66 47.97 48.24 48.61 47.98 47.11 47.90 49.08 49.50 49.68 49.41 49.74 50.59 52.04 52.82 52.15 52.51 53.19 53.25 54.36 56.06 57.87 59.54 63.14 65.54 61.57 61.85 58.96 57.51
45.95 46.73 46.01 46.48 46.68 46.91 47.66 47.87 47.08 46.57 46.94 47.24 46.92 45.97 45.55 46.19 47.71 48.14 48.66 48.66 50.00 50.77 51.58 51.67 52.42 53.24 53.34 54.90 58.49 60.78 60.62 56.78 58.05
45.63 45.10 44.89 45.25 45.60 45.36 44.94 46.13 46.56 46.09 46.00 45.64 44.77 43.62 43.60 44.16 43.77 44.60 45.07 47.36 48.81 48.73 49.13 49.36 49.12 48.76 49.19 50.62 52.16 54.43 58.08 57.18 59.49
45.08 44.66 44.58 45.30 44.54 44.22 44.43 45.09 44.76 44.82 44.77 44.29 42.84 42.54 42.54 42.07 42.73 41.66 42.18 43.87 45.05 46.69 47.18 47.53 47.02 48.23 48.58 48.54 49.24 51.54 48.55 47.04 49.72
45.13 44.62 44.89 43.84 43.57 44.23 43.66 43.92 44.17 44.42 44.33 43.36 41.45 40.84 41.15 41.08 40.82 40.92 41.89 42.16 43.29 45.89 45.85 45.10 43.86 43.20 44.00 47.82 46.94 45.74 43.80 42.33 42.89
47.06 45.49 44.46 44.07 44.15 43.80 43.16 42.73 42.77 43.17 43.60 42.98 41.80 39.92 40.61 40.51 41.44 40.84 40.86 41.17 41.21 41.69 44.04 45.08 43.51 42.56 43.13 43.37 43.45 43.20 42.08 41.98 42.55

GFSFLT1_sfc_wetblb_087.txt.gz
Wetbulb
63.62 64.81 64.38 65.04 65.18 66.26 66.88 67.59 68.84 69.58 68.61 68.37 67.73 68.49 69.65 69.68 68.67 67.04 66.59 68.12 69.15 69.29 69.83 70.23 71.31 71.42 71.54 70.85 71.12 70.02 69.87 70.39 70.18
60.08 62.57 65.13 65.23 66.16 66.85 66.94 67.58 68.36 69.73 69.78 69.02 68.86 68.37 69.14 69.67 68.85 68.22 66.94 67.34 69.28 69.65 70.18 70.62 70.79 71.51 72.02 71.44 71.21 70.50 70.83 69.88 69.03
58.72 60.48 61.31 63.42 65.32 66.91 67.44 67.71 68.90 69.10 70.56 69.89 69.77 68.92 68.90 69.52 69.67 69.90 69.09 69.10 68.38 68.38 69.08 69.90 70.75 71.57 72.11 71.64 71.46 70.33 70.38 70.24 69.48
57.13 58.43 59.82 61.02 62.75 66.86 68.01 68.72 69.26 69.42 68.88 69.74 68.37 69.80 69.46 70.00 70.02 70.20 69.49 69.46 69.05 68.19 68.96 69.79 71.70 70.95 71.09 71.19 71.17 71.30 70.95 70.44 70.27
55.71 57.35 58.21 59.70 61.06 63.18 66.11 67.51 68.37 68.73 68.21 67.56 67.71 67.83 68.30 69.04 70.03 70.65 70.03 69.92 70.57 70.43 70.75 70.16 69.45 70.00 69.23 68.96 69.20 70.34 70.93 70.91 70.96
54.55 55.91 56.01 58.17 60.04 60.84 61.56 64.45 66.97 67.49 67.35 67.04 67.29 67.53 67.40 67.42 66.77 68.14 69.34 69.85 70.74 71.20 70.50 69.47 69.11 68.99 68.01 67.58 66.90 69.06 70.68 71.10 70.59
52.43 53.90 54.75 56.06 57.22 58.74 60.01 60.73 62.36 65.50 67.33 67.80 67.55 67.67 67.51 66.63 66.74 66.58 66.92 67.15 67.36 68.93 70.66 70.37 69.51 68.59 68.11 67.13 66.85 67.94 69.82 70.91 70.59
50.72 51.21 53.16 54.48 55.42 56.37 57.53 59.14 60.20 61.85 63.40 64.84 66.36 66.70 66.72 66.33 67.24 66.86 67.78 67.74 67.44 67.72 67.99 69.61 71.19 69.66 68.44 67.81 67.75 69.31 68.79 70.65 71.16
49.52 50.65 51.74 53.46 54.89 55.37 56.15 56.84 59.13 60.51 60.14 60.82 61.53 62.10 63.44 64.91 65.39 64.91 64.97 67.62 67.17 66.73 66.95 67.92 68.10 69.95 70.28 70.18 71.75 67.59 66.92 69.73 70.94
50.18 51.96 52.58 53.37 54.14 55.05 56.11 56.58 56.55 56.87 58.19 59.21 59.59 59.61 60.57 61.33 61.72 61.32 61.33 62.01 62.70 64.91 65.73 65.85 66.21 67.22 69.68 70.47 70.87 66.28 64.80 67.35 71.05
51.48 52.17 53.21 53.40 53.57 53.64 54.45 56.64 57.66 57.60 58.05 57.82 58.26 58.21 58.92 59.89 60.73 60.57 61.12 61.57 61.10 61.47 62.76 62.44 63.10 64.02 65.12 67.74 69.63 63.56 62.07 64.14 67.47
50.50 49.61 51.20 50.74 51.20 52.28 53.56 54.26 54.39 53.57 53.30 53.63 53.61 54.21 54.84 56.10 56.61 56.45 56.49 56.26 57.79 59.48 60.21 61.07 61.95 63.35 63.86 64.58 64.98 62.29 60.84 62.61 67.30
48.72 49.49 49.71 49.23 49.48 50.08 50.10 49.54 50.12 49.78 49.64 50.40 50.25 51.30 52.02 53.26 53.61 54.79 54.33 54.01 55.08 56.83 57.81 59.73 61.66 62.17 63.24 62.59 64.17 61.82 59.42 60.62 67.23
48.19 48.22 48.26 48.43 48.56 48.19 47.99 48.02 49.27 47.77 47.38 47.12 48.73 49.29 49.08 49.39 49.77 50.88 51.71 52.93 52.43 53.09 53.99 55.24 56.41 59.12 60.78 61.43 62.22 63.21 56.94 56.21 64.41
47.08 47.06 47.61 47.95 46.90 46.18 46.34 47.13 47.69 45.96 45.45 45.95 46.43 46.30 46.20 46.22 46.39 47.71 48.31 48.04 50.08 51.77 51.64 51.44 52.27 51.97 53.90 56.25 54.77 54.53 54.59 52.40 52.67
46.60 46.94 46.87 47.13 46.82 45.80 45.63 46.18 46.00 44.21 44.17 44.91 44.67 43.76 43.52 43.60 44.21 44.56 44.97 45.20 46.17 47.63 48.48 48.73 48.30 48.57 48.92 50.26 54.53 53.96 53.12 51.34 51.01
44.97 45.46 45.67 45.86 44.99 44.16 44.12 44.89 44.89 44.19 44.00 43.87 43.18 42.30 41.94 42.21 41.87 42.04 42.11 43.78 45.15 44.65 45.43 46.07 46.54 47.02 46.35 46.83 48.67 49.74 50.77 49.89 48.92
44.68 44.07 44.30 45.04 43.71 43.61 43.33 43.25 43.11 43.46 43.12 42.34 41.06 40.95 41.26 40.63 40.92 40.14 40.97 41.76 42.18 43.36 43.86 44.13 43.73 44.62 45.05 45.03 45.57 47.41 46.05 44.44 45.68
44.12 43.50 43.43 43.10 43.02 43.19 42.71 43.04 42.94 42.98 42.76 41.67 40.01 39.71 39.99 39.97 39.84 39.84 40.57 40.17 40.15 43.90 44.18 43.94 42.78 42.05 42.56 45.68 45.08 44.07 42.34 41.10 41.43
45.65 43.78 43.49 43.23 43.33 42.84 42.57 41.88 41.48 42.33 42.24 41.52 40.12 38.34 38.81 39.24 40.01 39.71 39.42 39.62 39.52 39.34 41.54 44.01 42.93 41.94 42.06 42.32 42.46 41.91 41.04 40.77 41.21

GFSFLT1_sfc_wetblb_090.txt.gz
Wetbulb
63.33 63.30 63.21 64.39 65.46 66.61 67.33 67.69 69.14 69.24 68.87 68.32 68.44 69.77 69.89 69.85 69.48 69.50 69.33 69.80 70.41 70.98 71.40 71.96 73.27 73.29 73.07 72.70 72.41 71.81 72.20 72.58 72.53
61.97 64.03 64.59 64.63 65.40 66.52 66.97 67.73 68.31 69.24 69.01 68.80 68.54 69.59 70.26 69.99 69.61 68.93 68.19 68.53 70.71 71.13 71.75 71.97 72.67 72.86 72.91 73.03 72.83 72.59 72.29 72.24 72.13
59.98 61.80 62.90 64.86 65.77 66.14 67.17 68.01 68.56 69.87 69.73 68.73 69.08 69.25 69.41 70.31 70.09 69.70 69.70 70.05 69.79 70.43 71.18 72.14 71.66 72.30 72.66 72.46 72.70 72.70 72.49 72.35 71.89
58.79 59.98 60.98 62.21 63.88 67.13 67.24 68.20 69.14 69.67 70.22 70.43 69.27 69.47 69.89 70.16 70.53 70.87 71.18 70.35 70.47 70.40 70.61 70.34 70.75 71.85 72.56 72.64 72.09 72.87 72.07 72.37 72.28
58.05 58.99 59.70 61.00 62.66 64.48 67.27 67.69 68.95 68.82 68.80 68.60 68.82 68.60 69.33 70.16 70.98 71.40 71.47 70.34 71.27 72.17 71.34 71.23 70.86 71.51 72.01 72.18 72.32 72.73 72.81 72.30 72.99
56.39 56.71 57.77 59.36 61.55 62.73 63.80 66.56 67.92 67.94 67.92 67.90 68.08 68.14 67.56 66.88 67.20 68.12 69.00 69.92 71.21 71.62 72.09 71.84 70.73 70.85 70.36 70.12 70.04 70.93 71.83 72.67 71.81
54.69 55.77 56.75 57.70 58.82 60.75 61.52 63.13 65.09 66.97 67.11 67.67 67.87 67.67 67.33 67.31 67.29 68.03 67.87 67.81 68.28 68.90 70.70 71.74 71.20 70.95 70.46 70.26 69.66 69.15 70.14 71.75 72.14
52.71 53.57 54.96 56.35 57.01 58.42 59.61 60.93 62.34 63.96 64.30 65.79 67.76 67.63 67.67 67.06 67.02 67.72 68.50 68.21 68.50 68.49 68.81 69.24 71.01 71.56 70.89 70.45 69.59 69.32 69.74 70.89 71.80
50.78 52.24 53.59 54.92 55.66 57.14 58.31 59.28 60.67 61.73 62.19 62.53 63.89 63.81 64.78 66.11 65.37 64.38 65.06 66.46 66.82 67.16 67.22 67.71 68.99 69.19 70.69 71.26 72.00 67.04 65.59 69.38 72.03
49.88 51.05 52.44 53.80 54.57 55.42 56.07 56.66 58.14 58.82 59.67 60.93 60.99 60.86 61.44 62.08 62.46 61.79 62.21 62.92 63.24 64.50 63.92 64.77 64.90 65.71 66.55 67.87 69.71 63.11 62.89 65.07 69.67
50.63 51.56 52.60 53.01 53.16 54.64 56.38 56.95 56.29 56.39 56.62 56.44 56.75 56.47 56.80 58.09 58.93 59.02 60.29 60.58 59.93 61.33 62.13 63.09 63.43 63.93 65.24 65.95 66.77 62.14 60.76 62.67 68.17
50.24 52.29 51.77 51.96 53.79 54.31 54.12 53.55 53.82 52.87 52.89 53.22 52.72 52.58 53.06 54.43 56.25 55.43 55.76 55.99 57.36 58.13 58.93 60.74 61.33 63.09 63.41 64.50 64.74 54.83 55.22 60.24 67.02
50.89 50.92 51.37 51.41 51.73 52.57 51.34 51.26 52.09 51.11 50.60 50.45 49.48 50.15 50.62 51.80 53.09 53.34 53.44 54.05 55.12 56.75 57.29 58.62 61.23 61.62 60.91 58.85 60.65 53.48 52.86 57.08 61.74
49.40 49.30 49.17 49.69 49.54 48.88 49.06 49.55 49.43 47.73 47.53 46.99 48.15 48.75 48.82 48.87 48.98 50.19 50.30 52.37 52.77 53.43 54.51 54.94 55.10 55.65 56.88 57.38 55.18 54.87 51.69 51.64 53.13
48.03 47.94 48.25 48.47 47.25 46.91 47.73 48.34 47.54 45.93 45.71 46.50 47.16 47.02 46.75 46.58 46.61 47.18 47.42 48.82 49.15 50.59 51.05 51.24 50.20 51.87 52.47 53.30 53.97 53.71 51.09 50.49 50.72
48.18 48.00 47.32 47.56 46.51 46.11 46.83 47.18 46.78 45.17 45.46 46.12 45.71 45.06 44.63 44.82 45.38 45.49 46.13 46.01 46.54 46.87 48.05 48.00 47.86 48.41 47.27 47.93 49.92 50.73 50.71 49.55 49.63
47.66 47.54 46.79 47.17 46.07 45.62 45.40 46.02 45.97 45.59 45.48 45.29 44.58 43.84 43.58 43.85 43.96 43.77 44.31 45.10 45.33 44.82 45.07 44.64 44.97 45.50 45.18 46.19 47.86 49.12 48.79 48.15 48.35
47.16 46.86 46.82 46.53 45.76 45.25 44.88 44.95 44.74 44.94 44.53 44.25 43.02 42.91 42.86 42.73 43.01 42.77 43.26 43.71 43.58 44.23 45.09 44.35 44.06 44.62 44.90 44.75 44.80 46.05 44.53 43.30 45.23
46.12 46.30 46.07 45.01 45.14 44.99 44.28 44.25 44.35 44.26 44.14 43.68 42.87 42.42 42.50 42.67 42.29 42.52 42.65 42.56 42.67 43.76 43.68 43.19 42.00 41.47 42.69 45.30 44.12 42.62 41.24 40.23 40.73
46.49 45.91 45.92 45.19 45.31 45.08 44.26 44.22 43.96 44.35 43.88 43.24 42.20 41.59 42.05 42.02 41.97 42.21 41.90 41.70 41.11 40.34 42.48 42.99 41.95 40.96 41.38 41.44 40.78 40.45 39.53 39.21 40.02

GFSFLT1_sfc_wetblb_093.txt.gz
Wetbulb
67.08 66.89 66.68 68.01 69.37 68.72 67.41 68.46 70.69 70.84 72.17 72.90 73.22 72.86 73.77 74.67 75.01 73.88 74.54 75.24 74.94 74.37 75.67 77.43 77.53 77.05 76.97 76.50 76.53 76.06 76.24 75.31 76.14
65.77 66.27 65.74 67.36 69.61 69.90 69.82 67.84 70.07 72.21 71.83 72.45 72.83 72.85 73.45 74.08 74.52 74.43 74.39 74.97 75.52 75.48 75.84 75.34 76.33 76.92 76.77 76.89 76.61 76.36 75.77 74.82 75.67
63.16 65.47 65.64 66.61 68.35 69.69 70.41 69.32 68.85 70.69 70.52 72.27 73.07 72.53 73.10 74.84 75.02 75.03 74.86 74.32 74.00 74.68 75.61 75.66 75.89 76.12 76.25 76.53 76.68 76.60 76.35 75.61 75.75
61.00 62.56 64.03 65.14 67.22 68.41 68.87 68.97 68.54 70.08 70.89 72.69 72.01 70.25 71.72 73.26 74.65 74.91 74.87 74.61 74.87 74.89 75.06 74.81 75.14 75.64 75.40 75.99 76.09 76.20 76.00 76.37 75.93
62.00 62.19 62.63 63.89 65.71 67.59 68.88 68.97 69.07 69.54 71.01 72.17 72.01 72.45 70.75 70.90 73.46 74.31 75.00 74.66 74.97 75.42 74.92 75.17 75.09 75.00 75.27 75.25 75.42 76.43 76.11 75.36 74.86
59.09 60.32 60.94 62.26 64.04 65.77 68.21 69.29 69.64 68.82 69.42 70.13 69.64 69.17 68.45 68.77 69.82 74.09 74.91 74.75 75.20 75.33 75.46 75.93 75.65 75.27 74.97 75.21 75.04 75.30 75.72 75.85 75.57
58.10 58.74 59.83 60.71 61.60 62.81 64.63 68.63 69.26 70.09 69.85 70.03 69.44 68.95 68.59 68.29 69.60 70.78 72.17 72.62 73.04 73.81 75.21 75.69 75.80 75.81 75.45 74.64 74.59 74.22 73.86 74.21 74.98
56.33 57.78 58.35 59.19 59.69 60.56 62.04 63.61 65.78 67.25 68.34 68.58 68.43 67.84 67.66 67.73 68.79 70.33 71.16 71.58 71.73 71.90 72.76 73.49 75.25 75.46 75.31 75.11 74.21 73.63 73.60 73.48 73.61
55.63 57.31 57.35 57.71 58.40 59.49 59.98 60.89 62.58 63.35 64.16 65.40 68.49 68.25 67.73 67.95 68.69 66.37 66.27 69.88 70.57 70.58 70.62 71.09 71.95 72.99 73.08 73.11 71.65 64.09 65.03 69.66 73.68
55.98 56.52 56.58 56.43 56.77 56.70 57.82 59.14 60.27 60.66 61.72 62.73 62.64 63.15 63.60 64.21 64.33 64.87 64.15 64.59 65.98 67.04 67.48 67.91 67.97 68.50 70.15 70.40 69.23 60.28 61.11 64.41 74.06
56.70 57.26 57.63 57.97 58.11 57.28 56.52 56.87 56.88 57.40 58.17 58.81 58.62 58.11 58.24 59.26 60.33 61.00 62.80 63.41 62.65 62.98 64.49 65.50 66.19 66.59 67.55 65.28 59.30 56.12 58.82 61.95 71.73
57.36 57.57 58.15 58.68 59.63 57.66 55.46 54.73 54.86 54.45 53.39 53.77 54.67 54.60 55.18 56.53 56.84 57.20 57.93 58.06 59.69 60.98 62.60 63.39 64.60 65.04 67.19 61.23 56.38 53.27 55.00 65.07 70.11
56.63 56.75 56.02 56.31 55.45 54.92 54.54 54.32 53.74 52.34 51.41 50.89 50.31 51.43 52.33 53.38 53.33 54.26 54.47 55.96 58.07 59.67 61.78 62.61 62.98 61.50 60.83 57.30 54.77 51.98 51.89 57.16 61.61
56.74 55.44 55.29 54.93 55.87 53.88 51.94 52.87 54.31 52.03 51.96 50.32 50.86 51.14 52.84 53.22 53.76 51.62 53.48 55.50 56.42 56.38 57.10 58.23 58.89 58.37 58.54 57.30 56.26 52.09 50.68 50.95 55.22
55.14 55.18 55.24 56.42 55.44 55.17 55.27 55.26 53.39 51.36 50.10 50.88 51.36 51.32 51.81 51.98 52.24 52.14 51.41 53.37 53.85 53.97 53.90 54.02 55.52 55.76 55.34 54.33 53.94 50.69 50.11 49.71 50.24
54.60 54.75 54.36 54.78 54.34 53.68 53.61 53.73 54.16 52.63 51.60 52.19 51.93 51.66 50.91 51.18 51.59 51.07 51.69 51.72 51.86 52.39 52.18 50.80 49.43 50.77 51.91 51.65 52.99 52.77 50.12 49.66 49.85
53.55 53.58 53.26 53.47 53.27 52.53 51.79 52.57 52.53 52.08 51.47 51.56 51.20 50.47 50.06 50.29 50.34 50.07 50.51 50.71 50.71 50.18 50.12 50.11 50.48 49.62 48.29 47.79 49.95 49.43 49.45 49.80 49.88
53.14 53.00 53.18 53.39 53.07 52.65 51.92 51.96 51.35 51.13 50.70 50.79 49.73 49.63 49.40 49.50 49.73 49.65 49.15 49.02 49.21 49.58 48.75 48.19 49.22 48.54 49.14 48.13 46.97 44.79 42.98 42.52 45.80
52.36 52.09 52.53 52.75 53.20 52.69 51.69 51.31 50.73 50.52 50.34 50.00 49.47 48.58 48.77 49.10 49.21 49.14 48.77 48.51 47.37 43.58 43.96 42.87 41.28 41.44 44.36 48.30 42.85 41.27 40.18 39.16 39.69
52.72 52.89 52.59 51.54 51.33 52.60 51.74 51.07 50.51 50.56 50.16 49.74 49.20 48.21 48.39 47.53 48.13 47.85 47.18 47.20 47.30 46.25 44.31 42.62 40.73 39.94 40.67 40.56 39.80 39.69 38.70 38.47 39.14

GFSFLT1_sfc_wetblb_096.txt.gz
Wetbulb
69.00 69.78 69.61 69.91 70.11 69.27 70.33 73.58 73.35 72.35 73.83 75.59 75.95 75.92 76.36 76.88 76.97 74.41 75.53 75.45 75.27 77.49 76.18 75.35 77.57 76.72 76.82 77.39 77.55 77.71 78.06 76.40 75.68
67.81 69.64 69.99 70.08 71.60 72.39 72.99 71.21 71.88 71.32 71.51 74.09 75.63 75.61 75.96 76.22 77.19 76.46 75.38 76.13 76.24 79.12 78.39 76.81 76.85 76.55 76.28 76.40 77.07 77.57 77.97 75.64 76.69
68.02 69.52 70.60 70.67 71.48 71.77 70.95 69.97 70.25 71.23 73.48 72.76 74.41 75.02 75.74 75.62 75.10 75.31 75.29 76.27 76.43 76.82 77.51 77.89 77.07 76.59 76.40 76.47 76.60 77.80 78.16 76.32 76.98
66.17 68.64 69.50 69.95 71.26 72.57 72.69 70.81 69.76 69.78 70.50 71.72 74.05 74.29 75.16 74.89 75.22 75.08 75.27 75.07 75.51 76.02 76.74 77.35 77.47 77.20 76.23 76.40 75.90 76.39 77.06 76.91 76.62
64.13 65.69 66.02 67.64 70.19 70.98 70.55 71.32 69.93 69.31 70.15 70.26 71.58 74.49 74.49 73.63 74.89 75.06 74.76 74.96 75.39 76.52 76.17 77.77 77.46 77.20 77.15 76.95 76.34 76.83 76.39 75.72 75.71
63.31 63.60 64.38 65.62 67.95 69.23 70.52 70.08 69.09 69.29 70.23 72.05 72.21 71.77 72.13 72.42 72.25 73.94 74.63 75.27 75.56 76.34 76.72 76.49 75.83 76.16 76.00 76.71 76.79 76.27 77.00 77.11 76.45
61.50 62.78 62.96 62.78 64.09 67.33 68.91 70.22 71.12 71.18 70.89 71.25 71.23 70.25 69.91 69.62 70.15 71.40 72.92 74.41 75.65 75.99 76.67 76.79 76.01 76.24 76.23 76.32 77.11 76.97 76.96 76.71 76.70
61.68 62.86 63.98 62.45 61.56 63.03 64.35 67.64 71.19 71.73 71.36 71.52 72.51 70.51 69.21 69.93 70.91 71.46 72.25 73.66 74.53 75.79 76.11 76.11 76.91 76.99 77.15 77.44 76.94 76.24 76.51 76.26 76.03
61.27 61.92 62.83 62.32 61.17 61.92 62.30 62.75 65.54 69.17 70.63 70.74 72.42 70.48 70.00 70.08 71.33 70.94 70.59 71.46 72.60 73.05 73.62 74.43 75.58 75.52 76.07 76.54 75.83 62.48 64.61 70.69 76.14
61.72 62.28 62.72 61.42 60.42 60.50 61.25 61.23 62.44 62.70 63.67 65.50 65.93 66.65 66.88 67.12 68.05 68.84 67.90 66.02 66.79 69.88 71.27 72.15 72.01 73.20 74.13 69.23 67.65 57.56 59.99 64.07 74.88
62.07 61.96 59.84 61.27 59.06 59.15 58.52 57.67 57.57 60.37 59.95 60.77 61.17 61.65 61.21 62.67 63.99 65.05 66.12 65.26 65.56 66.87 68.13 71.36 71.79 71.03 71.13 66.03 59.44 54.65 56.84 61.41 73.05
63.64 63.79 63.67 61.73 61.25 58.49 57.16 56.50 56.75 55.73 56.56 57.82 57.02 58.40 59.24 58.66 58.96 60.26 62.89 64.29 66.17 68.19 69.12 69.33 69.53 70.34 67.01 63.28 58.80 52.41 53.28 62.71 73.23
62.74 63.04 63.62 63.41 60.69 56.52 55.37 54.78 55.30 53.57 52.56 52.66 52.71 54.46 55.69 57.13 58.45 58.51 58.69 60.32 60.21 63.15 64.23 66.53 67.45 67.19 64.18 57.87 59.69 50.81 51.31 56.79 67.13
61.75 61.90 61.70 61.44 60.33 57.98 56.67 55.26 53.29 51.86 51.45 50.36 51.02 52.74 53.53 54.75 55.10 55.87 57.09 58.41 59.00 60.79 64.05 64.34 64.27 63.82 63.21 61.09 58.04 53.96 50.22 50.60 53.13
59.84 59.67 59.66 58.61 56.78 54.67 53.90 55.98 56.84 53.28 51.26 52.28 53.36 53.87 53.70 53.88 55.33 55.32 56.92 57.94 57.55 60.00 59.79 60.11 61.77 61.18 59.53 59.97 59.20 49.97 50.07 49.80 50.26
59.61 59.49 58.28 59.11 58.89 58.72 58.57 57.02 55.51 52.96 53.10 54.87 54.69 53.49 53.20 53.69 54.75 57.96 58.03 57.66 55.31 55.07 57.85 57.36 56.08 56.94 57.45 58.40 57.29 56.60 50.37 50.03 50.58
59.51 59.73 59.35 59.60 59.00 58.05 57.18 58.02 57.81 57.80 56.42 56.38 55.79 54.45 54.11 54.48 55.43 56.09 57.52 57.60 57.51 57.45 55.97 55.93 56.34 56.08 54.63 54.83 56.11 52.84 50.50 49.45 52.47
59.40 59.35 59.17 59.12 58.71 57.93 57.26 57.49 57.09 56.45 56.14 55.74 54.95 54.04 54.50 54.45 54.48 55.14 54.69 54.87 53.65 54.93 51.78 49.49 54.42 54.97 55.85 54.21 54.58 48.10 42.46 42.52 46.13
59.51 59.17 59.29 58.65 58.55 58.13 57.60 57.06 55.98 55.66 55.46 54.84 54.00 53.33 53.22 53.70 53.92 53.90 54.35 53.07 50.49 43.77 43.88 42.18 41.19 40.97 44.42 49.93 42.11 40.81 40.01 38.92 39.32
57.62 58.90 58.31 56.68 56.70 57.70 57.57 56.43 55.50 55.66 55.00 54.28 53.46 52.77 53.48 52.22 50.55 52.97 52.51 52.52 52.11 48.67 43.74 42.36 40.75 40.40 40.56 40.40 39.23 39.69 38.77 38.70 39.12

GFSFLT1_sfc_wetblb_099.txt.gz
Wetbulb
68.62 68.53 67.12 68.50 70.96 69.93 72.92 73.12 74.20 74.57 75.80 76.35 76.34 76.24 76.36 76.84 76.55 74.80 74.45 75.71 76.82 74.90 73.28 75.06 78.38 77.39 77.45 77.38 77.95 77.73 77.80 76.25 75.69
67.58 68.85 67.91 69.02 70.27 72.72 73.00 73.60 74.37 75.17 75.86 76.26 76.22 75.91 76.48 76.62 76.76 76.33 75.70 75.98 76.85 75.99 77.90 76.20 77.24 76.93 76.69 77.17 77.36 77.63 78.06 75.47 76.34
68.58 69.14 70.64 69.23 71.28 72.69 71.57 70.65 74.44 73.15 73.03 74.45 75.74 76.37 75.94 76.01 76.13 76.29 76.03 76.15 76.03 76.82 74.38 76.65 77.28 76.32 76.53 76.55 76.67 77.07 77.65 77.52 77.76
68.79 69.70 70.66 72.10 71.89 73.02 74.02 73.60 73.37 71.62 73.26 73.74 74.83 75.75 76.21 76.41 75.68 75.96 76.47 75.57 75.63 76.41 76.75 77.28 76.50 77.00 76.60 76.68 76.66 77.01 77.84 77.87 76.96
69.23 70.95 71.36 71.84 72.34 72.10 71.93 71.89 69.41 70.52 69.92 70.59 71.03 73.24 75.21 75.55 75.21 75.77 75.38 75.17 75.73 76.37 76.48 76.78 76.78 76.94 76.92 77.10 76.48 77.52 77.37 76.15 76.05
67.54 67.87 69.32 70.39 70.94 71.87 72.84 71.24 71.31 71.78 71.06 69.99 70.70 71.35 73.82 73.06 74.71 74.86 75.16 75.91 75.71 76.33 76.22 76.70 76.31 76.81 76.68 76.24 77.04 77.18 77.26 77.22 76.74
64.23 65.04 65.89 67.28 68.57 69.91 71.01 72.05 72.16 71.97 71.25 71.46 71.87 72.18 70.56 70.75 71.08 71.76 72.45 73.25 73.46 73.98 76.92 76.23 76.39 76.66 77.03 76.69 76.75 76.05 76.94 76.67 76.58
63.52 64.54 64.93 64.12 65.19 66.45 69.30 71.39 71.89 72.19 71.94 71.73 72.64 72.01 72.41 72.20 70.68 71.48 72.06 71.87 73.52 74.26 75.86 75.87 76.39 76.43 76.82 76.84 76.29 73.25 72.38 76.87 76.56
64.68 64.44 64.90 64.84 63.25 63.96 64.19 66.57 71.51 72.85 73.02 71.86 72.92 72.76 72.22 72.53 72.87 73.54 73.01 73.44 72.97 73.39 74.31 74.61 75.79 75.87 76.27 75.71 68.93 61.45 62.84 68.65 76.49
64.32 64.77 64.12 63.87 63.80 63.27 63.02 62.59 64.92 67.30 69.88 72.84 72.25 71.33 70.89 71.47 71.63 71.46 71.70 72.24 72.22 70.34 71.78 74.30 73.89 74.31 72.27 69.09 64.83 56.55 58.43 63.30 71.96
65.10 64.16 64.02 64.60 63.32 61.19 60.06 58.99 60.41 61.84 62.00 65.35 67.32 66.90 66.43 66.76 67.37 67.89 68.57 69.51 69.52 67.33 69.56 71.69 72.73 72.56 70.41 66.62 59.08 53.98 55.63 59.04 70.25
65.67 64.96 65.25 64.78 63.70 60.88 58.56 56.85 56.27 57.78 58.46 58.51 58.64 62.01 62.32 63.30 64.70 66.08 66.77 66.60 69.20 69.32 70.56 70.91 71.42 71.16 69.06 65.91 59.44 52.20 53.14 60.92 73.27
65.54 65.00 64.28 63.37 61.72 58.53 56.92 55.96 56.30 54.92 54.35 56.33 54.80 54.69 56.31 61.95 61.01 61.32 63.08 65.11 66.08 67.77 69.05 69.39 69.42 66.49 66.80 59.09 61.61 50.93 51.34 55.94 64.07
64.95 64.17 63.33 62.09 60.72 56.94 55.39 55.56 55.17 53.85 53.16 51.25 53.07 53.96 55.77 56.30 58.11 58.81 59.95 60.94 61.32 62.26 65.51 67.43 67.62 66.46 65.33 60.50 56.65 52.99 50.61 50.77 59.62
63.65 62.98 62.52 62.92 61.79 60.50 57.54 56.42 54.31 52.21 52.16 54.56 53.69 54.55 54.51 55.78 56.69 57.30 58.17 59.76 60.26 62.29 62.72 63.13 64.11 64.76 63.72 62.80 61.14 51.03 50.24 50.22 50.37
62.72 62.63 62.09 61.78 60.26 58.87 58.52 59.28 60.45 53.21 53.40 54.61 54.47 54.49 54.21 54.65 56.25 57.30 57.92 59.76 59.11 58.59 59.95 59.43 60.64 60.10 59.68 59.97 60.84 59.60 50.60 50.42 50.78
62.08 62.14 61.57 61.71 61.01 59.70 59.04 58.06 57.46 56.72 58.54 58.47 57.07 56.41 55.29 55.38 55.42 56.50 58.29 57.15 57.91 58.48 57.85 57.40 58.16 57.14 57.48 57.60 58.01 54.56 51.75 51.92 53.75
62.36 62.11 61.93 62.06 60.20 60.18 59.86 60.28 60.11 59.11 57.52 56.62 55.50 56.06 55.98 55.68 55.52 54.87 56.72 56.45 52.28 53.56 51.75 48.58 50.78 57.36 56.77 56.13 56.37 48.01 42.97 42.78 45.87
62.57 62.08 61.83 61.31 61.24 60.82 60.10 60.02 59.31 58.92 58.69 58.40 57.59 56.21 56.05 55.61 56.00 56.02 56.09 55.15 52.45 43.04 43.48 42.46 41.29 41.02 44.13 49.33 42.41 41.20 40.45 39.55 39.55
59.82 62.29 61.88 61.29 61.16 61.25 60.82 59.90 58.76 58.73 58.38 57.56 56.86 55.72 56.71 55.64 51.72 55.15 54.66 54.67 53.71 50.75 44.46 42.67 41.46 40.56 40.75 40.68 39.77 40.35 39.63 39.12 39.41

GFSFLT1_sfc_wetblb_102.txt.gz
Wetbulb
65.38 65.73 67.34 68.29 68.19 66.99 70.97 72.88 74.28 73.55 75.36 75.83 76.42 76.28 77.12 77.79 78.54 75.97 75.85 77.13 74.90 71.65 71.67 71.42 74.39 77.29 77.76 78.35 78.30 78.23 78.38 78.03 77.19
63.36 64.28 65.67 67.30 67.53 70.13 67.90 67.81 71.88 73.16 75.00 75.42 76.48 76.23 77.43 78.10 78.24 78.41 77.81 77.66 79.90 76.52 72.16 71.51 70.44 68.10 76.38 77.40 76.18 77.48 76.73 77.54 77.08
62.58 63.63 65.59 66.97 67.51 67.53 66.41 66.99 70.59 73.89 76.19 75.31 75.80 74.57 76.47 76.40 76.73 77.55 78.46 78.88 77.61 76.38 70.52 68.35 69.40 69.99 74.37 77.12 76.81 77.85 78.87 77.70 76.44
65.99 68.14 67.35 67.07 67.39 70.11 66.08 67.46 73.05 73.40 74.48 74.62 75.54 75.05 73.81 76.92 76.46 76.76 76.98 77.71 78.34 78.49 72.22 69.99 69.57 73.61 76.56 75.71 77.75 78.24 77.54 77.72 77.28
69.37 69.10 68.31 66.68 68.14 69.34 71.24 71.29 73.47 72.13 71.79 72.11 73.28 73.33 74.46 75.33 73.09 74.01 76.09 73.87 71.65 76.56 77.74 76.96 77.62 78.41 76.54 76.98 76.29 76.55 76.58 76.52 76.28
68.49 71.21 69.77 69.82 70.03 71.40 72.86 72.67 72.48 72.39 71.76 71.88 71.23 73.21 73.06 73.27 75.06 74.61 75.93 75.34 72.23 72.31 75.66 78.02 77.90 78.06 76.06 75.15 76.21 75.56 75.92 76.67 76.09
67.20 68.54 69.21 70.72 70.92 71.71 71.76 72.82 72.34 71.75 71.99 71.73 71.75 71.19 71.88 72.14 72.17 72.97 72.27 73.35 74.20 74.91 75.34 74.81 74.49 76.96 75.50 75.28 76.74 75.96 75.92 76.12 75.83
65.59 65.68 66.11 68.33 67.47 68.68 71.10 72.08 72.51 73.14 72.56 72.35 71.51 70.92 71.43 71.65 72.38 71.06 71.19 72.15 71.72 72.80 72.46 73.13 73.79 74.44 75.77 70.42 69.30 66.25 67.79 70.73 73.61
63.88 64.62 65.43 65.40 66.03 67.43 66.41 69.08 71.42 71.71 71.54 71.34 72.77 72.17 71.33 72.21 72.67 72.70 72.43 72.03 71.58 71.11 71.00 72.02 72.59 72.32 73.45 69.29 65.30 60.17 61.26 64.88 73.47
64.53 64.03 64.17 64.50 64.37 64.30 63.77 64.29 67.53 68.09 72.51 73.12 73.02 72.92 72.97 72.46 72.16 72.97 72.43 72.45 72.35 71.96 71.13 70.68 70.41 70.92 68.25 61.76 58.27 55.87 57.64 61.15 69.04
64.61 63.79 63.50 63.91 63.14 61.91 60.27 60.73 61.96 62.20 63.83 68.02 68.45 68.18 70.40 70.67 71.30 70.53 70.62 70.60 70.10 70.10 71.01 69.28 69.84 69.47 67.02 62.91 55.59 53.88 55.62 59.80 67.78
65.03 64.41 64.43 63.85 63.00 60.72 58.78 57.69 59.16 59.24 59.04 58.88 61.62 62.32 62.94 65.50 67.29 67.24 67.45 68.12 69.52 70.18 69.75 68.09 70.01 70.54 67.63 63.26 55.20 52.39 53.04 60.81 68.09
65.40 63.24 62.63 61.66 60.01 58.66 57.17 56.34 57.23 56.53 56.97 56.65 55.13 55.30 56.97 61.56 62.87 64.45 65.15 65.61 66.07 68.13 69.94 70.92 68.16 66.84 65.03 60.91 57.19 51.52 51.68 53.58 63.12
64.53 64.09 62.30 61.20 58.82 56.78 55.61 55.81 55.49 53.98 53.63 53.27 54.98 56.06 56.83 57.07 58.33 60.89 62.45 63.76 64.55 65.33 65.61 69.32 67.66 66.01 63.10 58.60 56.83 52.53 51.07 50.95 57.00
62.72 61.97 61.64 61.29 58.28 56.27 56.40 56.53 55.77 54.20 53.42 54.54 55.34 55.15 55.61 57.68 58.28 58.98 57.82 61.44 62.34 63.66 63.61 64.62 65.08 65.86 65.59 62.63 57.83 52.54 50.61 50.44 50.83
61.91 62.43 62.23 62.48 60.38 58.29 57.10 57.35 56.16 53.82 53.64 56.24 55.65 55.44 55.50 54.61 56.41 57.43 58.85 59.52 59.28 60.20 60.70 59.52 61.45 61.58 62.22 61.99 58.53 52.86 51.05 50.64 51.71
62.21 62.04 61.49 61.10 59.89 58.73 58.36 59.96 60.42 56.35 56.02 55.78 55.91 55.68 55.60 55.04 55.57 55.20 57.77 57.42 58.55 57.47 58.77 58.59 59.90 60.42 59.68 61.09 60.05 56.66 53.17 50.59 49.83
62.06 62.12 62.27 62.03 61.63 60.25 59.18 59.19 58.18 58.91 60.05 60.04 58.10 57.62 56.79 57.17 56.92 56.13 55.92 47.50 45.74 50.40 42.84 43.71 47.29 49.22 54.36 52.82 51.42 45.80 42.13 42.33 45.61
61.06 61.30 62.27 62.09 62.67 61.78 61.18 61.45 61.00 60.83 60.04 59.83 58.34 56.55 55.58 55.78 56.12 55.82 57.26 53.82 49.08 43.27 43.25 42.43 41.04 41.02 44.80 45.98 42.94 41.61 40.72 39.89 40.10
59.54 61.81 61.94 62.99 63.04 62.92 62.01 61.75 60.56 60.93 60.86 60.07 59.79 58.84 61.66 57.69 55.80 57.25 57.15 57.18 54.99 49.38 42.97 43.20 41.35 40.80 41.19 40.95 40.34 40.98 39.90 39.51 39.71

GFSFLT1_sfc_wetblb_105.txt.gz
Wetbulb
64.35 64.93 65.96 66.92 65.65 66.03 67.85 69.34 71.24 71.20 72.02 71.99 72.23 72.78 72.19 71.61 72.42 71.75 71.47 72.19 70.48 70.14 69.60 71.11 71.71 72.26 72.43 72.87 73.24 73.14 72.69 71.91 72.47
62.39 63.62 65.48 66.20 67.52 67.12 69.33 68.70 71.12 72.35 72.07 72.00 72.74 71.93 72.90 71.95 72.65 71.76 71.69 72.03 71.74 71.89 71.95 72.03 71.33 70.05 68.38 69.91 73.01 73.79 72.82 72.02 70.89
62.53 63.35 65.02 66.25 67.69 67.75 69.36 69.11 69.00 71.12 72.53 72.53 72.99 72.57 73.07 72.65 72.10 72.47 72.25 71.76 69.65 69.42 69.42 69.53 70.38 68.20 68.41 69.77 73.32 72.61 72.35 72.26 71.85
62.02 62.60 63.77 65.69 67.24 67.73 67.73 68.24 68.55 69.14 68.95 72.31 72.10 72.80 72.67 72.68 72.23 72.46 71.77 71.73 71.67 70.42 68.90 67.56 66.92 68.96 70.74 72.81 73.29 72.95 72.03 72.00 71.83
63.48 63.83 63.80 66.31 66.93 66.72 66.15 66.13 67.91 67.70 68.70 70.97 72.28 72.77 71.50 72.11 71.84 69.75 70.93 70.03 70.23 71.06 70.37 70.24 69.82 72.14 73.20 72.75 72.87 72.47 72.63 72.81 72.60
63.38 62.76 64.54 65.55 66.31 66.35 66.64 66.49 67.62 69.89 70.56 70.81 71.32 71.06 71.17 70.37 68.84 69.76 71.42 70.94 69.44 70.69 72.53 72.21 73.09 72.67 72.32 72.48 72.37 71.88 72.48 72.83 72.46
65.14 64.17 65.11 65.30 65.45 66.15 66.26 68.32 70.29 70.39 69.87 69.26 69.44 69.46 69.59 68.38 69.30 69.65 70.78 70.92 71.19 70.96 71.19 70.88 71.86 72.58 73.13 72.07 69.74 69.33 69.72 71.20 71.84
64.42 65.33 66.10 65.66 65.57 67.35 67.69 69.40 69.04 69.17 69.44 68.66 69.17 68.63 68.74 68.74 69.08 68.86 69.14 68.77 68.68 69.22 69.85 70.51 71.98 72.41 69.36 68.30 65.74 63.83 65.05 66.68 69.43
62.99 63.64 64.50 65.34 65.78 65.97 66.08 67.13 68.70 69.56 69.80 69.28 69.24 69.15 68.59 70.14 70.07 69.28 69.32 69.48 68.97 69.28 69.22 68.94 70.89 69.34 67.02 63.72 60.19 57.48 59.09 61.41 65.00
62.70 63.58 62.83 63.53 63.47 62.41 62.87 63.78 64.67 65.09 68.57 69.96 69.78 69.49 69.64 69.62 69.67 69.19 69.76 70.27 69.78 68.14 67.38 68.70 69.77 64.42 58.79 54.13 53.23 55.46 57.12 60.50 62.14
62.66 62.66 63.00 61.76 61.00 60.38 60.82 61.35 61.98 62.01 66.61 68.07 68.12 69.04 68.86 69.02 68.92 68.38 68.03 67.62 67.40 66.77 67.29 67.78 66.03 63.46 60.28 54.34 51.99 54.25 55.58 60.67 64.71
62.47 62.31 61.97 60.91 60.10 58.84 58.40 59.40 60.27 60.93 60.09 61.59 61.54 61.68 63.71 65.99 66.75 65.34 65.66 64.48 66.44 66.73 67.13 66.77 66.39 64.07 59.62 53.63 50.37 52.76 53.57 59.26 62.59
60.95 60.55 59.42 58.39 58.10 57.15 56.60 56.86 58.08 57.90 57.45 57.00 56.52 56.84 60.24 61.90 62.39 62.74 61.22 61.48 62.54 62.97 64.55 66.75 63.04 62.09 59.37 55.85 50.14 51.78 51.78 55.27 55.59
60.58 59.43 57.61 57.53 57.13 55.64 55.07 55.80 56.09 55.13 55.51 55.20 56.42 56.92 57.55 57.85 58.64 60.46 59.98 59.90 60.81 61.02 62.53 64.56 62.91 59.48 56.59 55.35 51.08 49.50 50.83 51.23 49.87
59.72 57.90 57.11 56.11 55.20 54.42 54.99 55.12 54.65 53.58 52.86 54.91 55.49 55.79 56.34 57.00 57.95 57.98 58.50 58.48 59.48 59.72 59.84 61.20 62.60 62.10 56.94 53.74 52.00 51.73 50.47 50.76 51.20
59.01 58.34 57.37 56.40 55.09 54.47 54.94 55.06 54.23 52.92 52.24 52.83 53.33 52.85 53.57 54.10 54.50 55.79 57.24 56.32 55.97 55.82 58.05 57.12 58.20 60.32 59.87 54.17 50.41 48.27 50.71 49.62 50.85
59.55 59.70 57.67 56.57 55.07 53.76 52.85 53.60 53.50 52.05 52.57 54.33 52.67 51.69 51.38 51.47 51.46 51.98 53.26 50.36 52.11 49.62 49.99 52.10 52.98 51.57 53.89 56.17 52.81 49.41 45.69 45.87 45.56
59.15 59.10 58.33 56.95 55.74 54.65 54.03 54.79 52.60 52.49 52.70 53.06 52.27 53.50 52.56 52.09 52.44 52.51 46.75 42.78 46.00 44.55 42.52 42.43 47.27 44.56 45.64 48.54 46.91 41.21 40.72 40.69 41.44
59.05 58.87 59.33 59.03 57.36 56.19 55.05 54.76 53.35 53.95 54.84 54.55 53.16 51.72 51.84 51.84 52.15 49.94 47.33 42.85 40.30 42.99 42.45 41.96 41.06 41.44 45.78 42.29 42.00 41.17 40.47 39.28 39.58
57.84 59.14 58.88 59.11 57.44 57.37 56.98 56.76 55.76 55.70 54.87 54.81 54.52 52.80 52.52 51.08 50.83 50.25 50.96 48.66 45.43 40.96 39.33 42.56 40.61 40.16 40.84 41.86 41.31 40.36 39.41 39.12 39.47

GFSFLT1_sfc_wetblb_108.txt.gz
Wetbulb
63.63 64.66 64.73 65.04 65.27 66.40 67.38 69.16 69.38 69.80 69.50 68.91 70.65 69.83 69.46 69.83 70.60 70.17 69.84 69.01 70.17 70.53 69.43 69.13 70.74 71.27 71.82 71.93 72.00 71.04 71.84 70.56 70.87
62.21 64.10 65.41 65.16 65.06 66.59 67.14 68.07 69.65 70.34 70.10 70.18 70.20 70.72 70.54 70.35 70.70 70.60 70.69 71.35 70.10 70.31 70.69 71.07 70.48 71.33 69.63 69.01 71.49 71.74 71.60 70.52 69.94
62.45 63.84 64.48 65.26 66.05 67.86 68.39 67.72 67.54 69.98 70.91 71.09 71.06 71.07 71.24 70.20 71.10 70.90 70.80 70.53 70.28 70.91 71.04 70.52 70.76 69.71 68.26 68.12 69.78 71.69 71.22 71.11 70.88
61.86 63.06 63.62 65.35 66.71 68.35 68.84 69.28 69.34 68.12 69.30 71.25 71.63 71.14 71.48 71.04 71.67 71.33 70.95 69.93 69.42 69.24 68.47 68.11 68.90 68.02 67.86 69.72 71.44 71.69 71.02 70.69 71.04
61.81 63.30 64.13 66.14 66.13 65.93 67.02 67.53 67.75 68.49 67.68 69.36 71.02 70.34 70.84 71.67 71.89 71.10 71.10 70.32 70.53 69.40 68.17 67.18 65.94 67.27 69.99 71.71 71.89 71.54 71.20 71.02 72.26
61.63 62.37 63.93 65.64 65.93 65.09 65.89 66.43 66.65 67.76 67.63 68.15 71.08 70.63 71.08 71.24 70.35 69.45 70.68 69.72 69.31 69.71 70.67 70.82 69.75 71.06 71.15 71.51 71.36 71.05 71.15 71.09 71.21
62.58 62.08 64.18 65.09 65.32 65.44 65.58 66.51 66.49 67.20 68.98 70.34 70.27 70.04 70.65 69.84 68.94 68.89 70.22 70.40 69.40 69.39 70.27 69.17 69.84 70.55 71.13 69.00 66.91 67.20 67.70 69.50 70.06
64.03 61.70 63.37 64.36 64.93 64.91 65.30 66.10 69.02 68.77 69.48 69.30 69.05 68.58 68.24 68.30 68.62 69.21 69.07 69.32 69.59 69.42 69.52 69.31 69.58 68.60 67.45 65.56 64.44 63.20 63.36 66.04 67.09
63.90 62.76 63.81 64.73 65.03 65.97 66.35 67.32 67.18 68.89 68.96 68.60 68.44 67.81 67.25 68.21 67.90 67.47 67.11 68.41 69.37 69.04 68.84 68.26 69.10 67.11 64.21 60.97 58.83 57.59 59.05 60.93 64.15
63.45 64.09 64.58 64.14 64.15 65.28 66.21 66.02 68.22 66.11 68.64 68.82 68.15 67.88 68.40 68.96 68.53 68.37 68.35 69.05 68.78 67.36 67.11 68.24 64.11 58.96 55.24 52.44 53.65 56.27 58.03 60.82 62.41
62.06 62.39 62.13 62.06 60.86 60.96 61.27 62.49 63.24 66.13 68.67 68.80 68.01 68.04 68.26 68.31 68.13 67.95 67.40 66.80 65.93 65.39 66.04 65.62 61.25 58.39 54.90 52.03 51.86 55.06 57.72 63.02 65.97
62.20 61.41 60.86 60.62 60.71 60.02 60.28 61.81 62.15 62.83 64.16 64.71 65.59 66.56 67.83 67.90 67.69 66.78 65.40 64.97 65.14 65.36 65.35 64.20 62.26 58.95 55.14 51.06 49.25 53.36 56.28 61.28 66.28
58.53 58.34 57.95 57.49 58.87 58.74 59.33 59.07 60.65 60.57 59.02 60.23 59.36 60.68 61.78 63.94 64.85 63.88 62.66 62.71 62.03 62.29 65.42 65.13 62.34 58.39 54.81 52.78 48.99 51.94 53.17 54.12 57.77
58.20 57.12 56.50 56.73 57.13 55.99 55.96 58.69 58.28 57.93 57.81 56.87 57.53 58.66 58.87 59.84 61.73 61.32 60.56 60.20 59.96 61.36 63.60 61.50 59.41 58.04 54.61 50.69 48.83 48.83 51.00 51.25 49.68
56.70 55.58 55.25 56.23 55.03 54.54 55.01 56.26 56.74 55.65 55.58 56.46 57.69 57.24 58.07 58.07 58.44 59.32 59.34 59.36 59.06 58.93 62.15 61.19 59.51 54.87 52.69 51.84 49.12 50.06 50.37 50.82 51.10
57.34 55.83 55.01 56.08 54.97 54.41 54.74 54.70 54.10 52.57 52.46 53.36 54.04 54.47 54.09 55.25 55.38 55.68 56.23 55.69 55.41 54.86 57.61 59.61 60.47 59.92 55.24 51.13 49.33 49.14 49.25 49.64 50.32
56.87 55.91 53.84 53.39 52.65 52.09 51.11 51.85 51.77 51.27 51.65 52.02 50.78 50.18 50.19 50.75 51.55 49.47 47.85 51.20 50.67 48.64 49.41 50.95 51.59 50.72 54.17 51.10 50.63 47.99 44.87 42.85 42.45
58.08 56.56 55.41 54.48 53.98 53.07 52.54 52.32 49.99 50.75 50.93 50.79 50.05 49.70 49.26 49.07 48.68 45.74 42.79 42.33 43.38 43.61 42.50 43.95 46.23 46.64 46.73 49.44 47.37 44.87 41.43 41.06 41.59
56.33 56.05 55.23 54.48 53.74 52.98 52.34 52.44 50.63 50.83 50.51 51.44 50.88 49.30 49.62 50.32 50.00 48.07 43.09 41.55 40.31 42.42 41.99 41.29 40.54 41.32 42.64 41.12 42.78 41.26 40.14 39.28 39.54
56.58 56.48 56.34 55.69 54.29 53.74 53.17 51.78 51.40 51.95 52.26 51.85 50.41 48.61 48.69 48.73 49.40 47.64 46.83 43.80 41.60 39.82 38.60 41.60 39.96 39.58 40.24 41.41 41.16 39.89 39.03 38.90 39.35

GFSFLT1_sfc_wetblb_114.txt.gz
Wetbulb
63.37 63.04 63.61 64.69 65.25 64.63 66.10 67.20 68.35 68.63 68.09 68.36 69.57 69.44 69.18 69.74 69.87 69.50 69.66 69.98 70.05 70.23 70.55 71.01 71.76 71.62 73.17 72.57 71.74 69.46 70.53 72.33 72.09
62.18 63.79 63.47 64.28 64.67 65.01 66.06 67.06 67.99 68.57 68.31 68.14 69.12 69.53 69.45 69.63 70.32 70.09 69.87 70.30 70.42 70.23 71.19 71.13 71.29 71.98 72.70 72.57 72.98 72.68 72.74 72.32 71.76
61.72 63.64 63.73 64.22 64.91 65.04 65.63 67.39 68.19 68.89 68.88 68.16 69.11 69.51 69.32 69.50 69.92 70.80 70.66 71.11 70.84 70.94 70.62 71.01 70.81 71.31 71.41 71.54 71.44 72.51 72.94 72.95 72.54
62.36 62.97 64.36 64.40 65.09 65.68 66.05 67.02 67.96 68.25 68.49 68.19 68.70 69.87 69.55 69.82 69.95 70.39 70.91 70.91 70.70 70.76 71.35 71.44 70.93 70.45 70.96 69.97 70.27 71.76 72.12 72.20 72.40
62.11 63.48 64.14 65.03 64.88 66.05 66.10 67.28 67.91 67.96 68.52 68.65 69.40 70.40 70.25 70.20 70.63 70.99 70.81 70.69 70.81 70.42 69.93 69.83 69.94 70.64 70.05 69.19 70.33 72.64 72.54 71.87 72.75
61.52 62.64 63.91 64.98 65.51 65.79 66.58 67.24 68.54 68.69 69.01 69.34 70.36 70.36 70.53 70.31 70.33 70.51 70.65 70.59 70.65 70.34 69.78 69.86 69.24 68.20 68.51 69.83 72.50 72.68 72.63 72.24 71.73
61.30 62.15 63.92 64.89 65.51 66.20 66.51 67.03 67.86 68.22 68.35 69.49 69.99 70.19 69.97 69.75 69.57 70.19 69.94 70.08 69.88 69.94 69.68 69.84 70.50 70.73 71.43 71.82 71.34 71.10 70.75 70.59 71.10
61.19 62.03 63.37 63.92 64.52 65.23 65.93 65.81 66.40 67.18 67.54 68.29 69.23 69.28 69.97 69.41 70.13 70.52 70.24 69.77 69.71 70.40 70.33 69.97 69.50 69.91 69.93 68.75 68.52 66.56 66.02 67.68 68.25
60.90 61.89 62.99 64.12 64.65 65.13 64.96 66.00 66.11 67.02 67.84 68.42 69.18 69.59 68.22 68.98 69.92 69.25 69.64 69.48 69.32 69.57 69.32 69.10 69.55 68.31 67.12 66.71 65.31 59.15 59.83 61.78 65.13
60.61 62.78 63.28 63.68 64.08 64.60 65.23 65.99 66.67 66.26 67.50 68.65 68.51 68.11 68.35 68.24 68.74 68.85 68.94 68.65 68.31 68.26 68.24 68.47 68.22 65.82 62.32 59.19 57.68 57.64 58.51 60.91 62.93
62.15 62.53 62.92 62.56 63.22 63.99 63.33 64.42 66.93 67.72 68.15 67.74 67.13 66.97 67.49 68.17 68.20 67.77 67.61 67.99 68.40 67.99 68.06 66.52 63.21 58.47 56.00 56.18 57.15 56.29 59.34 63.27 66.77
59.92 60.18 60.40 60.83 60.92 61.23 61.77 62.63 64.87 66.00 67.06 67.24 67.42 66.50 66.79 67.72 67.74 67.68 67.95 67.92 67.45 66.75 65.48 61.47 58.79 57.03 55.63 55.38 54.24 53.64 58.29 63.48 63.26
57.62 58.20 58.67 58.71 59.81 60.30 60.00 61.21 63.88 65.80 65.43 66.11 66.27 66.18 66.21 67.70 68.17 67.70 66.14 65.89 66.09 66.75 63.76 60.58 57.08 54.62 53.68 52.01 52.79 52.30 53.22 59.95 59.44
56.81 56.95 57.16 57.39 57.08 56.49 57.75 60.36 60.98 60.62 59.86 59.60 62.22 62.56 63.08 63.60 64.69 65.21 65.12 64.85 65.75 65.75 61.93 59.12 57.15 54.56 52.21 51.82 51.59 51.55 51.31 51.96 58.03
56.11 56.06 56.72 56.77 55.84 55.85 57.23 59.53 57.97 56.61 56.27 59.08 60.81 61.56 60.18 59.64 60.30 61.59 62.77 62.76 63.52 64.51 62.26 59.06 58.29 53.21 50.98 50.28 50.13 49.85 49.97 49.85 51.34
55.16 55.37 55.31 55.95 55.13 54.24 54.24 56.19 56.64 55.27 55.77 56.49 57.61 57.71 57.27 58.45 57.75 58.53 58.71 58.40 59.92 61.90 61.11 59.03 55.95 54.10 52.45 50.79 50.56 48.79 47.64 47.74 48.29
54.94 55.09 54.56 54.73 54.54 53.58 52.27 52.31 52.36 52.54 52.59 53.37 52.72 52.46 54.21 54.86 55.27 53.39 52.89 53.58 53.46 56.99 56.79 58.60 59.00 58.07 55.67 52.15 51.73 51.14 48.79 47.42 47.62
54.47 54.17 53.41 52.80 51.87 51.48 51.13 51.85 51.88 52.15 51.48 51.25 49.66 49.94 50.19 49.74 48.12 47.83 46.14 43.46 45.04 46.73 43.90 47.18 51.47 51.21 54.79 53.76 52.74 51.60 45.58 44.11 45.24
53.74 52.96 53.31 53.01 53.15 52.72 51.24 51.20 51.04 51.26 51.42 51.28 49.89 49.34 50.00 49.91 48.21 46.33 46.07 45.72 44.42 42.72 42.09 41.13 40.20 41.01 46.98 47.26 44.46 41.41 40.08 39.32 39.65
54.52 54.33 54.47 53.92 53.92 53.54 52.62 50.00 49.78 50.51 51.59 53.13 51.92 51.10 51.14 51.33 50.14 49.02 46.94 46.31 46.84 47.83 45.47 41.51 40.22 39.39 40.21 40.79 41.50 39.76 38.75 38.54 38.98

GFSFLT1_sfc_wetblb_117.txt.gz
Wetbulb
65.28 65.00 65.95 67.03 68.72 69.14 69.72 70.01 70.98 71.16 71.05 72.05 73.30 73.75 74.04 74.64 75.00 73.74 73.81 75.03 75.61 74.40 74.11 74.47 75.82 76.20 77.02 77.33 76.47 75.96 75.01 74.97 76.09
64.05 63.24 65.40 66.79 68.72 67.87 69.91 70.37 70.87 71.29 71.41 72.03 73.29 73.39 74.13 74.24 74.75 74.55 74.16 74.96 75.06 74.45 75.05 74.76 75.29 75.27 75.76 76.65 76.44 75.93 76.08 74.69 75.57
64.08 64.18 64.42 66.81 68.34 68.95 69.72 70.78 71.47 71.98 72.23 72.07 72.75 73.58 73.96 73.91 74.40 75.15 75.07 74.90 74.92 74.94 74.84 75.17 75.59 74.85 75.03 75.93 76.35 76.58 76.48 76.69 76.60
64.35 64.05 64.07 65.24 66.18 66.57 68.40 70.87 71.18 71.75 72.36 72.58 72.47 73.15 73.86 73.91 73.91 74.26 74.94 74.89 75.44 75.59 75.02 74.96 74.38 74.86 74.83 75.03 75.25 75.43 75.79 76.37 76.24
63.85 64.18 64.60 65.58 66.02 66.15 68.67 69.59 70.79 71.29 72.22 72.27 72.84 73.43 74.01 73.91 74.07 74.42 74.36 74.72 75.21 75.12 74.93 74.80 74.79 74.68 74.21 74.29 74.76 74.65 75.14 75.20 75.18
64.96 65.39 64.96 65.89 65.82 65.75 66.86 69.33 70.33 70.98 71.84 72.43 73.01 73.49 73.62 73.77 73.49 73.92 74.44 74.81 74.92 74.78 74.60 74.49 73.87 73.45 73.06 74.26 74.08 74.18 75.40 76.32 75.90
64.40 65.27 65.79 66.53 66.85 65.50 66.80 69.99 70.67 70.71 71.28 70.66 72.87 73.05 73.31 73.35 73.70 74.28 74.51 74.89 73.91 73.63 73.95 74.05 74.18 74.30 74.57 74.20 74.42 75.73 75.84 75.24 75.19
63.75 64.09 65.44 66.67 67.44 68.00 67.39 67.43 69.93 71.78 70.43 70.48 72.78 72.23 73.02 73.48 74.95 74.22 74.69 73.70 73.82 73.08 73.35 73.50 74.06 73.84 73.68 74.40 74.17 73.67 73.11 73.95 73.75
63.06 64.00 65.10 66.33 66.97 66.88 66.22 66.71 68.38 69.07 71.06 70.73 71.26 72.76 73.06 74.00 72.99 71.80 72.78 71.92 72.90 72.77 72.05 71.40 73.00 72.58 69.02 68.60 70.12 60.39 60.54 64.05 71.13
63.54 64.09 65.29 66.42 66.66 66.09 66.12 66.09 67.32 67.25 68.79 70.31 70.63 71.46 71.69 71.44 70.39 71.36 70.34 70.44 71.19 71.48 70.02 69.52 70.86 69.45 67.07 66.26 62.22 58.19 59.33 60.50 67.80
62.52 62.84 63.47 65.03 66.40 65.79 67.02 68.49 68.61 67.72 68.19 68.51 68.57 68.06 68.58 69.34 68.69 68.67 69.79 69.48 69.47 69.54 69.41 69.12 68.17 65.10 61.76 60.14 58.80 55.69 58.77 62.47 68.07
60.94 60.78 61.13 61.75 62.95 63.76 65.07 66.67 69.66 69.14 68.84 68.58 68.77 67.49 68.93 68.53 69.00 68.19 67.99 67.58 68.69 69.12 69.37 67.47 63.75 60.61 58.70 59.06 57.88 54.01 58.91 65.15 67.80
60.00 60.45 60.34 59.94 60.32 60.99 61.69 62.42 64.45 67.22 67.61 67.92 67.74 66.88 67.20 68.30 68.37 68.71 68.51 68.49 67.92 67.24 66.70 63.95 61.06 59.62 58.20 55.22 57.72 52.61 54.17 63.01 68.39
59.52 60.14 59.30 59.27 59.23 58.51 59.82 61.42 62.90 63.28 63.97 63.19 64.99 65.00 65.57 64.96 63.94 65.97 66.95 66.65 66.72 64.71 62.38 61.20 60.32 58.89 58.04 56.18 55.95 54.39 51.85 53.27 66.23
58.80 58.54 58.69 59.21 58.87 57.90 58.63 59.02 59.03 58.37 58.81 61.29 62.48 62.83 63.42 63.51 62.58 61.61 62.51 63.98 65.50 63.22 60.87 59.70 58.47 56.91 55.27 54.81 52.22 50.78 49.52 50.54 52.06
60.41 59.89 59.06 58.44 57.53 56.43 56.68 57.00 57.80 55.12 55.74 58.11 59.26 59.59 58.91 58.31 60.73 59.49 58.47 60.66 62.94 63.35 62.51 60.44 59.34 56.78 53.83 51.93 52.18 51.70 48.88 48.68 49.13
59.94 60.03 59.09 59.42 58.47 55.05 54.84 54.83 54.74 54.70 55.21 55.74 55.76 54.69 55.19 56.36 54.19 55.07 55.83 54.62 57.77 60.06 61.31 60.42 58.29 57.77 57.20 54.25 53.52 53.48 52.54 51.83 52.57
60.18 59.40 58.21 58.06 57.70 56.77 55.86 55.65 55.34 55.19 55.53 55.84 54.84 54.66 52.60 50.90 50.67 50.34 49.93 49.83 50.88 53.00 48.40 49.18 56.77 54.84 58.01 57.56 54.87 53.10 47.05 46.70 49.59
58.48 57.78 58.16 57.58 56.45 55.63 55.34 54.94 54.93 55.78 56.36 56.44 54.94 53.90 53.65 53.01 51.88 50.34 50.10 49.27 47.68 43.41 43.08 43.15 40.98 41.96 49.08 50.33 45.54 41.75 40.44 39.84 40.36
57.00 59.80 59.47 58.53 57.42 55.92 55.47 55.01 55.09 57.36 58.61 57.84 57.36 56.84 56.91 54.90 54.20 54.23 53.83 53.97 54.16 53.81 48.64 42.03 40.69 40.12 41.27 41.32 42.68 40.21 39.43 39.20 40.05

GFSFLT1_sfc_wetblb_123.txt.gz
Wetbulb
68.36 67.79 68.01 67.85 69.28 70.49 72.80 72.45 73.37 73.84 74.03 74.69 75.07 75.54 75.85 77.03 76.44 75.05 74.72 76.04 74.93 74.22 74.41 74.88 77.63 77.59 77.49 77.57 77.95 77.78 78.30 76.66 76.06
65.13 67.47 67.87 68.28 69.10 70.51 72.78 72.86 73.42 74.23 74.34 74.56 74.81 75.01 75.84 76.45 76.45 75.92 75.18 78.45 76.76 75.67 77.03 75.72 77.09 77.12 77.47 77.47 77.44 77.60 78.22 76.12 76.56
66.82 67.69 68.66 68.77 68.86 69.73 72.05 73.04 74.27 74.38 74.78 74.58 74.79 74.69 75.08 75.13 75.63 76.44 76.28 78.07 76.91 76.47 78.40 77.71 77.35 77.34 77.12 77.44 77.40 77.85 78.81 77.50 78.46
65.92 66.21 67.35 69.57 68.00 70.15 72.18 73.41 73.83 74.45 74.52 74.79 74.54 74.69 76.43 76.30 75.54 76.06 76.45 76.20 77.03 77.46 78.18 77.58 77.29 77.98 78.01 77.50 77.16 77.45 78.35 77.36 77.87
66.06 67.86 68.05 68.64 70.36 70.02 70.92 73.22 73.78 74.08 74.64 74.52 74.71 75.45 77.15 76.36 76.49 76.24 75.53 76.17 76.17 77.77 77.82 78.91 78.63 78.03 77.91 77.67 77.64 77.87 77.45 76.73 76.28
65.38 67.79 67.87 68.17 69.40 69.71 70.62 73.39 73.89 73.72 74.55 75.00 74.72 75.99 74.79 75.60 75.35 75.57 76.01 76.20 76.49 77.28 77.40 77.30 77.03 77.62 77.54 77.46 77.26 77.18 77.21 77.27 76.66
65.82 66.62 67.00 66.57 67.09 67.89 72.35 73.81 75.10 75.27 74.80 75.20 75.55 75.04 74.69 75.59 75.00 75.35 75.53 76.48 77.47 76.68 77.20 77.27 76.81 76.98 76.91 76.71 76.42 76.49 76.84 76.79 76.45
65.85 64.77 65.27 65.86 66.29 66.02 68.93 71.99 73.17 73.72 75.46 76.02 75.78 75.40 75.09 75.85 77.66 76.89 77.20 76.97 77.54 77.66 77.22 76.64 76.60 76.25 76.48 76.70 75.80 74.71 76.34 76.28 76.00
65.27 66.29 67.47 67.71 68.10 67.65 66.80 69.51 71.79 72.25 71.35 75.30 76.30 76.10 75.56 77.14 78.13 76.61 76.31 76.33 76.47 76.69 76.26 76.17 76.17 76.09 75.46 75.47 75.05 62.53 63.43 66.42 73.87
64.08 67.28 67.64 68.59 69.18 66.63 67.52 67.63 70.45 71.92 71.92 72.85 74.22 74.70 74.87 74.75 75.59 75.72 75.70 75.81 76.95 76.26 75.94 76.24 75.39 74.89 73.52 72.93 66.99 60.36 59.65 61.29 69.85
63.54 64.80 67.17 65.28 68.16 69.63 69.06 68.59 69.19 70.13 70.35 70.38 71.52 73.68 73.79 74.60 74.76 74.69 75.04 73.82 74.90 75.17 74.94 74.00 73.26 71.66 70.30 70.96 59.54 57.37 59.41 63.68 70.48
60.63 61.33 62.55 63.18 65.65 68.72 67.85 67.87 68.64 67.65 67.89 68.62 68.77 70.55 71.69 73.02 72.16 71.35 71.02 72.38 71.22 71.60 72.55 72.65 70.33 67.11 64.91 63.27 59.56 55.23 57.41 62.39 70.48
61.52 60.57 61.06 61.34 62.67 65.45 67.42 68.32 68.32 66.74 66.31 66.97 66.51 67.65 69.02 70.75 72.31 71.41 71.12 71.97 72.56 72.22 71.15 69.05 63.03 60.73 59.56 59.74 59.29 52.97 53.95 56.46 64.75
61.16 60.74 60.49 60.53 59.93 60.54 61.48 64.37 68.68 67.96 67.74 67.00 67.76 68.53 67.62 67.44 67.46 67.85 68.19 67.85 67.98 65.06 61.45 59.94 58.29 57.56 57.22 55.42 54.18 52.36 51.09 52.40 58.52
61.42 60.77 60.70 60.13 58.18 57.62 58.97 61.30 62.04 62.00 62.83 65.29 67.24 66.31 66.64 66.18 66.57 66.54 66.40 63.65 62.15 61.04 60.34 58.47 56.88 55.41 54.23 54.17 52.52 50.44 50.78 52.00 53.38
61.69 60.17 59.55 59.90 57.41 55.99 56.82 57.90 59.16 56.90 58.99 60.92 61.80 61.89 61.10 61.32 61.90 62.61 63.67 65.08 62.72 61.99 60.66 59.55 57.99 57.06 56.42 55.49 55.46 55.18 52.53 50.75 53.19
61.68 61.06 60.57 60.54 58.43 56.43 55.67 56.61 56.88 57.38 58.18 59.16 57.86 58.02 58.59 57.58 58.52 61.63 64.33 62.62 61.23 63.44 62.67 60.79 59.91 58.55 57.38 56.28 55.82 57.80 58.35 57.95 56.82
61.45 62.02 61.27 61.45 60.52 58.50 58.19 58.71 58.61 57.90 57.14 57.16 54.72 54.59 55.98 55.78 54.55 54.38 54.68 57.05 58.98 57.82 53.29 58.10 61.19 61.10 60.42 58.97 58.10 58.33 52.55 49.95 55.40
61.59 61.86 61.50 60.03 58.71 57.74 58.35 59.00 58.85 60.75 60.83 60.92 58.87 57.08 56.48 56.26 56.30 56.17 54.11 50.54 48.95 44.80 47.14 46.68 46.98 47.88 52.69 56.37 47.03 43.30 41.58 41.23 41.79
57.83 59.77 59.72 59.36 59.42 60.10 60.40 60.84 61.12 62.15 62.68 62.89 62.03 58.51 60.64 58.23 57.65 58.77 58.80 58.25 56.75 52.02 46.43 42.89 42.23 41.94 43.03 43.37 46.32 41.50 40.50 40.42 41.66